Darstellungsparameter: Aktuell verwendete Einstellungen:
Skalierung der Graphiken ... ?
xyx+y,   Skalierungsfaktor:      Skalierung: Modus: x, Faktor: 1
Darstellungszeitraum ... ?
Vom - - bis: - -   Zeitraum: 07.06.2014 - 06.12.2014
Min/Max/Avg-Anzeige ... ?
Zeige MMA aktuell
Zeige MMA Monat
Zeige MMA alles
Zeige --A aktuell
Zeige --A Monat
Zeige --A alles
Keine MMA-Anzeige
MMA:
Keine MMA-Graphiken
MMA-Basis: 07.06.2014 - 06.12.2014
Quicknavigation für Darstellung... ?
Tage:      1T, 2T, 3T, 5T -1T -2T -3T -5T +1T +2T +3T +5T
Wochen: 1W, 2W, 3W -1W -2W -3W +1W +2W +3W
Monate: 1M, 3M, 6M -1M -3M -6M +1M +3M +6M
Jahre:    1J, 3J, 5J, 10J -1J -3J -5J -10J +1J +3J +5J +10J
Nutze für die Darstellung ... ?
Originaldaten oder ...
Mittelwerte Minima Maxima auf...
Stundenbasis Tagesbasis Wochenbasis
Monatsbasis Jahresbasis      Datenbasis: Mittelwerte auf Stundenbasis
Darstellen als:
Statistik (Auto) Statistik J:M      Darstellung:
Zur Graphik,    zurück zur Übersicht aller Sensoren.
 
Tabellarische Datenbersicht: ?
 
Sensor: Nr:Datum:Temp:Abs-Feuchte:Windchill:Wind:
Aussen-T/F 1 07-06-2014 00:00:00 15.95833 C 10.52 g/m*3 15.96 C 0.4 km/h
2 07-06-2014 01:00:00 14.71667 C 10.29 g/m*3 14.72 C 0 km/h
3 07-06-2014 02:00:00 13.9 C 10.01 g/m*3 13.9 C 0 km/h
4 07-06-2014 03:00:00 13.11667 C 9.84 g/m*3 13.12 C 0 km/h
5 07-06-2014 04:00:00 12.44167 C 9.69 g/m*3 12.44 C 0 km/h
6 07-06-2014 05:00:00 12.09167 C 9.7 g/m*3 12.09 C 0 km/h
7 07-06-2014 06:00:00 12.21667 C 9.88 g/m*3 12.22 C 0 km/h
8 07-06-2014 07:00:00 13.21667 C 10.4 g/m*3 13.22 C 0.13333 km/h
9 07-06-2014 08:00:00 15.825 C 11.3 g/m*3 15.83 C 0 km/h
10 07-06-2014 09:00:00 17.45833 C 12.07 g/m*3 17.46 C 0.13333 km/h
11 07-06-2014 10:00:00 20.30833 C 13.55 g/m*3 20.31 C 0 km/h
12 07-06-2014 11:00:00 24.58333 C 14.22 g/m*3 24.58 C 3.88333 km/h
13 07-06-2014 12:00:00 28.63333 C 13.49 g/m*3 28.63 C 6.01667 km/h
14 07-06-2014 13:00:00 29.825 C 13.24 g/m*3 29.83 C 6.31667 km/h
15 07-06-2014 14:00:00 30.60833 C 12.74 g/m*3 30.61 C 6.975 km/h
16 07-06-2014 15:00:00 30.89167 C 12.99 g/m*3 30.89 C 4.68333 km/h
17 07-06-2014 16:00:00 27.85 C 16.12 g/m*3 27.85 C 1.6 km/h
18 07-06-2014 17:00:00 25.48333 C 16.36 g/m*3 25.48 C 0.4 km/h
19 07-06-2014 18:00:00 26.41667 C 17.34 g/m*3 26.42 C 0.8 km/h
20 07-06-2014 19:00:00 24.9 C 16.4 g/m*3 24.9 C 0.53333 km/h
21 07-06-2014 20:00:00 24.28333 C 15.55 g/m*3 24.28 C 0.53333 km/h
22 07-06-2014 21:00:00 22.44167 C 14.63 g/m*3 22.44 C 1.33333 km/h
23 07-06-2014 22:00:00 21.15833 C 14.07 g/m*3 21.16 C 0.93333 km/h
24 07-06-2014 23:00:00 20.21667 C 13.72 g/m*3 20.22 C 0.4 km/h
25 08-06-2014 00:00:00 18.96667 C 13.38 g/m*3 18.97 C 0.13333 km/h
Sensor: Nr:Datum:Temp:Abs-Feuchte:Windchill:Wind:
Aussen-T/F 26 08-06-2014 01:00:00 18.09167 C 13.13 g/m*3 18.09 C 0.26667 km/h
27 08-06-2014 02:00:00 17.25 C 12.83 g/m*3 17.25 C 0 km/h
28 08-06-2014 03:00:00 16.54167 C 12.58 g/m*3 16.54 C 0 km/h
29 08-06-2014 04:00:00 16.18333 C 12.55 g/m*3 16.18 C 0 km/h
30 08-06-2014 05:00:00 15.71667 C 12.36 g/m*3 15.72 C 0.13333 km/h
31 08-06-2014 06:00:00 16.05833 C 12.76 g/m*3 16.06 C 0 km/h
32 08-06-2014 07:00:00 17.19167 C 13.22 g/m*3 17.19 C 0.13333 km/h
33 08-06-2014 08:00:00 19.275 C 14.11 g/m*3 19.27 C 0 km/h
34 08-06-2014 09:00:00 20.525 C 14.76 g/m*3 20.53 C 0 km/h
35 08-06-2014 10:00:00 22.7 C 16.03 g/m*3 22.7 C 0 km/h
36 08-06-2014 11:00:00 24.90833 C 16.26 g/m*3 24.91 C 0.13333 km/h
37 08-06-2014 12:00:00 28.7 C 15.49 g/m*3 28.7 C 4.94167 km/h
38 08-06-2014 13:00:00 31.1 C 15.07 g/m*3 31.1 C 6.69167 km/h
39 08-06-2014 14:00:00 32.425 C 15.37 g/m*3 32.42 C 7.39167 km/h
40 08-06-2014 15:00:00 32.46667 C 15.23 g/m*3 32.47 C 4.69167 km/h
41 08-06-2014 16:00:00 31.99167 C 16.28 g/m*3 31.99 C 9.14167 km/h
42 08-06-2014 17:00:00 33.625 C 16.22 g/m*3 33.63 C 6.01667 km/h
43 08-06-2014 18:00:00 33.43333 C 16.06 g/m*3 33.43 C 7.38333 km/h
44 08-06-2014 19:00:00 31.475 C 16.47 g/m*3 31.48 C 7.66667 km/h
45 08-06-2014 20:00:00 29.25833 C 16.26 g/m*3 29.26 C 7.525 km/h
46 08-06-2014 21:00:00 25.08333 C 16.79 g/m*3 25.08 C 1.075 km/h
47 08-06-2014 22:00:00 23.15833 C 16.63 g/m*3 23.16 C 0.4 km/h
48 08-06-2014 23:00:00 22.15833 C 16.31 g/m*3 22.16 C 0 km/h
49 09-06-2014 00:00:00 21.23333 C 15.95 g/m*3 21.23 C 0.26667 km/h
50 09-06-2014 01:00:00 20.31667 C 15.52 g/m*3 20.32 C 0 km/h
Sensor: Nr:Datum:Temp:Abs-Feuchte:Windchill:Wind:
Aussen-T/F 51 09-06-2014 02:00:00 19.73333 C 15.37 g/m*3 19.73 C 0.26667 km/h
52 09-06-2014 03:00:00 19.45833 C 15.37 g/m*3 19.46 C 0.13333 km/h
53 09-06-2014 04:00:00 19.53333 C 15.3 g/m*3 19.53 C 2.28333 km/h
54 09-06-2014 05:00:00 19.05 C 14.83 g/m*3 19.05 C 0 km/h
55 09-06-2014 06:00:00 18.625 C 14.74 g/m*3 18.63 C 0.13333 km/h
56 09-06-2014 07:00:00 19.09167 C 15.24 g/m*3 19.09 C 0 km/h
57 09-06-2014 08:00:00 21.175 C 16.27 g/m*3 21.18 C 0 km/h
58 09-06-2014 09:00:00 23.63333 C 16.92 g/m*3 23.63 C 4.825 km/h
59 09-06-2014 10:00:00 26.5 C 16.9 g/m*3 26.5 C 7.24167 km/h
60 09-06-2014 11:00:00 28.45833 C 17.43 g/m*3 28.46 C 6.83333 km/h
61 09-06-2014 12:00:00 30.35833 C 17.91 g/m*3 30.36 C 9.15833 km/h
62 09-06-2014 13:00:00 32.3 C 17.67 g/m*3 32.3 C 9.40833 km/h
63 09-06-2014 14:00:00 33.675 C 17.52 g/m*3 33.67 C 9.01667 km/h
64 09-06-2014 15:00:00 34.35833 C 16.85 g/m*3 34.36 C 9.275 km/h
65 09-06-2014 16:00:00 34.85833 C 16.02 g/m*3 34.86 C 6.43333 km/h
66 09-06-2014 17:00:00 35.125 C 17.08 g/m*3 35.13 C 7.38333 km/h
67 09-06-2014 18:00:00 34.83333 C 16.85 g/m*3 34.83 C 10.625 km/h
68 09-06-2014 19:00:00 31.85 C 18.48 g/m*3 31.85 C 4.95833 km/h
69 09-06-2014 20:00:00 26.225 C 17.73 g/m*3 26.23 C 1.06667 km/h
70 09-06-2014 21:00:00 25.65 C 15.04 g/m*3 25.65 C 9.93333 km/h
71 09-06-2014 22:00:00 21.975 C 12.65 g/m*3 21.98 C 9.525 km/h
72 09-06-2014 23:00:00 19.88333 C 12.89 g/m*3 19.88 C 0.93333 km/h
73 10-06-2014 00:00:00 18.46667 C 12.84 g/m*3 18.47 C 0 km/h
74 10-06-2014 01:00:00 17.75 C 12.7 g/m*3 17.75 C 0.13333 km/h
75 10-06-2014 02:00:00 17.14167 C 12.64 g/m*3 17.14 C 0.26667 km/h
Sensor: Nr:Datum:Temp:Abs-Feuchte:Windchill:Wind:
Aussen-T/F 76 10-06-2014 03:00:00 16.625 C 12.56 g/m*3 16.63 C 0.4 km/h
77 10-06-2014 04:00:00 16.35 C 12.41 g/m*3 16.35 C 0.93333 km/h
78 10-06-2014 05:00:00 16.025 C 12.37 g/m*3 16.02 C 0.66667 km/h
79 10-06-2014 06:00:00 16.65833 C 12.72 g/m*3 16.66 C 2 km/h
80 10-06-2014 07:00:00 17.99167 C 13.42 g/m*3 17.99 C 2.13333 km/h
81 10-06-2014 08:00:00 19.94167 C 14.28 g/m*3 19.94 C 0.13333 km/h
82 10-06-2014 09:00:00 21.28333 C 14.51 g/m*3 21.28 C 0.66667 km/h
83 10-06-2014 10:00:00 23.79167 C 14.6 g/m*3 23.79 C 3.75 km/h
84 10-06-2014 11:00:00 25.16667 C 15.3 g/m*3 25.17 C 1.06667 km/h
85 10-06-2014 12:00:00 27.34167 C 16.17 g/m*3 27.34 C 8.74167 km/h
86 10-06-2014 13:00:00 30.275 C 16.42 g/m*3 30.28 C 6.44167 km/h
87 10-06-2014 14:00:00 31.79167 C 16.36 g/m*3 31.79 C 4.26667 km/h
88 10-06-2014 15:00:00 33.29167 C 15.3 g/m*3 33.29 C 5.48333 km/h
89 10-06-2014 16:00:00 34.025 C 14.56 g/m*3 34.03 C 5.49167 km/h
90 10-06-2014 17:00:00 32.4 C 14.86 g/m*3 32.4 C 7.5 km/h
91 10-06-2014 18:00:00 29.80833 C 15.73 g/m*3 29.81 C 15.83333 km/h
92 10-06-2014 19:00:00 27.84167 C 15.57 g/m*3 27.84 C 9.8 km/h
93 10-06-2014 20:00:00 26.36667 C 15.8 g/m*3 26.37 C 7.24167 km/h
94 10-06-2014 21:00:00 23.825 C 16.55 g/m*3 23.83 C 3.075 km/h
95 10-06-2014 22:00:00 22.36667 C 16.04 g/m*3 22.37 C 0.66667 km/h
96 10-06-2014 23:00:00 21.46667 C 15.72 g/m*3 21.47 C 0 km/h
97 11-06-2014 00:00:00 20.35833 C 15.51 g/m*3 20.36 C 0 km/h
98 11-06-2014 01:00:00 19.68333 C 15.41 g/m*3 19.68 C 0 km/h
99 11-06-2014 02:00:00 20.21667 C 15.34 g/m*3 20.22 C 6.16667 km/h
100 11-06-2014 03:00:00 20.225 C 14.68 g/m*3 20.23 C 2.8 km/h
Sensor: Nr:Datum:Temp:Abs-Feuchte:Windchill:Wind:
Aussen-T/F 101 11-06-2014 04:00:00 20.02 C 14.74 g/m*3 20.02 C 0.32 km/h
102 11-06-2014 05:00:00 18.85 C 14.7 g/m*3 18.85 C 10.8875 km/h
103 11-06-2014 06:00:00 17.99167 C 14.44 g/m*3 17.99 C 1.60833 km/h
104 11-06-2014 07:00:00 17.83333 C 14.57 g/m*3 17.83 C 0.17778 km/h
105 11-06-2014 08:00:00 18.28333 C 15.11 g/m*3 18.28 C 1.6 km/h
106 11-06-2014 09:00:00 19.25 C 15.55 g/m*3 19.25 C 3.88333 km/h
107 11-06-2014 10:00:00 18.43333 C 14.16 g/m*3 18.43 C 12.75833 km/h
108 11-06-2014 11:00:00 17.75833 C 13.5 g/m*3 17.76 C 10.88333 km/h
109 11-06-2014 12:00:00 18.625 C 13.71 g/m*3 18.63 C 9.55833 km/h
110 11-06-2014 13:00:00 19.525 C 13.84 g/m*3 19.52 C 7.76667 km/h
111 11-06-2014 14:00:00 20.7 C 14.33 g/m*3 20.7 C 7.65833 km/h
112 11-06-2014 15:00:00 21.85 C 14.3 g/m*3 21.85 C 6.30833 km/h
113 11-06-2014 16:00:00 23.3 C 14.51 g/m*3 23.3 C 7.11667 km/h
114 11-06-2014 17:00:00 24.225 C 14.07 g/m*3 24.23 C 7.78333 km/h
115 11-06-2014 18:00:00 24.40833 C 13.21 g/m*3 24.41 C 9.01667 km/h
116 11-06-2014 19:00:00 24.06667 C 12.25 g/m*3 24.07 C 9.83333 km/h
117 11-06-2014 20:00:00 22.24167 C 11.45 g/m*3 22.24 C 6.31667 km/h
118 11-06-2014 21:00:00 19.74167 C 12.58 g/m*3 19.74 C 1.06667 km/h
119 11-06-2014 22:00:00 17.39167 C 12.49 g/m*3 17.39 C 0.53333 km/h
120 11-06-2014 23:00:00 16.575 C 12.32 g/m*3 16.58 C 0.4 km/h
121 12-06-2014 00:00:00 16.15833 C 12.07 g/m*3 16.16 C 0.13333 km/h
122 12-06-2014 01:00:00 15.65833 C 11.92 g/m*3 15.66 C 0.4 km/h
123 12-06-2014 02:00:00 15.24167 C 11.64 g/m*3 15.24 C 0.26667 km/h
124 12-06-2014 03:00:00 14.73333 C 11.34 g/m*3 14.73 C 0.26667 km/h
125 12-06-2014 04:00:00 14.84167 C 11.05 g/m*3 14.84 C 1.6 km/h
Sensor: Nr:Datum:Temp:Abs-Feuchte:Windchill:Wind:
Aussen-T/F 126 12-06-2014 05:00:00 14.375 C 10.86 g/m*3 14.38 C 0.53333 km/h
127 12-06-2014 06:00:00 14.2 C 10.91 g/m*3 14.2 C 0.13333 km/h
128 12-06-2014 07:00:00 14.74167 C 11.18 g/m*3 14.74 C 0.13333 km/h
129 12-06-2014 08:00:00 16.61667 C 11.43 g/m*3 16.62 C 3.73333 km/h
130 12-06-2014 09:00:00 17.96667 C 11.78 g/m*3 17.97 C 3.33333 km/h
131 12-06-2014 10:00:00 20.20833 C 12.46 g/m*3 20.21 C 3.46667 km/h
132 12-06-2014 11:00:00 22.18333 C 12.11 g/m*3 22.18 C 8.6 km/h
133 12-06-2014 12:00:00 23.525 C 11.59 g/m*3 23.53 C 8.33333 km/h
134 12-06-2014 13:00:00 24.575 C 11.59 g/m*3 24.58 C 8.6 km/h
135 12-06-2014 14:00:00 25.54167 C 11.15 g/m*3 25.54 C 9.83333 km/h
136 12-06-2014 15:00:00 26.15 C 10.09 g/m*3 26.15 C 9.825 km/h
137 12-06-2014 16:00:00 26.78333 C 9.37 g/m*3 26.78 C 10.35 km/h
138 12-06-2014 17:00:00 26.65833 C 9.85 g/m*3 26.66 C 11.83333 km/h
139 12-06-2014 18:00:00 26.275 C 9.79 g/m*3 26.28 C 9.95833 km/h
140 12-06-2014 19:00:00 24.93333 C 9.38 g/m*3 24.93 C 9.96667 km/h
141 12-06-2014 20:00:00 23.275 C 9.24 g/m*3 23.28 C 7.39167 km/h
142 12-06-2014 21:00:00 20.59167 C 10.3 g/m*3 20.59 C 1.2 km/h
143 12-06-2014 22:00:00 17.75833 C 10.33 g/m*3 17.76 C 1.2 km/h
144 12-06-2014 23:00:00 16.39167 C 10.35 g/m*3 16.39 C 0.13333 km/h
145 13-06-2014 00:00:00 15.48333 C 10.17 g/m*3 15.48 C 0.13333 km/h
146 13-06-2014 01:00:00 14.675 C 10.12 g/m*3 14.68 C 0 km/h
147 13-06-2014 02:00:00 13.475 C 9.9 g/m*3 13.48 C 0 km/h
148 13-06-2014 03:00:00 12.50833 C 9.68 g/m*3 12.51 C 0 km/h
149 13-06-2014 04:00:00 11.86667 C 9.55 g/m*3 11.87 C 0 km/h
150 13-06-2014 05:00:00 11.375 C 9.42 g/m*3 11.38 C 0.13333 km/h
Sensor: Nr:Datum:Temp:Abs-Feuchte:Windchill:Wind:
Aussen-T/F 151 13-06-2014 06:00:00 11.4 C 9.55 g/m*3 11.4 C 0 km/h
152 13-06-2014 07:00:00 12.175 C 10.01 g/m*3 12.18 C 0.26667 km/h
153 13-06-2014 08:00:00 15 C 11.02 g/m*3 15 C 0 km/h
154 13-06-2014 09:00:00 16.99167 C 11.52 g/m*3 16.99 C 0.4 km/h
155 13-06-2014 10:00:00 20.25833 C 11.81 g/m*3 20.26 C 3.06667 km/h
156 13-06-2014 11:00:00 21.96667 C 10.46 g/m*3 21.97 C 6.98333 km/h
157 13-06-2014 12:00:00 22.55 C 10.27 g/m*3 22.55 C 7.925 km/h
158 13-06-2014 13:00:00 23.04167 C 10.34 g/m*3 23.04 C 11.3 km/h
159 13-06-2014 14:00:00 23.63333 C 10.3 g/m*3 23.63 C 12.63333 km/h
160 13-06-2014 15:00:00 24.21667 C 10.09 g/m*3 24.22 C 12.5 km/h
161 13-06-2014 16:00:00 25.03333 C 9.94 g/m*3 25.03 C 12.76667 km/h
162 13-06-2014 17:00:00 24.74167 C 10.04 g/m*3 24.74 C 13.83333 km/h
163 13-06-2014 18:00:00 23.90833 C 9.81 g/m*3 23.91 C 15.16667 km/h
164 13-06-2014 19:00:00 22.61667 C 10.02 g/m*3 22.62 C 11.55833 km/h
165 13-06-2014 20:00:00 20.94167 C 10.12 g/m*3 20.94 C 9.00833 km/h
166 13-06-2014 21:00:00 19.09167 C 10.61 g/m*3 19.09 C 2.13333 km/h
167 13-06-2014 22:00:00 17.00833 C 10.86 g/m*3 17.01 C 0.13333 km/h
168 13-06-2014 23:00:00 16.925 C 11.13 g/m*3 16.93 C 0 km/h
169 14-06-2014 00:00:00 16.775 C 11.24 g/m*3 16.77 C 0 km/h
170 14-06-2014 01:00:00 16.51667 C 11.24 g/m*3 16.52 C 0.26667 km/h
171 14-06-2014 02:00:00 16.15833 C 11.07 g/m*3 16.16 C 0 km/h
172 14-06-2014 03:00:00 15.85833 C 11.05 g/m*3 15.86 C 0.4 km/h
173 14-06-2014 04:00:00 16.29167 C 10.97 g/m*3 16.29 C 4.95833 km/h
174 14-06-2014 05:00:00 16.16667 C 10.9 g/m*3 16.17 C 5.63333 km/h
175 14-06-2014 06:00:00 15.86667 C 10.7 g/m*3 15.87 C 7.375 km/h
Sensor: Nr:Datum:Temp:Abs-Feuchte:Windchill:Wind:
Aussen-T/F 176 14-06-2014 07:00:00 15.48333 C 10.32 g/m*3 15.48 C 7.65833 km/h
177 14-06-2014 08:00:00 15.575 C 9.39 g/m*3 15.58 C 10.1 km/h
178 14-06-2014 09:00:00 15.64167 C 8.74 g/m*3 15.64 C 10.75833 km/h
179 14-06-2014 10:00:00 16.40833 C 8.36 g/m*3 16.41 C 9.275 km/h
180 14-06-2014 11:00:00 17.825 C 8.59 g/m*3 17.83 C 8.60833 km/h
181 14-06-2014 12:00:00 18.625 C 8.83 g/m*3 18.63 C 11.29167 km/h
182 14-06-2014 13:00:00 18.875 C 8.72 g/m*3 18.88 C 11.15833 km/h
183 14-06-2014 14:00:00 19.15833 C 8.48 g/m*3 19.16 C 11.96667 km/h
184 14-06-2014 15:00:00 19.725 C 8.36 g/m*3 19.73 C 13.01667 km/h
185 14-06-2014 16:00:00 19.40833 C 8.32 g/m*3 19.41 C 12.36667 km/h
186 14-06-2014 17:00:00 19.725 C 8.6 g/m*3 19.73 C 11.16667 km/h
187 14-06-2014 18:00:00 19.375 C 8.8 g/m*3 19.38 C 10.1 km/h
188 14-06-2014 19:00:00 19.03333 C 9.01 g/m*3 19.03 C 10.225 km/h
189 14-06-2014 20:00:00 18.53333 C 9.16 g/m*3 18.53 C 9.41667 km/h
190 14-06-2014 21:00:00 17.4 C 9.15 g/m*3 17.4 C 5.5 km/h
191 14-06-2014 22:00:00 15.80833 C 9.3 g/m*3 15.81 C 2.80833 km/h
192 14-06-2014 23:00:00 14.35833 C 9.35 g/m*3 14.36 C 0.4 km/h
193 15-06-2014 00:00:00 13.6 C 9.33 g/m*3 13.6 C 0 km/h
194 15-06-2014 01:00:00 12.74167 C 9.28 g/m*3 12.74 C 0 km/h
195 15-06-2014 02:00:00 11.69167 C 9.07 g/m*3 11.69 C 0 km/h
196 15-06-2014 03:00:00 11.05833 C 9.01 g/m*3 11.06 C 0 km/h
197 15-06-2014 04:00:00 11.275 C 9.28 g/m*3 11.28 C 0.26667 km/h
198 15-06-2014 05:00:00 11.71667 C 9.48 g/m*3 11.72 C 0.26667 km/h
199 15-06-2014 06:00:00 12.21667 C 9.79 g/m*3 12.22 C 0.13333 km/h
200 15-06-2014 07:00:00 13.7 C 10.39 g/m*3 13.7 C 0.8 km/h
Sensor: Nr:Datum:Temp:Abs-Feuchte:Windchill:Wind:
Aussen-T/F 201 15-06-2014 08:00:00 15.79167 C 10.54 g/m*3 15.79 C 7.375 km/h
202 15-06-2014 09:00:00 16.43333 C 10.63 g/m*3 16.43 C 9.15 km/h
203 15-06-2014 10:00:00 17.55833 C 10.71 g/m*3 17.56 C 9.55833 km/h
204 15-06-2014 11:00:00 18.86667 C 10.66 g/m*3 18.87 C 8.60833 km/h
205 15-06-2014 12:00:00 19.21667 C 10.36 g/m*3 19.22 C 8.6 km/h
206 15-06-2014 13:00:00 20.05 C 10.05 g/m*3 20.05 C 13.55833 km/h
207 15-06-2014 14:00:00 20.21667 C 9.49 g/m*3 20.22 C 10.75 km/h
208 15-06-2014 15:00:00 20.875 C 8.93 g/m*3 20.88 C 8.45833 km/h
209 15-06-2014 16:00:00 21.94167 C 8.7 g/m*3 21.94 C 6.83333 km/h
210 15-06-2014 17:00:00 21.84167 C 8 g/m*3 21.84 C 9.81667 km/h
211 15-06-2014 18:00:00 22.2 C 8.03 g/m*3 22.2 C 12.36667 km/h
212 15-06-2014 19:00:00 22.1 C 7.61 g/m*3 22.1 C 11.55833 km/h
213 15-06-2014 20:00:00 21.1 C 7.51 g/m*3 21.1 C 11.3 km/h
214 15-06-2014 21:00:00 18.63333 C 8.4 g/m*3 18.63 C 3.625 km/h
215 15-06-2014 22:00:00 15.475 C 8.7 g/m*3 15.48 C 0.66667 km/h
216 15-06-2014 23:00:00 14.56667 C 8.96 g/m*3 14.57 C 0 km/h
217 16-06-2014 00:00:00 14.225 C 9.26 g/m*3 14.23 C 0 km/h
218 16-06-2014 01:00:00 12.83333 C 9.07 g/m*3 12.83 C 0 km/h
219 16-06-2014 02:00:00 11.89167 C 8.98 g/m*3 11.89 C 0 km/h
220 16-06-2014 03:00:00 11.675 C 9.11 g/m*3 11.68 C 0.13333 km/h
221 16-06-2014 04:00:00 12.1 C 9.4 g/m*3 12.1 C 0.53333 km/h
222 16-06-2014 05:00:00 12.7 C 9.8 g/m*3 12.7 C 0.66667 km/h
223 16-06-2014 06:00:00 13.24167 C 10.23 g/m*3 13.24 C 0.93333 km/h
224 16-06-2014 07:00:00 14.05833 C 10.45 g/m*3 14.06 C 4.40833 km/h
225 16-06-2014 08:00:00 14.24167 C 10.33 g/m*3 14.24 C 7.925 km/h
Sensor: Nr:Datum:Temp:Abs-Feuchte:Windchill:Wind:
Aussen-T/F 226 16-06-2014 09:00:00 14.84167 C 10.38 g/m*3 14.84 C 8.875 km/h
227 16-06-2014 10:00:00 15.45833 C 10.44 g/m*3 15.46 C 9.28333 km/h
228 16-06-2014 11:00:00 16.39167 C 10.24 g/m*3 16.39 C 12.76667 km/h
229 16-06-2014 12:00:00 16.61667 C 9.96 g/m*3 16.62 C 10.49167 km/h
230 16-06-2014 13:00:00 17.84167 C 9.71 g/m*3 17.84 C 10.75833 km/h
231 16-06-2014 14:00:00 18.50833 C 9.55 g/m*3 18.51 C 11.025 km/h
232 16-06-2014 15:00:00 19.93333 C 9.34 g/m*3 19.93 C 10.89167 km/h
233 16-06-2014 16:00:00 19.68333 C 9.3 g/m*3 19.68 C 12.63333 km/h
234 16-06-2014 17:00:00 18.34167 C 9.37 g/m*3 18.34 C 11.3 km/h
235 16-06-2014 18:00:00 17.41667 C 9.74 g/m*3 17.42 C 10.61667 km/h
236 16-06-2014 19:00:00 17.225 C 10.14 g/m*3 17.23 C 9.28333 km/h
237 16-06-2014 20:00:00 17.20833 C 10.17 g/m*3 17.21 C 7.93333 km/h
238 16-06-2014 21:00:00 16.75833 C 10.3 g/m*3 16.76 C 6.01667 km/h
239 16-06-2014 22:00:00 16.08333 C 10.52 g/m*3 16.08 C 2.13333 km/h
240 16-06-2014 23:00:00 15.59167 C 10.47 g/m*3 15.59 C 0.93333 km/h
241 17-06-2014 00:00:00 15.58333 C 10.2 g/m*3 15.58 C 1.6 km/h
242 17-06-2014 01:00:00 15.575 C 10.21 g/m*3 15.58 C 4.675 km/h
243 17-06-2014 02:00:00 15.38333 C 9.91 g/m*3 15.38 C 6.55833 km/h
244 17-06-2014 03:00:00 14.975 C 9.66 g/m*3 14.98 C 6.69167 km/h
245 17-06-2014 04:00:00 14.33333 C 9.52 g/m*3 14.33 C 5.76667 km/h
246 17-06-2014 05:00:00 14.00833 C 9.51 g/m*3 14.01 C 6.025 km/h
247 17-06-2014 06:00:00 13.95 C 9.53 g/m*3 13.95 C 6.15833 km/h
248 17-06-2014 07:00:00 13.975 C 9.45 g/m*3 13.98 C 4.93333 km/h
249 17-06-2014 08:00:00 14.88333 C 9.43 g/m*3 14.88 C 4.68333 km/h
250 17-06-2014 09:00:00 16.33333 C 9.28 g/m*3 16.33 C 8.475 km/h
Sensor: Nr:Datum:Temp:Abs-Feuchte:Windchill:Wind:
Aussen-T/F 251 17-06-2014 10:00:00 16.60833 C 9.27 g/m*3 16.61 C 7.79167 km/h
252 17-06-2014 11:00:00 18.14167 C 9.56 g/m*3 18.14 C 8.75 km/h
253 17-06-2014 12:00:00 19.8 C 9.49 g/m*3 19.8 C 9.28333 km/h
254 17-06-2014 13:00:00 19.75833 C 9.85 g/m*3 19.76 C 9.275 km/h
255 17-06-2014 14:00:00 20.55833 C 10.21 g/m*3 20.56 C 10.35833 km/h
256 17-06-2014 15:00:00 20.41667 C 10.33 g/m*3 20.42 C 11.425 km/h
257 17-06-2014 16:00:00 20.98333 C 10.55 g/m*3 20.98 C 12.23333 km/h
258 17-06-2014 17:00:00 21.58333 C 10.5 g/m*3 21.58 C 10.09167 km/h
259 17-06-2014 18:00:00 21.94167 C 10.09 g/m*3 21.94 C 11.83333 km/h
260 17-06-2014 19:00:00 20.73333 C 9.3 g/m*3 20.73 C 11.7 km/h
261 17-06-2014 20:00:00 19.93333 C 9.15 g/m*3 19.93 C 7.24167 km/h
262 17-06-2014 21:00:00 17.30833 C 9.57 g/m*3 17.31 C 0.8 km/h
263 17-06-2014 22:00:00 15.78333 C 10.04 g/m*3 15.78 C 0.26667 km/h
264 17-06-2014 23:00:00 15.375 C 10.49 g/m*3 15.38 C 0.26667 km/h
265 18-06-2014 00:00:00 14.49167 C 10.47 g/m*3 14.49 C 0 km/h
266 18-06-2014 01:00:00 13.575 C 10.15 g/m*3 13.58 C 0 km/h
267 18-06-2014 02:00:00 12.9 C 10.01 g/m*3 12.9 C 0 km/h
268 18-06-2014 03:00:00 12.325 C 9.97 g/m*3 12.33 C 0 km/h
269 18-06-2014 04:00:00 11.925 C 9.9 g/m*3 11.93 C 0 km/h
270 18-06-2014 05:00:00 12.09167 C 10.16 g/m*3 12.09 C 0.13333 km/h
271 18-06-2014 06:00:00 13.33333 C 10.88 g/m*3 13.33 C 1.2 km/h
272 18-06-2014 07:00:00 14.475 C 11.17 g/m*3 14.48 C 2.94167 km/h
273 18-06-2014 08:00:00 15.175 C 11.19 g/m*3 15.18 C 6.975 km/h
274 18-06-2014 09:00:00 15.83333 C 11.2 g/m*3 15.83 C 9.16667 km/h
275 18-06-2014 10:00:00 16.46667 C 11.32 g/m*3 16.47 C 7.25 km/h
Sensor: Nr:Datum:Temp:Abs-Feuchte:Windchill:Wind:
Aussen-T/F 276 18-06-2014 11:00:00 17.525 C 11.47 g/m*3 17.52 C 8.875 km/h
277 18-06-2014 12:00:00 19.23333 C 11.8 g/m*3 19.23 C 10.89167 km/h
278 18-06-2014 13:00:00 21.29167 C 11.89 g/m*3 21.29 C 9.15833 km/h
279 18-06-2014 14:00:00 23.38333 C 11.36 g/m*3 23.38 C 10.09167 km/h
280 18-06-2014 15:00:00 24.38333 C 10.04 g/m*3 24.38 C 12.9 km/h
281 18-06-2014 16:00:00 23.71667 C 9.38 g/m*3 23.72 C 11.3 km/h
282 18-06-2014 17:00:00 24.76667 C 8.97 g/m*3 24.77 C 11.16667 km/h
283 18-06-2014 18:00:00 24.375 C 9.15 g/m*3 24.38 C 12.1 km/h
284 18-06-2014 19:00:00 23.00833 C 9.54 g/m*3 23.01 C 11.69167 km/h
285 18-06-2014 20:00:00 21.025 C 9.92 g/m*3 21.03 C 10.36667 km/h
286 18-06-2014 21:00:00 19.13333 C 9.96 g/m*3 19.13 C 5.35833 km/h
287 18-06-2014 22:00:00 16.48333 C 9.91 g/m*3 16.48 C 0.93333 km/h
288 18-06-2014 23:00:00 15.4 C 9.84 g/m*3 15.4 C 0.4 km/h
289 19-06-2014 00:00:00 14.64167 C 9.8 g/m*3 14.64 C 0 km/h
290 19-06-2014 01:00:00 13.625 C 9.75 g/m*3 13.63 C 0 km/h
291 19-06-2014 02:00:00 12.525 C 9.59 g/m*3 12.53 C 0.13333 km/h
292 19-06-2014 03:00:00 11.61667 C 9.39 g/m*3 11.62 C 0 km/h
293 19-06-2014 04:00:00 11.175 C 9.34 g/m*3 11.18 C 0 km/h
294 19-06-2014 05:00:00 11.54167 C 9.57 g/m*3 11.54 C 1.46667 km/h
295 19-06-2014 06:00:00 11.675 C 9.65 g/m*3 11.68 C 1.46667 km/h
296 19-06-2014 07:00:00 12.94167 C 10.12 g/m*3 12.94 C 1.46667 km/h
297 19-06-2014 08:00:00 14.28333 C 10.61 g/m*3 14.28 C 3.2 km/h
298 19-06-2014 09:00:00 14.93333 C 10.46 g/m*3 14.93 C 6.56667 km/h
299 19-06-2014 10:00:00 15.775 C 9.87 g/m*3 15.78 C 9.95833 km/h
300 19-06-2014 11:00:00 16.075 C 9.58 g/m*3 16.08 C 9.29167 km/h
Sensor: Nr:Datum:Temp:Abs-Feuchte:Windchill:Wind:
Aussen-T/F 301 19-06-2014 12:00:00 17.16667 C 9.78 g/m*3 17.17 C 8.60833 km/h
302 19-06-2014 13:00:00 18.225 C 9.64 g/m*3 18.23 C 9.825 km/h
303 19-06-2014 14:00:00 19.04167 C 9.46 g/m*3 19.04 C 11.69167 km/h
304 19-06-2014 15:00:00 19.39167 C 9.67 g/m*3 19.39 C 13.16667 km/h
305 19-06-2014 16:00:00 20.78333 C 9.78 g/m*3 20.78 C 11.43333 km/h
306 19-06-2014 17:00:00 20.78333 C 9.72 g/m*3 20.78 C 9.55 km/h
307 19-06-2014 18:00:00 19.53333 C 9.8 g/m*3 19.53 C 11.56667 km/h
308 19-06-2014 19:00:00 18.5 C 9.84 g/m*3 18.5 C 11.83333 km/h
309 19-06-2014 20:00:00 17.4 C 10.3 g/m*3 17.4 C 7.925 km/h
310 19-06-2014 21:00:00 15.31667 C 11.15 g/m*3 15.32 C 2.94167 km/h
311 19-06-2014 22:00:00 14.52222 C 11.32 g/m*3 14.52 C 0.71111 km/h
312 19-06-2014 23:00:00 14.54 C 11.1 g/m*3 14.54 C 5.12 km/h
313 20-06-2014 06:00:00 13.1 C 9.93 g/m*3 13.1 C 7.26667 km/h
314 20-06-2014 07:00:00 13.25 C 9.91 g/m*3 13.25 C 7.25 km/h
315 20-06-2014 08:00:00 13.43333 C 9.93 g/m*3 13.43 C 7.1 km/h
316 20-06-2014 09:00:00 13.64167 C 10.13 g/m*3 13.64 C 7.65 km/h
317 20-06-2014 10:00:00 15.275 C 9.92 g/m*3 15.28 C 10.1 km/h
318 20-06-2014 11:00:00 14.9 C 9.68 g/m*3 14.9 C 8.34167 km/h
319 20-06-2014 12:00:00 15.61667 C 9.92 g/m*3 15.62 C 6.575 km/h
320 20-06-2014 13:00:00 15.625 C 9.53 g/m*3 15.63 C 9.11667 km/h
321 20-06-2014 14:00:00 15.78333 C 9.55 g/m*3 15.78 C 8.31667 km/h
322 20-06-2014 15:00:00 16.33333 C 9.51 g/m*3 16.33 C 6.85 km/h
323 20-06-2014 16:00:00 17.775 C 9.43 g/m*3 17.77 C 7.51667 km/h
324 20-06-2014 17:00:00 17.69167 C 8.96 g/m*3 17.69 C 9.14167 km/h
325 20-06-2014 18:00:00 16.9 C 8.88 g/m*3 16.9 C 5.75 km/h
Sensor: Nr:Datum:Temp:Abs-Feuchte:Windchill:Wind:
Aussen-T/F 326 20-06-2014 19:00:00 17.29167 C 8.9 g/m*3 17.29 C 4.41667 km/h
327 20-06-2014 20:00:00 16.875 C 8.76 g/m*3 16.88 C 4.56667 km/h
328 20-06-2014 21:00:00 15.65833 C 8.9 g/m*3 15.66 C 4.69167 km/h
329 20-06-2014 22:00:00 15.85 C 8.89 g/m*3 15.85 C 5.35833 km/h
330 20-06-2014 23:00:00 15.275 C 9.12 g/m*3 15.28 C 3.74167 km/h
331 21-06-2014 00:00:00 14.65 C 9.33 g/m*3 14.65 C 1.86667 km/h
332 21-06-2014 01:00:00 14.06667 C 9.38 g/m*3 14.07 C 1.075 km/h
333 21-06-2014 02:00:00 14.00833 C 9.35 g/m*3 14.01 C 3.625 km/h
334 21-06-2014 03:00:00 13.725 C 9.33 g/m*3 13.73 C 3.61667 km/h
335 21-06-2014 04:00:00 13.525 C 9.37 g/m*3 13.53 C 5.64167 km/h
336 21-06-2014 05:00:00 12.51667 C 9.31 g/m*3 12.52 C 1.33333 km/h
337 21-06-2014 06:00:00 12.71667 C 9.4 g/m*3 12.72 C 3.63333 km/h
338 21-06-2014 07:00:00 13.20833 C 9.49 g/m*3 13.21 C 2.13333 km/h
339 21-06-2014 08:00:00 13.825 C 9.6 g/m*3 13.83 C 5.35833 km/h
340 21-06-2014 09:00:00 14.69167 C 9.45 g/m*3 14.69 C 7.65 km/h
341 21-06-2014 10:00:00 15.86667 C 9.39 g/m*3 15.87 C 7.23333 km/h
342 21-06-2014 11:00:00 17.04167 C 9.08 g/m*3 17.04 C 9.68333 km/h
343 21-06-2014 12:00:00 17.75833 C 8.72 g/m*3 17.76 C 10.1 km/h
344 21-06-2014 13:00:00 19.25 C 8.75 g/m*3 19.25 C 10.09167 km/h
345 21-06-2014 14:00:00 20.025 C 8.55 g/m*3 20.02 C 10.75833 km/h
346 21-06-2014 15:00:00 20.8 C 8.69 g/m*3 20.8 C 10.09167 km/h
347 21-06-2014 16:00:00 21.43333 C 8.73 g/m*3 21.43 C 9.825 km/h
348 21-06-2014 17:00:00 21.36667 C 8.48 g/m*3 21.37 C 7.53333 km/h
349 21-06-2014 18:00:00 21.39167 C 8.34 g/m*3 21.39 C 6.98333 km/h
350 21-06-2014 19:00:00 21.26667 C 8.28 g/m*3 21.27 C 6.98333 km/h
Sensor: Nr:Datum:Temp:Abs-Feuchte:Windchill:Wind:
Aussen-T/F 351 21-06-2014 20:00:00 20.05 C 8.48 g/m*3 20.05 C 4.13333 km/h
352 21-06-2014 21:00:00 17.18333 C 9.28 g/m*3 17.18 C 0.93333 km/h
353 21-06-2014 22:00:00 15.00833 C 8.98 g/m*3 15.01 C 0.4 km/h
354 21-06-2014 23:00:00 13.53333 C 8.92 g/m*3 13.53 C 0 km/h
355 22-06-2014 00:00:00 12.40833 C 8.82 g/m*3 12.41 C 0.4 km/h
356 22-06-2014 01:00:00 11.59167 C 8.67 g/m*3 11.59 C 0.93333 km/h
357 22-06-2014 02:00:00 10.76667 C 8.52 g/m*3 10.77 C 0.26667 km/h
358 22-06-2014 03:00:00 10.08333 C 8.36 g/m*3 10.08 C 0 km/h
359 22-06-2014 04:00:00 9.61667 C 8.28 g/m*3 9.62 C 0.53333 km/h
360 22-06-2014 05:00:00 9.91667 C 8.43 g/m*3 9.92 C 0.53333 km/h
361 22-06-2014 06:00:00 10.14167 C 8.49 g/m*3 10.14 C 2.53333 km/h
362 22-06-2014 07:00:00 11.01667 C 8.68 g/m*3 11.02 C 3.73333 km/h
363 22-06-2014 08:00:00 12.925 C 9.37 g/m*3 12.93 C 2.26667 km/h
364 22-06-2014 09:00:00 16.475 C 10.8 g/m*3 16.48 C 5.21667 km/h
365 22-06-2014 10:00:00 18.10833 C 10.98 g/m*3 18.11 C 7.25 km/h
366 22-06-2014 11:00:00 19.56667 C 10.29 g/m*3 19.57 C 10.35833 km/h
367 22-06-2014 12:00:00 20.65833 C 9.92 g/m*3 20.66 C 11.825 km/h
368 22-06-2014 13:00:00 21.7125 C 9.19 g/m*3 21.71 C 11.7 km/h
369 22-06-2014 14:00:00 22.56667 C 8.4 g/m*3 22.57 C 11.95833 km/h
370 22-06-2014 15:00:00 22.99167 C 8.27 g/m*3 22.99 C 12.35833 km/h
371 22-06-2014 16:00:00 23.65833 C 8.09 g/m*3 23.66 C 12.09167 km/h
372 22-06-2014 17:00:00 23.46667 C 8.28 g/m*3 23.47 C 11.7 km/h
373 22-06-2014 18:00:00 22.24167 C 8.5 g/m*3 22.24 C 10.23333 km/h
374 22-06-2014 19:00:00 21.64167 C 8.52 g/m*3 21.64 C 8.6 km/h
375 22-06-2014 20:00:00 20.18333 C 8.69 g/m*3 20.18 C 5.475 km/h
Sensor: Nr:Datum:Temp:Abs-Feuchte:Windchill:Wind:
Aussen-T/F 376 22-06-2014 21:00:00 17.93333 C 8.99 g/m*3 17.93 C 0.53333 km/h
377 22-06-2014 22:00:00 15.83333 C 9.19 g/m*3 15.83 C 0.26667 km/h
378 22-06-2014 23:00:00 15.25833 C 9.26 g/m*3 15.26 C 0.13333 km/h
379 23-06-2014 00:00:00 14.09167 C 9.18 g/m*3 14.09 C 0.4 km/h
380 23-06-2014 01:00:00 13.09167 C 9.04 g/m*3 13.09 C 0 km/h
381 23-06-2014 02:00:00 11.79167 C 8.9 g/m*3 11.79 C 0 km/h
382 23-06-2014 03:00:00 10.9 C 8.73 g/m*3 10.9 C 0 km/h
383 23-06-2014 04:00:00 10.19167 C 8.58 g/m*3 10.19 C 0 km/h
384 23-06-2014 05:00:00 9.81667 C 8.52 g/m*3 9.82 C 0.13333 km/h
385 23-06-2014 06:00:00 9.94167 C 8.57 g/m*3 9.94 C 0 km/h
386 23-06-2014 07:00:00 10.51667 C 8.94 g/m*3 10.52 C 0 km/h
387 23-06-2014 08:00:00 13.175 C 9.68 g/m*3 13.18 C 0.93333 km/h
388 23-06-2014 09:00:00 15.41667 C 9.8 g/m*3 15.42 C 4.26667 km/h
389 23-06-2014 10:00:00 17.74167 C 9.62 g/m*3 17.74 C 7.39167 km/h
390 23-06-2014 11:00:00 19.175 C 9.43 g/m*3 19.18 C 8.48333 km/h
391 23-06-2014 12:00:00 20.40833 C 9.25 g/m*3 20.41 C 10.225 km/h
392 23-06-2014 13:00:00 21.45 C 9.21 g/m*3 21.45 C 9.80833 km/h
393 23-06-2014 14:00:00 22.35833 C 9.15 g/m*3 22.36 C 9.28333 km/h
394 23-06-2014 15:00:00 23.7 C 8.88 g/m*3 23.7 C 8.34167 km/h
395 23-06-2014 16:00:00 24.18333 C 8.74 g/m*3 24.18 C 10.35833 km/h
396 23-06-2014 17:00:00 24.175 C 8.95 g/m*3 24.18 C 9.81667 km/h
397 23-06-2014 18:00:00 23.43333 C 8.85 g/m*3 23.43 C 9.425 km/h
398 23-06-2014 19:00:00 22.44167 C 8.83 g/m*3 22.44 C 10.225 km/h
399 23-06-2014 20:00:00 21.25833 C 8.88 g/m*3 21.26 C 8.34167 km/h
400 23-06-2014 21:00:00 19.95833 C 9.09 g/m*3 19.96 C 4.69167 km/h
Sensor: Nr:Datum:Temp:Abs-Feuchte:Windchill:Wind:
Aussen-T/F 401 23-06-2014 22:00:00 16.83333 C 9.36 g/m*3 16.83 C 0.53333 km/h
402 23-06-2014 23:00:00 15.5 C 9.32 g/m*3 15.5 C 0 km/h
403 24-06-2014 00:00:00 14.69167 C 9.34 g/m*3 14.69 C 0 km/h
404 24-06-2014 01:00:00 13.59167 C 9.24 g/m*3 13.59 C 0 km/h
405 24-06-2014 02:00:00 12.5 C 9.09 g/m*3 12.5 C 0 km/h
406 24-06-2014 03:00:00 11.575 C 8.94 g/m*3 11.58 C 0 km/h
407 24-06-2014 04:00:00 10.83333 C 8.82 g/m*3 10.83 C 0 km/h
408 24-06-2014 05:00:00 10.35 C 8.78 g/m*3 10.35 C 0 km/h
409 24-06-2014 06:00:00 10.30833 C 8.84 g/m*3 10.31 C 0 km/h
410 24-06-2014 07:00:00 11.25833 C 9.28 g/m*3 11.26 C 0.8 km/h
411 24-06-2014 08:00:00 13.95 C 9.93 g/m*3 13.95 C 1.06667 km/h
412 24-06-2014 09:00:00 16.775 C 10.56 g/m*3 16.77 C 1.2 km/h
413 24-06-2014 10:00:00 19.95833 C 10.63 g/m*3 19.96 C 3.86667 km/h
414 24-06-2014 11:00:00 21.475 C 9.63 g/m*3 21.48 C 5.075 km/h
415 24-06-2014 12:00:00 23.075 C 9.43 g/m*3 23.08 C 7.51667 km/h
416 24-06-2014 13:00:00 23.16667 C 9.13 g/m*3 23.17 C 6.01667 km/h
417 24-06-2014 14:00:00 23.09167 C 9.21 g/m*3 23.09 C 5.76667 km/h
418 24-06-2014 15:00:00 23.8 C 9.48 g/m*3 23.8 C 5.625 km/h
419 24-06-2014 16:00:00 22.93333 C 9.66 g/m*3 22.93 C 5.63333 km/h
420 24-06-2014 17:00:00 17.88333 C 12.7 g/m*3 17.88 C 6.44167 km/h
421 24-06-2014 18:00:00 16.7 C 12.29 g/m*3 16.7 C 2.8125 km/h
422 24-06-2014 19:00:00 15.2 C 12.2 g/m*3 15.2 C 1.6 km/h
423 24-06-2014 22:00:00 13.5 C 11.7 g/m*3 13.5 C 0.32 km/h
424 25-06-2014 08:00:00 14.2 C 10.9 g/m*3 14.2 C 11.9 km/h
425 25-06-2014 09:00:00 14.75 C 9.33 g/m*3 14.75 C 12.48333 km/h
Sensor: Nr:Datum:Temp:Abs-Feuchte:Windchill:Wind:
Aussen-T/F 426 25-06-2014 10:00:00 15.61667 C 8.51 g/m*3 15.62 C 14.63333 km/h
427 25-06-2014 11:00:00 17.05 C 8.2 g/m*3 17.05 C 13.96667 km/h
428 25-06-2014 12:00:00 17.78333 C 7.77 g/m*3 17.78 C 14.9 km/h
429 25-06-2014 13:00:00 17.86667 C 7.86 g/m*3 17.87 C 10.48333 km/h
430 25-06-2014 14:00:00 18.48333 C 7.84 g/m*3 18.48 C 13.03333 km/h
431 25-06-2014 15:00:00 18.41667 C 7.78 g/m*3 18.42 C 11.43333 km/h
432 25-06-2014 16:00:00 19.74167 C 7.43 g/m*3 19.74 C 9.55 km/h
433 25-06-2014 17:00:00 19.66667 C 7.46 g/m*3 19.67 C 10.35 km/h
434 25-06-2014 18:00:00 20.75 C 7.58 g/m*3 20.75 C 9.68333 km/h
435 25-06-2014 19:00:00 19.78333 C 7.58 g/m*3 19.78 C 9.96667 km/h
436 25-06-2014 20:00:00 18.74167 C 7.88 g/m*3 18.74 C 9.69167 km/h
437 25-06-2014 21:00:00 16.46667 C 8.26 g/m*3 16.47 C 2.28333 km/h
438 25-06-2014 22:00:00 13.725 C 8.52 g/m*3 13.73 C 0 km/h
439 25-06-2014 23:00:00 12.58333 C 8.43 g/m*3 12.58 C 0 km/h
440 26-06-2014 00:00:00 11.16667 C 8.22 g/m*3 11.17 C 0 km/h
441 26-06-2014 01:00:00 10.275 C 8.12 g/m*3 10.28 C 0 km/h
442 26-06-2014 02:00:00 9.45 C 7.96 g/m*3 9.45 C 0 km/h
443 26-06-2014 03:00:00 8.9 C 7.82 g/m*3 8.9 C 0 km/h
444 26-06-2014 04:00:00 8.58333 C 7.79 g/m*3 8.58 C 0 km/h
445 26-06-2014 05:00:00 8.53333 C 7.85 g/m*3 8.53 C 0.66667 km/h
446 26-06-2014 06:00:00 8.525 C 7.85 g/m*3 8.53 C 0 km/h
447 26-06-2014 07:00:00 9.325 C 8.12 g/m*3 9.32 C 0.93333 km/h
448 26-06-2014 08:00:00 11.28333 C 8.57 g/m*3 11.28 C 1.06667 km/h
449 26-06-2014 09:00:00 13.70833 C 9.22 g/m*3 13.71 C 1.73333 km/h
450 26-06-2014 10:00:00 16.88333 C 9.62 g/m*3 16.88 C 3.875 km/h
Sensor: Nr:Datum:Temp:Abs-Feuchte:Windchill:Wind:
Aussen-T/F 451 26-06-2014 11:00:00 18.96667 C 8.92 g/m*3 18.97 C 7.25 km/h
452 26-06-2014 12:00:00 20.20833 C 8.82 g/m*3 20.21 C 8.05833 km/h
453 26-06-2014 13:00:00 21.68333 C 8.81 g/m*3 21.68 C 8.46667 km/h
454 26-06-2014 14:00:00 22.30833 C 8.4 g/m*3 22.31 C 7.50833 km/h
455 26-06-2014 15:00:00 23.05833 C 8.11 g/m*3 23.06 C 8.71667 km/h
456 26-06-2014 16:00:00 23.74167 C 7.65 g/m*3 23.74 C 7.65 km/h
457 26-06-2014 17:00:00 23.69167 C 7.59 g/m*3 23.69 C 7.38333 km/h
458 26-06-2014 18:00:00 24.40833 C 7.51 g/m*3 24.41 C 7.11667 km/h
459 26-06-2014 19:00:00 23.54167 C 7.08 g/m*3 23.54 C 4.275 km/h
460 26-06-2014 20:00:00 21.55 C 8.23 g/m*3 21.55 C 2.13333 km/h
461 26-06-2014 21:00:00 17.84167 C 8.79 g/m*3 17.84 C 0.26667 km/h
462 26-06-2014 22:00:00 16.01667 C 8.47 g/m*3 16.02 C 0.26667 km/h
463 26-06-2014 23:00:00 14.9 C 8.45 g/m*3 14.9 C 0.26667 km/h
464 27-06-2014 00:00:00 13.68333 C 8.52 g/m*3 13.68 C 0 km/h
465 27-06-2014 01:00:00 12.68333 C 8.57 g/m*3 12.68 C 0 km/h
466 27-06-2014 02:00:00 11.75 C 8.43 g/m*3 11.75 C 0 km/h
467 27-06-2014 03:00:00 11.15833 C 8.36 g/m*3 11.16 C 0 km/h
468 27-06-2014 04:00:00 10.43333 C 8.24 g/m*3 10.43 C 0 km/h
469 27-06-2014 05:00:00 10.1 C 8.26 g/m*3 10.1 C 0 km/h
470 27-06-2014 06:00:00 10.26667 C 8.39 g/m*3 10.27 C 0 km/h
471 27-06-2014 07:00:00 11.4 C 8.79 g/m*3 11.4 C 0.8 km/h
472 27-06-2014 08:00:00 14.14167 C 9.23 g/m*3 14.14 C 0.93333 km/h
473 27-06-2014 09:00:00 16.15 C 9.82 g/m*3 16.15 C 1.06667 km/h
474 27-06-2014 10:00:00 18.03333 C 9.86 g/m*3 18.03 C 1.73333 km/h
475 27-06-2014 11:00:00 20.20833 C 9.61 g/m*3 20.21 C 5.75833 km/h
Sensor: Nr:Datum:Temp:Abs-Feuchte:Windchill:Wind:
Aussen-T/F 476 27-06-2014 12:00:00 21.75 C 8.88 g/m*3 21.75 C 8.875 km/h
477 27-06-2014 13:00:00 23.825 C 8.62 g/m*3 23.83 C 10.35833 km/h
478 27-06-2014 14:00:00 25.50833 C 9.06 g/m*3 25.51 C 13.95833 km/h
479 27-06-2014 15:00:00 25.63333 C 9.06 g/m*3 25.63 C 10.75833 km/h
480 27-06-2014 16:00:00 26.79167 C 9.03 g/m*3 26.79 C 11.15 km/h
481 27-06-2014 17:00:00 23.91667 C 9.78 g/m*3 23.92 C 11.81667 km/h
482 27-06-2014 18:00:00 22.175 C 10.59 g/m*3 22.18 C 7.65833 km/h
483 27-06-2014 19:00:00 20.675 C 11.97 g/m*3 20.68 C 3.73333 km/h
484 27-06-2014 20:00:00 19.93333 C 12.35 g/m*3 19.93 C 0.4 km/h
485 27-06-2014 21:00:00 18.43333 C 12.32 g/m*3 18.43 C 0.13333 km/h
486 27-06-2014 22:00:00 16.525 C 12.27 g/m*3 16.52 C 0.53333 km/h
487 27-06-2014 23:00:00 15.825 C 11.96 g/m*3 15.83 C 2.69167 km/h
488 28-06-2014 00:00:00 16.36667 C 11.97 g/m*3 16.37 C 3.9 km/h
489 28-06-2014 01:00:00 15.19167 C 11.45 g/m*3 15.19 C 0 km/h
490 28-06-2014 02:00:00 14.325 C 11.16 g/m*3 14.33 C 0.53333 km/h
491 28-06-2014 03:00:00 14.15 C 11.13 g/m*3 14.15 C 0.26667 km/h
492 28-06-2014 04:00:00 13.65 C 10.86 g/m*3 13.65 C 0.13333 km/h
493 28-06-2014 05:00:00 13.15833 C 10.63 g/m*3 13.16 C 0 km/h
494 28-06-2014 06:00:00 13.46667 C 10.79 g/m*3 13.47 C 0.26667 km/h
495 28-06-2014 07:00:00 14.45 C 11.15 g/m*3 14.45 C 1.06667 km/h
496 28-06-2014 08:00:00 16.025 C 11.66 g/m*3 16.02 C 1.86667 km/h
497 28-06-2014 09:00:00 17.55833 C 11.77 g/m*3 17.56 C 4.40833 km/h
498 28-06-2014 10:00:00 19.23333 C 11.83 g/m*3 19.23 C 6.025 km/h
499 28-06-2014 11:00:00 20.88333 C 11.89 g/m*3 20.88 C 8.2 km/h
500 28-06-2014 12:00:00 22.03333 C 11.65 g/m*3 22.03 C 8.875 km/h
Sensor: Nr:Datum:Temp:Abs-Feuchte:Windchill:Wind:
Aussen-T/F 501 28-06-2014 13:00:00 20.275 C 13.19 g/m*3 20.27 C 2.95 km/h
502 28-06-2014 14:00:00 18.69167 C 14.31 g/m*3 18.69 C 0 km/h
503 28-06-2014 15:00:00 18 C 13.9 g/m*3 18 C 0.4 km/h
504 28-06-2014 16:00:00 16.78182 C 13.37 g/m*3 16.78 C 0.14545 km/h
505 28-06-2014 17:00:00 16.55 C 13.29 g/m*3 16.55 C 0.6 km/h
506 28-06-2014 18:00:00 15.9 C 12.81 g/m*3 15.9 C 2.53333 km/h
507 28-06-2014 19:00:00 15.45833 C 12.57 g/m*3 15.46 C 1.73333 km/h
508 28-06-2014 20:00:00 14.91667 C 12.16 g/m*3 14.92 C 0.93333 km/h
509 28-06-2014 21:00:00 14.73333 C 12.11 g/m*3 14.73 C 0 km/h
510 28-06-2014 22:00:00 14.43333 C 11.93 g/m*3 14.43 C 0 km/h
511 28-06-2014 23:00:00 14.3 C 11.92 g/m*3 14.3 C 0 km/h
512 29-06-2014 00:00:00 14.45 C 12.03 g/m*3 14.45 C 0.48 km/h
513 29-06-2014 01:00:00 14.4 C 11.99 g/m*3 14.4 C 0 km/h
514 29-06-2014 04:00:00 14.13333 C 11.84 g/m*3 14.13 C 1.6 km/h
515 29-06-2014 05:00:00 13.80833 C 11.56 g/m*3 13.81 C 4.54167 km/h
516 29-06-2014 06:00:00 13.55833 C 11.36 g/m*3 13.56 C 5.075 km/h
517 29-06-2014 07:00:00 13.275 C 11.07 g/m*3 13.28 C 0.4 km/h
518 29-06-2014 08:00:00 13.26667 C 11.07 g/m*3 13.27 C 0 km/h
519 29-06-2014 09:00:00 13.30833 C 11.21 g/m*3 13.31 C 0.4 km/h
520 29-06-2014 10:00:00 13.65833 C 11.46 g/m*3 13.66 C 0.93333 km/h
521 29-06-2014 11:00:00 13.84167 C 11.57 g/m*3 13.84 C 1.06667 km/h
522 29-06-2014 12:00:00 14.45 C 11.9 g/m*3 14.45 C 0 km/h
523 29-06-2014 13:00:00 16.725 C 12.09 g/m*3 16.73 C 3.74167 km/h
524 29-06-2014 14:00:00 18.7 C 12.41 g/m*3 18.7 C 5.6 km/h
525 29-06-2014 15:00:00 17.65 C 12.8 g/m*3 17.65 C 1.2 km/h
Sensor: Nr:Datum:Temp:Abs-Feuchte:Windchill:Wind:
Aussen-T/F 526 29-06-2014 16:00:00 15.58333 C 12.4 g/m*3 15.58 C 2.26667 km/h
527 29-06-2014 17:00:00 16.23333 C 11.69 g/m*3 16.23 C 9.40833 km/h
528 29-06-2014 18:00:00 15.89167 C 11.78 g/m*3 15.89 C 2.66667 km/h
529 29-06-2014 19:00:00 14.59167 C 11.69 g/m*3 14.59 C 0 km/h
530 29-06-2014 20:00:00 14.21667 C 11.67 g/m*3 14.22 C 0.13333 km/h
531 29-06-2014 21:00:00 13.8 C 11.32 g/m*3 13.8 C 0 km/h
532 30-06-2014 01:00:00 12.3 C 10.86 g/m*3 12.3 C 0 km/h
533 30-06-2014 02:00:00 12.8 C 10.91 g/m*3 12.8 C 0 km/h
534 30-06-2014 03:00:00 12.75 C 10.83 g/m*3 12.75 C 0 km/h
535 30-06-2014 04:00:00 12.53333 C 10.75 g/m*3 12.53 C 0 km/h
536 30-06-2014 05:00:00 11.975 C 10.34 g/m*3 11.98 C 0 km/h
537 30-06-2014 06:00:00 11.95833 C 10.39 g/m*3 11.96 C 0.4 km/h
538 30-06-2014 07:00:00 12.525 C 10.76 g/m*3 12.53 C 1.74167 km/h
539 30-06-2014 08:00:00 14 C 11.25 g/m*3 14 C 1.6 km/h
540 30-06-2014 09:00:00 14.76667 C 11.38 g/m*3 14.77 C 2.54167 km/h
541 30-06-2014 10:00:00 16.6 C 10.7 g/m*3 16.6 C 8.45 km/h
542 30-06-2014 11:00:00 17.19167 C 10.53 g/m*3 17.19 C 8.86667 km/h
543 30-06-2014 12:00:00 17.76667 C 10.6 g/m*3 17.77 C 7.64167 km/h
544 30-06-2014 13:00:00 20.13333 C 9.55 g/m*3 20.13 C 14.1 km/h
545 30-06-2014 14:00:00 20.525 C 8.69 g/m*3 20.53 C 11.96667 km/h
546 30-06-2014 15:00:00 21.2 C 9.14 g/m*3 21.2 C 15.7 km/h
547 30-06-2014 16:00:00 19.96667 C 9.49 g/m*3 19.97 C 15.03333 km/h
548 30-06-2014 17:00:00 19.45833 C 8.64 g/m*3 19.46 C 12.1 km/h
549 30-06-2014 18:00:00 19.725 C 8.53 g/m*3 19.73 C 12.625 km/h
550 30-06-2014 19:00:00 18.65833 C 8.9 g/m*3 18.66 C 11.3 km/h
Sensor: Nr:Datum:Temp:Abs-Feuchte:Windchill:Wind:
Aussen-T/F 551 30-06-2014 20:00:00 17.55833 C 8.96 g/m*3 17.56 C 6.575 km/h
552 30-06-2014 21:00:00 15.35 C 10.04 g/m*3 15.35 C 0.4 km/h
553 30-06-2014 22:00:00 13.38333 C 9.6 g/m*3 13.38 C 0.93333 km/h
554 30-06-2014 23:00:00 12.225 C 9.24 g/m*3 12.23 C 0.13333 km/h
555 01-07-2014 00:00:00 11.15 C 8.96 g/m*3 11.15 C 0.13333 km/h
556 01-07-2014 01:00:00 10.30833 C 8.68 g/m*3 10.31 C 0 km/h
557 01-07-2014 02:00:00 9.825 C 8.55 g/m*3 9.82 C 0.26667 km/h
558 01-07-2014 03:00:00 9.35833 C 8.39 g/m*3 9.36 C 0.13333 km/h
559 01-07-2014 04:00:00 8.95833 C 8.27 g/m*3 8.96 C 0 km/h
560 01-07-2014 05:00:00 8.74167 C 8.23 g/m*3 8.74 C 0 km/h
561 01-07-2014 06:00:00 8.84167 C 8.31 g/m*3 8.84 C 0 km/h
562 01-07-2014 07:00:00 9.84167 C 8.88 g/m*3 9.84 C 0.26667 km/h
563 01-07-2014 08:00:00 12.05 C 9.68 g/m*3 12.05 C 0 km/h
564 01-07-2014 09:00:00 14.43333 C 10.1 g/m*3 14.43 C 1.2 km/h
565 01-07-2014 10:00:00 16.875 C 10.11 g/m*3 16.88 C 3.46667 km/h
566 01-07-2014 11:00:00 18.9 C 10.26 g/m*3 18.9 C 5.21667 km/h
567 01-07-2014 12:00:00 20.2 C 10.05 g/m*3 20.2 C 7.375 km/h
568 01-07-2014 13:00:00 20.95833 C 9.7 g/m*3 20.96 C 6.44167 km/h
569 01-07-2014 14:00:00 21.45833 C 9.19 g/m*3 21.46 C 6.44167 km/h
570 01-07-2014 15:00:00 22.36667 C 8.49 g/m*3 22.37 C 8.325 km/h
571 01-07-2014 16:00:00 21.31667 C 8.38 g/m*3 21.32 C 7.50833 km/h
572 01-07-2014 17:00:00 20.8 C 8.31 g/m*3 20.8 C 7.11667 km/h
573 01-07-2014 18:00:00 20.75833 C 8.49 g/m*3 20.76 C 6.16667 km/h
574 01-07-2014 19:00:00 21.55833 C 8.4 g/m*3 21.56 C 8.475 km/h
575 01-07-2014 20:00:00 20.54167 C 8.16 g/m*3 20.54 C 6.425 km/h
Sensor: Nr:Datum:Temp:Abs-Feuchte:Windchill:Wind:
Aussen-T/F 576 01-07-2014 21:00:00 18.025 C 8.9 g/m*3 18.02 C 2.26667 km/h
577 01-07-2014 22:00:00 14.73333 C 9.21 g/m*3 14.73 C 1.6 km/h
578 01-07-2014 23:00:00 13.60833 C 8.98 g/m*3 13.61 C 0.26667 km/h
579 02-07-2014 00:00:00 12.49167 C 8.75 g/m*3 12.49 C 0.13333 km/h
580 02-07-2014 01:00:00 11.05 C 8.42 g/m*3 11.05 C 0 km/h
581 02-07-2014 02:00:00 10.30833 C 8.24 g/m*3 10.31 C 0 km/h
582 02-07-2014 03:00:00 9.59167 C 8.13 g/m*3 9.59 C 0 km/h
583 02-07-2014 04:00:00 9.075 C 8.07 g/m*3 9.07 C 0 km/h
584 02-07-2014 05:00:00 8.675 C 7.99 g/m*3 8.68 C 0 km/h
585 02-07-2014 06:00:00 8.68333 C 8.09 g/m*3 8.68 C 0 km/h
586 02-07-2014 07:00:00 9.45 C 8.5 g/m*3 9.45 C 0.13333 km/h
587 02-07-2014 08:00:00 12.26667 C 9.52 g/m*3 12.27 C 0.4 km/h
588 02-07-2014 09:00:00 14.49167 C 9.88 g/m*3 14.49 C 1.06667 km/h
589 02-07-2014 10:00:00 17.625 C 10.06 g/m*3 17.63 C 3.46667 km/h
590 02-07-2014 11:00:00 20.30833 C 9.8 g/m*3 20.31 C 6.575 km/h
591 02-07-2014 12:00:00 21.58333 C 9.55 g/m*3 21.58 C 7.11667 km/h
592 02-07-2014 13:00:00 22.55833 C 9.35 g/m*3 22.56 C 8.74167 km/h
593 02-07-2014 14:00:00 23.24167 C 9.48 g/m*3 23.24 C 9.81667 km/h
594 02-07-2014 15:00:00 23.81667 C 8.92 g/m*3 23.82 C 10.21667 km/h
595 02-07-2014 16:00:00 24.79167 C 8.34 g/m*3 24.79 C 7.925 km/h
596 02-07-2014 17:00:00 25.075 C 8.13 g/m*3 25.08 C 9.01667 km/h
597 02-07-2014 18:00:00 24.95833 C 7.75 g/m*3 24.96 C 8.875 km/h
598 02-07-2014 19:00:00 23.875 C 7.71 g/m*3 23.88 C 8.73333 km/h
599 02-07-2014 20:00:00 22.43333 C 8.06 g/m*3 22.43 C 5.08333 km/h
600 02-07-2014 21:00:00 17.93333 C 9.43 g/m*3 17.93 C 1.33333 km/h
Sensor: Nr:Datum:Temp:Abs-Feuchte:Windchill:Wind:
Aussen-T/F 601 02-07-2014 22:00:00 15.70833 C 9.47 g/m*3 15.71 C 0.66667 km/h
602 02-07-2014 23:00:00 14.68333 C 9.49 g/m*3 14.68 C 0 km/h
603 03-07-2014 00:00:00 13.44167 C 9.19 g/m*3 13.44 C 0 km/h
604 03-07-2014 01:00:00 12.61667 C 8.93 g/m*3 12.62 C 0 km/h
605 03-07-2014 02:00:00 11.75833 C 8.8 g/m*3 11.76 C 0.13333 km/h
606 03-07-2014 03:00:00 11.18333 C 8.72 g/m*3 11.18 C 0 km/h
607 03-07-2014 04:00:00 10.44167 C 8.54 g/m*3 10.44 C 0 km/h
608 03-07-2014 05:00:00 9.86667 C 8.46 g/m*3 9.87 C 0 km/h
609 03-07-2014 06:00:00 9.85 C 8.56 g/m*3 9.85 C 0.13333 km/h
610 03-07-2014 07:00:00 10.49167 C 8.92 g/m*3 10.49 C 0 km/h
611 03-07-2014 08:00:00 13.18333 C 9.67 g/m*3 13.18 C 0 km/h
612 03-07-2014 09:00:00 14.98333 C 10.38 g/m*3 14.98 C 0 km/h
613 03-07-2014 10:00:00 17.64167 C 11.65 g/m*3 17.64 C 0.93333 km/h
614 03-07-2014 11:00:00 21.6 C 11.28 g/m*3 21.6 C 4.00833 km/h
615 03-07-2014 12:00:00 25.525 C 8.87 g/m*3 25.53 C 10.625 km/h
616 03-07-2014 13:00:00 27.04167 C 8.83 g/m*3 27.04 C 10.9 km/h
617 03-07-2014 14:00:00 28.125 C 8.88 g/m*3 28.13 C 11.825 km/h
618 03-07-2014 15:00:00 29.16667 C 8.19 g/m*3 29.17 C 12.49167 km/h
619 03-07-2014 16:00:00 29.96667 C 7.82 g/m*3 29.97 C 12.09167 km/h
620 03-07-2014 17:00:00 30.475 C 7.93 g/m*3 30.48 C 10.21667 km/h
621 03-07-2014 18:00:00 30.68333 C 7.08 g/m*3 30.68 C 11.96667 km/h
622 03-07-2014 19:00:00 29.55833 C 7.35 g/m*3 29.56 C 10.89167 km/h
623 03-07-2014 20:00:00 26.875 C 8.73 g/m*3 26.88 C 4.29167 km/h
624 03-07-2014 21:00:00 22.16667 C 9.91 g/m*3 22.17 C 2.26667 km/h
625 03-07-2014 22:00:00 19.95833 C 9.88 g/m*3 19.96 C 1.46667 km/h
Sensor: Nr:Datum:Temp:Abs-Feuchte:Windchill:Wind:
Aussen-T/F 626 03-07-2014 23:00:00 18.33333 C 9.96 g/m*3 18.33 C 1.06667 km/h
627 04-07-2014 00:00:00 16.86667 C 9.82 g/m*3 16.87 C 0 km/h
628 04-07-2014 01:00:00 15.7 C 9.74 g/m*3 15.7 C 0 km/h
629 04-07-2014 02:00:00 14.58333 C 9.59 g/m*3 14.58 C 0 km/h
630 04-07-2014 03:00:00 13.775 C 9.59 g/m*3 13.78 C 0 km/h
631 04-07-2014 04:00:00 13.25 C 9.57 g/m*3 13.25 C 0.4 km/h
632 04-07-2014 05:00:00 12.575 C 9.5 g/m*3 12.58 C 0.13333 km/h
633 04-07-2014 06:00:00 12.30833 C 9.59 g/m*3 12.31 C 0 km/h
634 04-07-2014 07:00:00 13 C 10.04 g/m*3 13 C 0 km/h
635 04-07-2014 08:00:00 15.95833 C 10.92 g/m*3 15.96 C 0 km/h
636 04-07-2014 09:00:00 17.91667 C 11.58 g/m*3 17.92 C 0 km/h
637 04-07-2014 10:00:00 20.55 C 13.03 g/m*3 20.55 C 0.66667 km/h
638 04-07-2014 11:00:00 23.8 C 13.89 g/m*3 23.8 C 3.06667 km/h
639 04-07-2014 12:00:00 28.85 C 12.39 g/m*3 28.85 C 8.05 km/h
640 04-07-2014 13:00:00 30.25833 C 10.61 g/m*3 30.26 C 8.325 km/h
641 04-07-2014 14:00:00 29.64167 C 10.41 g/m*3 29.64 C 6.43333 km/h
642 04-07-2014 15:00:00 28.525 C 11.68 g/m*3 28.53 C 3.88333 km/h
643 04-07-2014 16:00:00 23.86667 C 13.26 g/m*3 23.87 C 1.86667 km/h
644 04-07-2014 17:00:00 26.775 C 12.81 g/m*3 26.78 C 4.55 km/h
645 04-07-2014 18:00:00 26.975 C 13.3 g/m*3 26.98 C 2.54167 km/h
646 04-07-2014 19:00:00 22.33333 C 14.01 g/m*3 22.33 C 1.33333 km/h
647 04-07-2014 20:00:00 21.84167 C 12.61 g/m*3 21.84 C 1.06667 km/h
648 04-07-2014 21:00:00 20.08333 C 13.14 g/m*3 20.08 C 1.2 km/h
649 04-07-2014 22:00:00 19.51667 C 12.95 g/m*3 19.52 C 2.13333 km/h
650 04-07-2014 23:00:00 19.70833 C 12.8 g/m*3 19.71 C 0.4 km/h
Sensor: Nr:Datum:Temp:Abs-Feuchte:Windchill:Wind:
Aussen-T/F 651 05-07-2014 00:00:00 19.76667 C 12.77 g/m*3 19.77 C 0.53333 km/h
652 05-07-2014 01:00:00 19.58333 C 12.76 g/m*3 19.58 C 0.8 km/h
653 05-07-2014 02:00:00 18.84167 C 12.61 g/m*3 18.84 C 0.4 km/h
654 05-07-2014 03:00:00 18.675 C 12.51 g/m*3 18.68 C 2.26667 km/h
655 05-07-2014 04:00:00 18.44167 C 12.27 g/m*3 18.44 C 0.8 km/h
656 05-07-2014 05:00:00 18.21667 C 12.25 g/m*3 18.22 C 1.46667 km/h
657 05-07-2014 06:00:00 18.03333 C 12.35 g/m*3 18.03 C 0.53333 km/h
658 05-07-2014 07:00:00 18.56667 C 12.84 g/m*3 18.57 C 1.86667 km/h
659 05-07-2014 08:00:00 20.28333 C 13.46 g/m*3 20.28 C 7.78333 km/h
660 05-07-2014 09:00:00 20.68333 C 13.89 g/m*3 20.68 C 7.10833 km/h
661 05-07-2014 10:00:00 22.49167 C 13.78 g/m*3 22.49 C 13.7 km/h
662 05-07-2014 11:00:00 22.825 C 12.82 g/m*3 22.83 C 13.7 km/h
663 05-07-2014 12:00:00 21.25833 C 13.85 g/m*3 21.26 C 6.04167 km/h
664 05-07-2014 13:00:00 20.57273 C 14.62 g/m*3 20.57 C 3.05455 km/h
665 05-07-2014 14:00:00 20.57 C 15.06 g/m*3 20.57 C 8.07 km/h
666 05-07-2014 15:00:00 21.23333 C 14.76 g/m*3 21.23 C 8.6 km/h
667 05-07-2014 16:00:00 21.825 C 14.55 g/m*3 21.83 C 13.3 km/h
668 05-07-2014 17:00:00 22.45 C 14.52 g/m*3 22.45 C 13.15833 km/h
669 05-07-2014 18:00:00 22.26667 C 14.49 g/m*3 22.27 C 12.9 km/h
670 05-07-2014 19:00:00 21.43333 C 14.57 g/m*3 21.43 C 8.86667 km/h
671 05-07-2014 20:00:00 21.075 C 14.63 g/m*3 21.08 C 8.31667 km/h
672 05-07-2014 21:00:00 20.55 C 14.47 g/m*3 20.55 C 5.625 km/h
673 05-07-2014 22:00:00 20.25 C 14.37 g/m*3 20.25 C 5.5 km/h
674 05-07-2014 23:00:00 19.75 C 14.48 g/m*3 19.75 C 0.93333 km/h
675 06-07-2014 00:00:00 18.96667 C 14.34 g/m*3 18.97 C 0 km/h
Sensor: Nr:Datum:Temp:Abs-Feuchte:Windchill:Wind:
Aussen-T/F 676 06-07-2014 01:00:00 18.24167 C 14.11 g/m*3 18.24 C 0 km/h
677 06-07-2014 02:00:00 18.1 C 14.14 g/m*3 18.1 C 0 km/h
678 06-07-2014 03:00:00 18.125 C 14.16 g/m*3 18.13 C 0 km/h
679 06-07-2014 04:00:00 18.05 C 14.1 g/m*3 18.05 C 0.13333 km/h
680 06-07-2014 05:00:00 18 C 14.31 g/m*3 18 C 0.13333 km/h
681 06-07-2014 06:00:00 17.93333 C 14.39 g/m*3 17.93 C 0.53333 km/h
682 06-07-2014 07:00:00 19.43333 C 15 g/m*3 19.43 C 2.80833 km/h
683 06-07-2014 08:00:00 21.675 C 15.51 g/m*3 21.68 C 3.33333 km/h
684 06-07-2014 09:00:00 22.96667 C 15.21 g/m*3 22.97 C 4.825 km/h
685 06-07-2014 10:00:00 24.625 C 15.18 g/m*3 24.63 C 8.34167 km/h
686 06-07-2014 11:00:00 26.3 C 14.75 g/m*3 26.3 C 9.95 km/h
687 06-07-2014 12:00:00 27.11667 C 14.14 g/m*3 27.12 C 9.4 km/h
688 06-07-2014 13:00:00 28.09167 C 13.62 g/m*3 28.09 C 11.29167 km/h
689 06-07-2014 14:00:00 28.66667 C 13.4 g/m*3 28.67 C 9.94167 km/h
690 06-07-2014 15:00:00 29.2 C 12.92 g/m*3 29.2 C 10.35833 km/h
691 06-07-2014 16:00:00 30.04167 C 13.85 g/m*3 30.04 C 11.69167 km/h
692 06-07-2014 17:00:00 31.19167 C 13.31 g/m*3 31.19 C 11.95833 km/h
693 06-07-2014 18:00:00 30.70833 C 12.97 g/m*3 30.71 C 9.81667 km/h
694 06-07-2014 19:00:00 29.45 C 13.56 g/m*3 29.45 C 5.89167 km/h
695 06-07-2014 20:00:00 25.05833 C 12.93 g/m*3 25.06 C 13.53333 km/h
696 06-07-2014 21:00:00 19.975 C 13.07 g/m*3 19.98 C 10.85833 km/h
697 06-07-2014 22:00:00 17.76364 C 13.92 g/m*3 17.76 C 0.43636 km/h
698 07-07-2014 01:00:00 17.825 C 14.06 g/m*3 17.83 C 1.8 km/h
699 07-07-2014 02:00:00 17.24286 C 13.38 g/m*3 17.24 C 8.31429 km/h
700 07-07-2014 03:00:00 16.55833 C 12.68 g/m*3 16.56 C 4.81667 km/h
Sensor: Nr:Datum:Temp:Abs-Feuchte:Windchill:Wind:
Aussen-T/F 701 07-07-2014 04:00:00 15.61667 C 12.23 g/m*3 15.62 C 1.33333 km/h
702 07-07-2014 05:00:00 14.58333 C 11.67 g/m*3 14.58 C 0.26667 km/h
703 07-07-2014 06:00:00 14.36667 C 11.66 g/m*3 14.37 C 0.13333 km/h
704 07-07-2014 07:00:00 15.375 C 11.81 g/m*3 15.38 C 0 km/h
705 07-07-2014 08:00:00 15.86667 C 11.76 g/m*3 15.87 C 0.26667 km/h
706 07-07-2014 09:00:00 16.78333 C 10.06 g/m*3 16.78 C 5.35 km/h
707 07-07-2014 10:00:00 18.09167 C 10.08 g/m*3 18.09 C 5.35833 km/h
708 07-07-2014 11:00:00 19.5 C 9.45 g/m*3 19.5 C 5.75833 km/h
709 07-07-2014 12:00:00 21.10833 C 9.51 g/m*3 21.11 C 6.56667 km/h
710 07-07-2014 13:00:00 21.78333 C 9.7 g/m*3 21.78 C 5.475 km/h
711 07-07-2014 14:00:00 22.98333 C 9.57 g/m*3 22.98 C 7.10833 km/h
712 07-07-2014 15:00:00 23.94167 C 9.04 g/m*3 23.94 C 7.51667 km/h
713 07-07-2014 16:00:00 24.24167 C 8.68 g/m*3 24.24 C 9.14167 km/h
714 07-07-2014 17:00:00 25.38333 C 9.17 g/m*3 25.38 C 10.225 km/h
715 07-07-2014 18:00:00 26.05 C 9.34 g/m*3 26.05 C 8.45833 km/h
716 07-07-2014 19:00:00 24.98333 C 9.45 g/m*3 24.98 C 8.05833 km/h
717 07-07-2014 20:00:00 23.23333 C 9.95 g/m*3 23.23 C 6.3 km/h
718 07-07-2014 21:00:00 20.96667 C 10.89 g/m*3 20.97 C 0.4 km/h
719 07-07-2014 22:00:00 19.325 C 11.03 g/m*3 19.33 C 0.26667 km/h
720 07-07-2014 23:00:00 19.28333 C 11.09 g/m*3 19.28 C 1.74167 km/h
721 08-07-2014 00:00:00 18.8 C 11.03 g/m*3 18.8 C 0.66667 km/h
722 08-07-2014 01:00:00 18.25833 C 11.15 g/m*3 18.26 C 1.075 km/h
723 08-07-2014 02:00:00 17.88333 C 11.41 g/m*3 17.88 C 0 km/h
724 08-07-2014 03:00:00 17.1 C 12.06 g/m*3 17.1 C 0.8 km/h
725 08-07-2014 04:00:00 15.13333 C 12.28 g/m*3 15.13 C 4.83333 km/h
Sensor: Nr:Datum:Temp:Abs-Feuchte:Windchill:Wind:
Aussen-T/F 726 08-07-2014 05:00:00 15 C 12.05 g/m*3 15 C 4.26667 km/h
727 08-07-2014 07:00:00 14.81429 C 12.23 g/m*3 14.81 C 2.05714 km/h
728 08-07-2014 08:00:00 15.04167 C 12.26 g/m*3 15.04 C 4.01667 km/h
729 08-07-2014 09:00:00 15.35 C 12.47 g/m*3 15.35 C 3.33333 km/h
730 08-07-2014 10:00:00 15.50833 C 12.49 g/m*3 15.51 C 6.85833 km/h
731 08-07-2014 11:00:00 15.49167 C 12.55 g/m*3 15.49 C 3.475 km/h
732 08-07-2014 12:00:00 15.575 C 12.63 g/m*3 15.58 C 1.6 km/h
733 08-07-2014 13:00:00 15.71667 C 12.72 g/m*3 15.72 C 2.93333 km/h
734 08-07-2014 14:00:00 15.84167 C 12.69 g/m*3 15.84 C 3.6 km/h
735 08-07-2014 15:00:00 15.76667 C 12.52 g/m*3 15.77 C 4.14167 km/h
736 08-07-2014 16:00:00 15.70909 C 12.45 g/m*3 15.71 C 4.37273 km/h
737 08-07-2014 17:00:00 15.76667 C 12.14 g/m*3 15.77 C 14.76667 km/h
738 08-07-2014 18:00:00 15.50833 C 11.84 g/m*3 15.51 C 13.95833 km/h
739 08-07-2014 19:00:00 15.05 C 11.53 g/m*3 15.05 C 13.3 km/h
740 08-07-2014 20:00:00 14.48333 C 11.24 g/m*3 14.48 C 13.56667 km/h
741 08-07-2014 21:00:00 13.63333 C 10.83 g/m*3 13.63 C 10.75 km/h
742 08-07-2014 22:00:00 13.30833 C 10.87 g/m*3 13.31 C 4.95 km/h
743 08-07-2014 23:00:00 13.15833 C 10.86 g/m*3 13.16 C 4.66667 km/h
744 09-07-2014 00:00:00 12.975 C 10.68 g/m*3 12.98 C 7.10833 km/h
745 09-07-2014 01:00:00 12.64167 C 10.42 g/m*3 12.64 C 6.44167 km/h
746 09-07-2014 02:00:00 12.15833 C 10.12 g/m*3 12.16 C 6.18333 km/h
747 09-07-2014 03:00:00 11.74167 C 9.87 g/m*3 11.74 C 3.74167 km/h
748 09-07-2014 04:00:00 11.71667 C 9.95 g/m*3 11.72 C 5.09167 km/h
749 09-07-2014 05:00:00 11.86667 C 10.04 g/m*3 11.87 C 3.33333 km/h
750 09-07-2014 06:00:00 11.94167 C 10.07 g/m*3 11.94 C 6.29167 km/h
Sensor: Nr:Datum:Temp:Abs-Feuchte:Windchill:Wind:
Aussen-T/F 751 09-07-2014 07:00:00 11.825 C 9.96 g/m*3 11.83 C 4.95 km/h
752 09-07-2014 08:00:00 11.83333 C 10.07 g/m*3 11.83 C 4.41667 km/h
753 09-07-2014 09:00:00 12.125 C 10.24 g/m*3 12.13 C 4.94167 km/h
754 09-07-2014 10:00:00 12.33333 C 10.4 g/m*3 12.33 C 2.94167 km/h
755 09-07-2014 11:00:00 12.66667 C 10.66 g/m*3 12.67 C 6.43333 km/h
756 09-07-2014 12:00:00 13.125 C 10.86 g/m*3 13.13 C 7.25833 km/h
757 09-07-2014 13:00:00 13.35833 C 11.01 g/m*3 13.36 C 6.98333 km/h
758 09-07-2014 14:00:00 13.775 C 11.24 g/m*3 13.78 C 7.36667 km/h
759 09-07-2014 15:00:00 13.98333 C 11.42 g/m*3 13.98 C 8.2 km/h
760 09-07-2014 16:00:00 14.00833 C 11.46 g/m*3 14.01 C 8.6 km/h
761 09-07-2014 17:00:00 13.95 C 11.42 g/m*3 13.95 C 6.575 km/h
762 09-07-2014 18:00:00 13.96667 C 11.44 g/m*3 13.97 C 3.475 km/h
763 09-07-2014 19:00:00 13.9 C 11.44 g/m*3 13.9 C 2.93333 km/h
764 09-07-2014 20:00:00 13.975 C 11.56 g/m*3 13.98 C 0.93333 km/h
765 09-07-2014 21:00:00 13.9 C 11.55 g/m*3 13.9 C 0.4 km/h
766 09-07-2014 22:00:00 13.8 C 11.56 g/m*3 13.8 C 0 km/h
767 09-07-2014 23:00:00 13.73333 C 11.51 g/m*3 13.73 C 0 km/h
768 10-07-2014 00:00:00 13.71667 C 11.5 g/m*3 13.72 C 0 km/h
769 10-07-2014 01:00:00 13.7 C 11.59 g/m*3 13.7 C 0 km/h
770 10-07-2014 02:00:00 13.70833 C 11.61 g/m*3 13.71 C 0 km/h
771 10-07-2014 03:00:00 13.8 C 11.68 g/m*3 13.8 C 0 km/h
772 10-07-2014 04:00:00 13.8 C 11.68 g/m*3 13.8 C 0 km/h
773 10-07-2014 05:00:00 13.69167 C 11.6 g/m*3 13.69 C 0.13333 km/h
774 10-07-2014 06:00:00 13.75833 C 11.65 g/m*3 13.76 C 0 km/h
775 10-07-2014 07:00:00 14.24167 C 12 g/m*3 14.24 C 0 km/h
Sensor: Nr:Datum:Temp:Abs-Feuchte:Windchill:Wind:
Aussen-T/F 776 10-07-2014 08:00:00 14.4 C 12.11 g/m*3 14.4 C 0 km/h
777 10-07-2014 11:00:00 17.86667 C 13.18 g/m*3 17.87 C 5.08333 km/h
778 10-07-2014 12:00:00 18.49167 C 13.63 g/m*3 18.49 C 3.88333 km/h
779 10-07-2014 13:00:00 20.06667 C 14.24 g/m*3 20.07 C 6.025 km/h
780 10-07-2014 14:00:00 22.025 C 14.72 g/m*3 22.03 C 5.2125 km/h
781 10-07-2014 15:00:00 23.625 C 15.39 g/m*3 23.63 C 6.83333 km/h
782 10-07-2014 16:00:00 23.575 C 15.61 g/m*3 23.58 C 6.18333 km/h
783 10-07-2014 17:00:00 23.61667 C 16.14 g/m*3 23.62 C 5.9 km/h
784 10-07-2014 18:00:00 21.15 C 16.71 g/m*3 21.15 C 2.95 km/h
785 10-07-2014 19:00:00 21.33636 C 17.86 g/m*3 21.34 C 2.91818 km/h
786 10-07-2014 20:00:00 21.71667 C 16.74 g/m*3 21.72 C 4.01667 km/h
787 10-07-2014 21:00:00 19.7 C 14.5 g/m*3 19.7 C 7.525 km/h
788 10-07-2014 22:00:00 16.68333 C 13.32 g/m*3 16.68 C 3.2 km/h
789 10-07-2014 23:00:00 16.3 C 13.25 g/m*3 16.3 C 3.75 km/h
790 11-07-2014 00:00:00 15.89167 C 12.94 g/m*3 15.89 C 1.06667 km/h
791 11-07-2014 01:00:00 15.23333 C 12.51 g/m*3 15.23 C 0 km/h
792 11-07-2014 02:00:00 14.75 C 12.25 g/m*3 14.75 C 0 km/h
793 11-07-2014 03:00:00 14.35833 C 11.96 g/m*3 14.36 C 0 km/h
794 11-07-2014 04:00:00 14.15833 C 11.81 g/m*3 14.16 C 0 km/h
795 11-07-2014 05:00:00 14.41667 C 12.13 g/m*3 14.42 C 0 km/h
796 11-07-2014 06:00:00 15.28333 C 12.78 g/m*3 15.28 C 0.13333 km/h
797 11-07-2014 07:00:00 15.54167 C 12.99 g/m*3 15.54 C 0.53333 km/h
798 11-07-2014 08:00:00 16.4 C 13.68 g/m*3 16.4 C 0.66667 km/h
799 11-07-2014 09:00:00 16.85 C 14.05 g/m*3 16.85 C 0 km/h
800 11-07-2014 10:00:00 17.28571 C 14.42 g/m*3 17.29 C 3.88571 km/h
Sensor: Nr:Datum:Temp:Abs-Feuchte:Windchill:Wind:
Aussen-T/F 801 11-07-2014 11:00:00 18.6 C 14.64 g/m*3 18.6 C 6.76 km/h
802 11-07-2014 12:00:00 19.40833 C 14.91 g/m*3 19.41 C 5.63333 km/h
803 11-07-2014 13:00:00 20.775 C 15.2 g/m*3 20.78 C 6.84167 km/h
804 11-07-2014 14:00:00 21.68333 C 15.02 g/m*3 21.68 C 7.775 km/h
805 11-07-2014 15:00:00 22.6 C 15.07 g/m*3 22.6 C 7.87778 km/h
806 11-07-2014 16:00:00 24.025 C 15.96 g/m*3 24.03 C 9.3 km/h
807 11-07-2014 18:00:00 23.9 C 15.4 g/m*3 23.9 C 8.06667 km/h
808 11-07-2014 19:00:00 23.70833 C 15.18 g/m*3 23.71 C 9.3 km/h
809 11-07-2014 20:00:00 22.8 C 15.47 g/m*3 22.8 C 8.8625 km/h
810 11-07-2014 21:00:00 21.75833 C 15.12 g/m*3 21.76 C 7.38333 km/h
811 11-07-2014 22:00:00 20.63333 C 14.64 g/m*3 20.63 C 5.49167 km/h
812 11-07-2014 23:00:00 19.55 C 14.27 g/m*3 19.55 C 2.93333 km/h
813 12-07-2014 00:00:00 18.675 C 14.35 g/m*3 18.68 C 0 km/h
814 12-07-2014 01:00:00 18.09167 C 14.23 g/m*3 18.09 C 0 km/h
815 12-07-2014 02:00:00 17.73333 C 14.07 g/m*3 17.73 C 0.4 km/h
816 12-07-2014 03:00:00 18.175 C 13.8 g/m*3 18.18 C 4.01667 km/h
817 12-07-2014 04:00:00 18.16667 C 13.81 g/m*3 18.17 C 4.14167 km/h
818 12-07-2014 05:00:00 18.13333 C 13.71 g/m*3 18.13 C 6.7 km/h
819 12-07-2014 06:00:00 18.03333 C 13.8 g/m*3 18.03 C 5.89167 km/h
820 12-07-2014 07:00:00 17.84167 C 13.85 g/m*3 17.84 C 4.28333 km/h
821 12-07-2014 08:00:00 17.75 C 13.82 g/m*3 17.75 C 5.625 km/h
822 12-07-2014 09:00:00 17.86364 C 13.7 g/m*3 17.86 C 6.13636 km/h
823 12-07-2014 12:00:00 18.4 C 14.47 g/m*3 18.4 C 4.8 km/h
824 12-07-2014 13:00:00 19.09167 C 14.5 g/m*3 19.09 C 7.38333 km/h
825 12-07-2014 14:00:00 19.34167 C 14.34 g/m*3 19.34 C 8.34167 km/h
Sensor: Nr:Datum:Temp:Abs-Feuchte:Windchill:Wind:
Aussen-T/F 826 12-07-2014 15:00:00 20.36667 C 14.42 g/m*3 20.37 C 9.51111 km/h
827 12-07-2014 16:00:00 19.10833 C 14.47 g/m*3 19.11 C 5.61667 km/h
828 12-07-2014 18:00:00 21.82857 C 14.74 g/m*3 21.83 C 7.82857 km/h
829 12-07-2014 19:00:00 21.15 C 14.38 g/m*3 21.15 C 7.78333 km/h
830 12-07-2014 20:00:00 19.93333 C 14.35 g/m*3 19.93 C 5.61667 km/h
831 12-07-2014 21:00:00 19.275 C 13.94 g/m*3 19.27 C 4.80833 km/h
832 12-07-2014 22:00:00 18.375 C 13.87 g/m*3 18.38 C 2.55833 km/h
833 12-07-2014 23:00:00 17.65833 C 13.83 g/m*3 17.66 C 0.26667 km/h
834 13-07-2014 00:00:00 17.2 C 13.69 g/m*3 17.2 C 0 km/h
835 13-07-2014 01:00:00 16.8 C 13.46 g/m*3 16.8 C 0 km/h
836 13-07-2014 02:00:00 16.775 C 13.56 g/m*3 16.77 C 0 km/h
837 13-07-2014 03:00:00 16.8 C 13.58 g/m*3 16.8 C 0 km/h
838 13-07-2014 04:00:00 16.63333 C 13.45 g/m*3 16.63 C 0 km/h
839 13-07-2014 05:00:00 16.55833 C 13.35 g/m*3 16.56 C 0 km/h
840 13-07-2014 06:00:00 16.9 C 13.18 g/m*3 16.9 C 2.54167 km/h
841 13-07-2014 07:00:00 16.4 C 13.12 g/m*3 16.4 C 1.6 km/h
842 13-07-2014 09:00:00 17.525 C 13.81 g/m*3 17.52 C 8.9 km/h
843 13-07-2014 10:00:00 17.70833 C 13.75 g/m*3 17.71 C 8.19167 km/h
844 13-07-2014 11:00:00 18.64167 C 14.17 g/m*3 18.64 C 5.75833 km/h
845 13-07-2014 12:00:00 20.41667 C 14.27 g/m*3 20.42 C 10.76667 km/h
846 13-07-2014 13:00:00 21.10833 C 14.22 g/m*3 21.11 C 11.15 km/h
847 13-07-2014 14:00:00 22.51667 C 14.23 g/m*3 22.52 C 17.43333 km/h
848 13-07-2014 15:00:00 22.43333 C 13.86 g/m*3 22.43 C 9.125 km/h
849 13-07-2014 16:00:00 21.25833 C 14.97 g/m*3 21.26 C 3.48333 km/h
850 13-07-2014 17:00:00 22 C 15.1 g/m*3 22 C 5.01111 km/h
Sensor: Nr:Datum:Temp:Abs-Feuchte:Windchill:Wind:
Aussen-T/F 851 13-07-2014 18:00:00 22.50833 C 14.49 g/m*3 22.51 C 13.96667 km/h
852 13-07-2014 19:00:00 20.63333 C 14.26 g/m*3 20.63 C 11.69167 km/h
853 13-07-2014 20:00:00 19.71667 C 14.07 g/m*3 19.72 C 9.80833 km/h
854 13-07-2014 21:00:00 19.16667 C 14.01 g/m*3 19.17 C 7.5 km/h
855 13-07-2014 22:00:00 18.57273 C 13.75 g/m*3 18.57 C 6.28182 km/h
856 13-07-2014 23:00:00 18.675 C 13.85 g/m*3 18.68 C 6.84167 km/h
857 14-07-2014 00:00:00 18.30833 C 13.77 g/m*3 18.31 C 4.15 km/h
858 14-07-2014 01:00:00 17.4 C 13.63 g/m*3 17.4 C 2.4 km/h
859 14-07-2014 02:00:00 17.625 C 13.78 g/m*3 17.63 C 3.73333 km/h
860 14-07-2014 03:00:00 17.73333 C 13.88 g/m*3 17.73 C 4.55 km/h
861 14-07-2014 04:00:00 17.67143 C 13.56 g/m*3 17.67 C 2.05714 km/h
862 14-07-2014 06:00:00 15 C 11.73 g/m*3 15 C 0 km/h
863 14-07-2014 07:00:00 15.54167 C 12.21 g/m*3 15.54 C 2 km/h
864 14-07-2014 08:00:00 17.5 C 12.32 g/m*3 17.5 C 5.625 km/h
865 14-07-2014 09:00:00 18.41667 C 12.14 g/m*3 18.42 C 9.15 km/h
866 14-07-2014 10:00:00 20.11667 C 12.57 g/m*3 20.12 C 10.75833 km/h
867 14-07-2014 11:00:00 20.73333 C 12.9 g/m*3 20.73 C 6.15833 km/h
868 14-07-2014 12:00:00 22.125 C 12.95 g/m*3 22.13 C 10.1 km/h
869 14-07-2014 13:00:00 22.7 C 13.17 g/m*3 22.7 C 7.78333 km/h
870 14-07-2014 14:00:00 22.18333 C 13.81 g/m*3 22.18 C 6.58333 km/h
871 14-07-2014 15:00:00 21.90833 C 14 g/m*3 21.91 C 10.74167 km/h
872 14-07-2014 16:00:00 20.76667 C 13.87 g/m*3 20.77 C 10.35 km/h
873 14-07-2014 17:00:00 21.45833 C 13.73 g/m*3 21.46 C 9.00833 km/h
874 14-07-2014 18:00:00 21.66667 C 13.8 g/m*3 21.67 C 6.55 km/h
875 14-07-2014 19:00:00 22.35833 C 13.69 g/m*3 22.36 C 5.08333 km/h
Sensor: Nr:Datum:Temp:Abs-Feuchte:Windchill:Wind:
Aussen-T/F 876 14-07-2014 20:00:00 19.80833 C 14.26 g/m*3 19.81 C 0.13333 km/h
877 14-07-2014 21:00:00 18.175 C 13.79 g/m*3 18.18 C 0 km/h
878 14-07-2014 22:00:00 17.3 C 13.41 g/m*3 17.3 C 0.13333 km/h
879 14-07-2014 23:00:00 16.7625 C 13.12 g/m*3 16.76 C 0 km/h
880 15-07-2014 06:00:00 13.77778 C 11.48 g/m*3 13.78 C 0.35556 km/h
881 15-07-2014 07:00:00 14.43333 C 12.02 g/m*3 14.43 C 1.33333 km/h
882 15-07-2014 08:00:00 16.28333 C 12.85 g/m*3 16.28 C 4.275 km/h
883 15-07-2014 09:00:00 18.46667 C 13.51 g/m*3 18.47 C 5.875 km/h
884 15-07-2014 10:00:00 20.975 C 13.37 g/m*3 20.98 C 5.9 km/h
885 15-07-2014 11:00:00 22.04167 C 14.04 g/m*3 22.04 C 4.95 km/h
886 15-07-2014 12:00:00 23.425 C 12.41 g/m*3 23.43 C 7.925 km/h
887 15-07-2014 13:00:00 23.825 C 12.66 g/m*3 23.83 C 6.44167 km/h
888 15-07-2014 14:00:00 24.50833 C 12 g/m*3 24.51 C 8.59167 km/h
889 15-07-2014 15:00:00 25.09167 C 11.95 g/m*3 25.09 C 10.225 km/h
890 15-07-2014 16:00:00 25.275 C 12.1 g/m*3 25.28 C 7.53333 km/h
891 15-07-2014 17:00:00 25.24167 C 12.41 g/m*3 25.24 C 6.16667 km/h
892 15-07-2014 18:00:00 24.625 C 12.55 g/m*3 24.63 C 7.51667 km/h
893 15-07-2014 19:00:00 23.4 C 13.05 g/m*3 23.4 C 4.55 km/h
894 15-07-2014 20:00:00 22.50833 C 13.12 g/m*3 22.51 C 5.63333 km/h
895 15-07-2014 21:00:00 20.7 C 13.86 g/m*3 20.7 C 2.275 km/h
896 15-07-2014 22:00:00 18.71667 C 13.73 g/m*3 18.72 C 0.13333 km/h
897 15-07-2014 23:00:00 18.60833 C 14 g/m*3 18.61 C 0 km/h
898 16-07-2014 00:00:00 18.30833 C 13.99 g/m*3 18.31 C 0 km/h
899 16-07-2014 01:00:00 18.125 C 13.97 g/m*3 18.13 C 0 km/h
900 16-07-2014 02:00:00 17.825 C 13.82 g/m*3 17.83 C 0 km/h
Sensor: Nr:Datum:Temp:Abs-Feuchte:Windchill:Wind:
Aussen-T/F 901 16-07-2014 03:00:00 17.625 C 13.71 g/m*3 17.63 C 0 km/h
902 16-07-2014 04:00:00 17.5 C 13.65 g/m*3 17.5 C 0 km/h
903 16-07-2014 05:00:00 17.41667 C 13.65 g/m*3 17.42 C 0.26667 km/h
904 16-07-2014 06:00:00 17.4 C 13.75 g/m*3 17.4 C 0 km/h
905 16-07-2014 07:00:00 17.6 C 13.95 g/m*3 17.6 C 0 km/h
906 16-07-2014 09:00:00 20.66 C 17.21 g/m*3 20.66 C 0.96 km/h
907 16-07-2014 10:00:00 21.8 C 14.82 g/m*3 21.8 C 2.2 km/h
908 16-07-2014 11:00:00 24.9 C 17.02 g/m*3 24.9 C 4.26667 km/h
909 16-07-2014 12:00:00 24.85 C 14.46 g/m*3 24.85 C 4.55 km/h
910 16-07-2014 13:00:00 25.9 C 13.52 g/m*3 25.9 C 5.34167 km/h
911 16-07-2014 14:00:00 26.475 C 14.25 g/m*3 26.48 C 7.275 km/h
912 16-07-2014 15:00:00 27.4 C 13.68 g/m*3 27.4 C 6.45 km/h
913 16-07-2014 16:00:00 29.04445 C 13.02 g/m*3 29.04 C 5.35556 km/h
914 16-07-2014 17:00:00 29.85 C 12.78 g/m*3 29.85 C 7.8625 km/h
915 16-07-2014 18:00:00 29.38333 C 12.1 g/m*3 29.38 C 5.75833 km/h
916 16-07-2014 19:00:00 27.20833 C 13.86 g/m*3 27.21 C 2.93333 km/h
917 16-07-2014 20:00:00 23.025 C 14.77 g/m*3 23.03 C 0.4 km/h
918 16-07-2014 21:00:00 21.73333 C 14.53 g/m*3 21.73 C 0 km/h
919 16-07-2014 22:00:00 19.44444 C 13.59 g/m*3 19.44 C 0 km/h
920 16-07-2014 23:00:00 18.9 C 13.45 g/m*3 18.9 C 0 km/h
921 17-07-2014 07:00:00 14.84545 C 12.07 g/m*3 14.85 C 0 km/h
922 17-07-2014 08:00:00 17.05833 C 13.1 g/m*3 17.06 C 0 km/h
923 17-07-2014 09:00:00 18.71667 C 13.9 g/m*3 18.72 C 0.26667 km/h
924 17-07-2014 10:00:00 20.45 C 14.64 g/m*3 20.45 C 1.6 km/h
925 17-07-2014 16:00:00 31.44444 C 14.68 g/m*3 31.44 C 5.9 km/h
Sensor: Nr:Datum:Temp:Abs-Feuchte:Windchill:Wind:
Aussen-T/F 926 17-07-2014 17:00:00 31.85833 C 13.49 g/m*3 31.86 C 6.71667 km/h
927 17-07-2014 18:00:00 31.28333 C 14.46 g/m*3 31.28 C 5.35 km/h
928 17-07-2014 19:00:00 27.70833 C 16.77 g/m*3 27.71 C 1.33333 km/h
929 17-07-2014 20:00:00 24.48333 C 15.95 g/m*3 24.48 C 0.8 km/h
930 17-07-2014 21:00:00 22.35 C 15.17 g/m*3 22.35 C 1.33333 km/h
931 17-07-2014 22:00:00 21.31667 C 14.69 g/m*3 21.32 C 0.26667 km/h
932 17-07-2014 23:00:00 20.8 C 14.62 g/m*3 20.8 C 0 km/h
933 18-07-2014 02:00:00 17.3 C 13.15 g/m*3 17.3 C 0 km/h
934 18-07-2014 03:00:00 16.875 C 13 g/m*3 16.88 C 0.13333 km/h
935 18-07-2014 04:00:00 16.6 C 12.86 g/m*3 16.6 C 0 km/h
936 18-07-2014 06:00:00 15.975 C 12.92 g/m*3 15.98 C 0 km/h
937 18-07-2014 07:00:00 16.35833 C 13.13 g/m*3 16.36 C 0 km/h
938 18-07-2014 08:00:00 18.46667 C 14.22 g/m*3 18.47 C 0 km/h
939 18-07-2014 09:00:00 20.21667 C 15.04 g/m*3 20.22 C 0.66667 km/h
940 18-07-2014 10:00:00 21.02 C 15.7 g/m*3 21.02 C 0.96 km/h
941 18-07-2014 13:00:00 30.61667 C 13.38 g/m*3 30.62 C 6.96667 km/h
942 18-07-2014 14:00:00 32.06667 C 13.24 g/m*3 32.07 C 7.24167 km/h
943 18-07-2014 15:00:00 32.3 C 13.03 g/m*3 32.3 C 7.53333 km/h
944 18-07-2014 16:00:00 33.53636 C 13.22 g/m*3 33.54 C 7.76364 km/h
945 18-07-2014 17:00:00 33.875 C 12.67 g/m*3 33.88 C 6.98333 km/h
946 18-07-2014 18:00:00 31.7 C 15.23 g/m*3 31.7 C 3.46667 km/h
947 18-07-2014 19:00:00 28.38333 C 16.18 g/m*3 28.38 C 1.6 km/h
948 18-07-2014 20:00:00 26.65 C 15.4 g/m*3 26.65 C 1.6 km/h
949 18-07-2014 22:00:00 22.58333 C 13.91 g/m*3 22.58 C 1.46667 km/h
950 18-07-2014 23:00:00 22.12222 C 13.01 g/m*3 22.12 C 1.77778 km/h
Sensor: Nr:Datum:Temp:Abs-Feuchte:Windchill:Wind:
Aussen-T/F 951 19-07-2014 07:00:00 16.9 C 12.94 g/m*3 16.9 C 0 km/h
952 19-07-2014 08:00:00 18.89167 C 13.72 g/m*3 18.89 C 0 km/h
953 19-07-2014 09:00:00 20.88 C 14.99 g/m*3 20.88 C 0 km/h
954 19-07-2014 10:00:00 22.875 C 16.02 g/m*3 22.88 C 0 km/h
955 19-07-2014 11:00:00 26.73333 C 16.29 g/m*3 26.73 C 5.225 km/h
956 19-07-2014 12:00:00 30.74167 C 14.07 g/m*3 30.74 C 8.06667 km/h
957 19-07-2014 13:00:00 32.54167 C 12.65 g/m*3 32.54 C 8.06667 km/h
958 19-07-2014 14:00:00 33.23333 C 12.76 g/m*3 33.23 C 10.89167 km/h
959 19-07-2014 15:00:00 34.48333 C 13.56 g/m*3 34.48 C 8.33333 km/h
960 19-07-2014 16:00:00 34.24167 C 13.9 g/m*3 34.24 C 6.85 km/h
961 19-07-2014 17:00:00 31.00833 C 17.26 g/m*3 31.01 C 2.275 km/h
962 19-07-2014 18:00:00 29.91667 C 17.86 g/m*3 29.92 C 1.33333 km/h
963 19-07-2014 19:00:00 28.51667 C 16.86 g/m*3 28.52 C 1.46667 km/h
964 19-07-2014 20:00:00 25.775 C 15.95 g/m*3 25.78 C 1.2 km/h
965 19-07-2014 21:00:00 24.66667 C 15.27 g/m*3 24.67 C 1.33333 km/h
966 19-07-2014 22:00:00 23.85 C 14.78 g/m*3 23.85 C 0.4 km/h
967 19-07-2014 23:00:00 22.85 C 14.67 g/m*3 22.85 C 0 km/h
968 20-07-2014 00:00:00 21.78333 C 14.52 g/m*3 21.78 C 0 km/h
969 20-07-2014 01:00:00 21.15 C 14.31 g/m*3 21.15 C 0.13333 km/h
970 20-07-2014 02:00:00 21 C 14.33 g/m*3 21 C 0.13333 km/h
971 20-07-2014 03:00:00 20.29167 C 14.19 g/m*3 20.29 C 0 km/h
972 20-07-2014 04:00:00 20.2 C 14.19 g/m*3 20.2 C 2.40833 km/h
973 20-07-2014 05:00:00 20.41667 C 14.55 g/m*3 20.42 C 2.26667 km/h
974 20-07-2014 06:00:00 19.19167 C 15 g/m*3 19.19 C 0.66667 km/h
975 20-07-2014 07:00:00 19.04167 C 15.34 g/m*3 19.04 C 1.06667 km/h
Sensor: Nr:Datum:Temp:Abs-Feuchte:Windchill:Wind:
Aussen-T/F 976 20-07-2014 08:00:00 19.80833 C 16.09 g/m*3 19.81 C 1.6 km/h
977 20-07-2014 09:00:00 20.96667 C 17.09 g/m*3 20.97 C 0.26667 km/h
978 20-07-2014 10:00:00 22.35 C 17.72 g/m*3 22.35 C 0.13333 km/h
979 20-07-2014 11:00:00 23.54167 C 18.16 g/m*3 23.54 C 1.06667 km/h
980 20-07-2014 12:00:00 25.7 C 17.42 g/m*3 25.7 C 4.15 km/h
981 20-07-2014 13:00:00 27.93333 C 18.04 g/m*3 27.93 C 2.8 km/h
982 20-07-2014 14:00:00 28.7 C 16.22 g/m*3 28.7 C 5.35 km/h
983 20-07-2014 15:00:00 26.15833 C 17.46 g/m*3 26.16 C 1.06667 km/h
984 20-07-2014 16:00:00 24.54167 C 17.2 g/m*3 24.54 C 2.40833 km/h
985 20-07-2014 17:00:00 24.30833 C 17.91 g/m*3 24.31 C 0.8 km/h
986 20-07-2014 18:00:00 25.15833 C 18.04 g/m*3 25.16 C 0.53333 km/h
987 20-07-2014 19:00:00 23.89167 C 17.15 g/m*3 23.89 C 2.00833 km/h
988 20-07-2014 20:00:00 24.05 C 15.58 g/m*3 24.05 C 8.59167 km/h
989 20-07-2014 21:00:00 22.76667 C 16.09 g/m*3 22.77 C 0.8 km/h
990 20-07-2014 22:00:00 20.91667 C 16.3 g/m*3 20.92 C 0 km/h
991 20-07-2014 23:00:00 20.625 C 16.24 g/m*3 20.63 C 0.13333 km/h
992 21-07-2014 00:00:00 20.58333 C 16.06 g/m*3 20.58 C 0 km/h
993 21-07-2014 01:00:00 20.40833 C 15.74 g/m*3 20.41 C 0 km/h
994 21-07-2014 02:00:00 20.3 C 15.77 g/m*3 20.3 C 0 km/h
995 21-07-2014 03:00:00 20.11667 C 15.69 g/m*3 20.12 C 0 km/h
996 21-07-2014 04:00:00 19.78333 C 15.57 g/m*3 19.78 C 0 km/h
997 21-07-2014 05:00:00 19.56667 C 15.5 g/m*3 19.57 C 0 km/h
998 21-07-2014 06:00:00 19.59167 C 15.51 g/m*3 19.59 C 0 km/h
999 21-07-2014 07:00:00 19.73333 C 15.6 g/m*3 19.73 C 3.21667 km/h
1000 21-07-2014 08:00:00 19.13333 C 15.69 g/m*3 19.13 C 0.4 km/h
Sensor: Nr:Datum:Temp:Abs-Feuchte:Windchill:Wind:
Aussen-T/F 1001 21-07-2014 09:00:00 19.23333 C 15.98 g/m*3 19.23 C 0.13333 km/h
1002 21-07-2014 10:00:00 19.73333 C 16.45 g/m*3 19.73 C 1.06667 km/h
1003 21-07-2014 11:00:00 19.975 C 16.52 g/m*3 19.98 C 1.2 km/h
1004 21-07-2014 12:00:00 19.64167 C 16.18 g/m*3 19.64 C 9.25 km/h
1005 21-07-2014 13:00:00 20.34167 C 16.88 g/m*3 20.34 C 4.28333 km/h
1006 21-07-2014 14:00:00 21.04167 C 16.73 g/m*3 21.04 C 8.475 km/h
1007 21-07-2014 15:00:00 21.84167 C 16.92 g/m*3 21.84 C 6.85 km/h
1008 21-07-2014 16:00:00 22.05833 C 16.47 g/m*3 22.06 C 9.55833 km/h
1009 21-07-2014 17:00:00 22.35 C 16.37 g/m*3 22.35 C 14.76667 km/h
1010 21-07-2014 18:00:00 21.14167 C 15.53 g/m*3 21.14 C 11.40833 km/h
1011 21-07-2014 19:00:00 20.83333 C 15.6 g/m*3 20.83 C 9.28333 km/h
1012 21-07-2014 20:00:00 20.61667 C 15.75 g/m*3 20.62 C 5.625 km/h
1013 21-07-2014 21:00:00 20.11667 C 15.85 g/m*3 20.12 C 3.74167 km/h
1014 21-07-2014 22:00:00 19.6 C 15.83 g/m*3 19.6 C 0 km/h
1015 21-07-2014 23:00:00 19.45 C 15.9 g/m*3 19.45 C 0 km/h
1016 22-07-2014 00:00:00 19.63333 C 16.11 g/m*3 19.63 C 0.93333 km/h
1017 22-07-2014 01:00:00 19.825 C 16.22 g/m*3 19.83 C 3.46667 km/h
1018 22-07-2014 02:00:00 20.00833 C 16.25 g/m*3 20.01 C 3.33333 km/h
1019 22-07-2014 03:00:00 19.94167 C 16.19 g/m*3 19.94 C 2.675 km/h
1020 22-07-2014 04:00:00 19.87 C 16.12 g/m*3 19.87 C 1.12 km/h
1021 22-07-2014 08:00:00 20.38 C 16.89 g/m*3 20.38 C 2.56 km/h
1022 22-07-2014 09:00:00 21.20833 C 17.2 g/m*3 21.21 C 5.35 km/h
1023 22-07-2014 10:00:00 22.11667 C 17.45 g/m*3 22.12 C 6.83333 km/h
1024 22-07-2014 11:00:00 22.95 C 17.56 g/m*3 22.95 C 7.11667 km/h
1025 22-07-2014 12:00:00 24.80833 C 18.39 g/m*3 24.81 C 6.425 km/h
Sensor: Nr:Datum:Temp:Abs-Feuchte:Windchill:Wind:
Aussen-T/F 1026 22-07-2014 13:00:00 26.375 C 18.69 g/m*3 26.38 C 7.125 km/h
1027 22-07-2014 14:00:00 25.68333 C 18.2 g/m*3 25.68 C 7.51667 km/h
1028 22-07-2014 15:00:00 27.69167 C 18.74 g/m*3 27.69 C 10.63333 km/h
1029 22-07-2014 16:00:00 29.13333 C 18.06 g/m*3 29.13 C 10.75833 km/h
1030 22-07-2014 17:00:00 28.90833 C 17.79 g/m*3 28.91 C 13.16667 km/h
1031 22-07-2014 18:00:00 28.95833 C 17.67 g/m*3 28.96 C 11.7 km/h
1032 22-07-2014 19:00:00 27.325 C 17.82 g/m*3 27.33 C 7.11667 km/h
1033 22-07-2014 20:00:00 25.06667 C 18.77 g/m*3 25.07 C 1.86667 km/h
1034 22-07-2014 21:00:00 22.55833 C 17.1 g/m*3 22.56 C 0.4 km/h
1035 22-07-2014 22:00:00 21.66667 C 16.47 g/m*3 21.67 C 0.8 km/h
1036 22-07-2014 23:00:00 20.725 C 15.86 g/m*3 20.73 C 0.4 km/h
1037 23-07-2014 00:00:00 20.125 C 15.61 g/m*3 20.13 C 0.13333 km/h
1038 23-07-2014 01:00:00 19.66667 C 15.35 g/m*3 19.67 C 0 km/h
1039 23-07-2014 02:00:00 18.96667 C 14.95 g/m*3 18.97 C 0 km/h
1040 23-07-2014 03:00:00 18.3 C 14.68 g/m*3 18.3 C 0 km/h
1041 23-07-2014 04:00:00 17.94167 C 14.53 g/m*3 17.94 C 0 km/h
1042 23-07-2014 05:00:00 17.56667 C 14.27 g/m*3 17.57 C 0 km/h
1043 23-07-2014 06:00:00 17.35 C 14.2 g/m*3 17.35 C 0 km/h
1044 23-07-2014 07:00:00 17.875 C 14.71 g/m*3 17.88 C 0 km/h
1045 23-07-2014 08:00:00 19.68333 C 15.79 g/m*3 19.68 C 0 km/h
1046 23-07-2014 09:00:00 21.14167 C 16.22 g/m*3 21.14 C 0 km/h
1047 23-07-2014 10:00:00 23 C 16.56 g/m*3 23 C 0.17778 km/h
1048 23-07-2014 11:00:00 25.1 C 17.13 g/m*3 25.1 C 0 km/h
1049 23-07-2014 12:00:00 26.30833 C 16.59 g/m*3 26.31 C 3.33333 km/h
1050 23-07-2014 13:00:00 28.81667 C 14.12 g/m*3 28.82 C 8.30833 km/h
Sensor: Nr:Datum:Temp:Abs-Feuchte:Windchill:Wind:
Aussen-T/F 1051 23-07-2014 14:00:00 29.53333 C 13.18 g/m*3 29.53 C 9.14167 km/h
1052 23-07-2014 15:00:00 29.15 C 14.12 g/m*3 29.15 C 7.25833 km/h
1053 23-07-2014 16:00:00 29.275 C 13.8 g/m*3 29.28 C 7.4 km/h
1054 23-07-2014 17:00:00 30.775 C 13.1 g/m*3 30.78 C 8.475 km/h
1055 23-07-2014 18:00:00 30.01667 C 12.62 g/m*3 30.02 C 11.7 km/h
1056 23-07-2014 19:00:00 28.29167 C 13.45 g/m*3 28.29 C 6.56667 km/h
1057 23-07-2014 20:00:00 24.9 C 15.78 g/m*3 24.9 C 1.2 km/h
1058 23-07-2014 21:00:00 22.125 C 14.56 g/m*3 22.13 C 0.53333 km/h
1059 23-07-2014 22:00:00 20.70833 C 14 g/m*3 20.71 C 0.66667 km/h
1060 23-07-2014 23:00:00 20 C 13.91 g/m*3 20 C 0.53333 km/h
1061 24-07-2014 00:00:00 19.34167 C 13.81 g/m*3 19.34 C 0.13333 km/h
1062 24-07-2014 01:00:00 18.775 C 13.64 g/m*3 18.77 C 0 km/h
1063 24-07-2014 02:00:00 18.13333 C 13.3 g/m*3 18.13 C 0 km/h
1064 24-07-2014 03:00:00 17.375 C 12.99 g/m*3 17.38 C 0 km/h
1065 24-07-2014 04:00:00 16.71667 C 12.74 g/m*3 16.72 C 0 km/h
1066 24-07-2014 05:00:00 16.075 C 12.5 g/m*3 16.08 C 0 km/h
1067 24-07-2014 06:00:00 16.1 C 12.61 g/m*3 16.1 C 0 km/h
1068 24-07-2014 07:00:00 16.85455 C 13.2 g/m*3 16.85 C 0 km/h
1069 24-07-2014 08:00:00 17.3 C 13.26 g/m*3 17.3 C 0 km/h
1070 24-07-2014 10:00:00 22.84286 C 13.56 g/m*3 22.84 C 2.51429 km/h
1071 24-07-2014 11:00:00 24.90833 C 12.98 g/m*3 24.91 C 5.9 km/h
1072 24-07-2014 12:00:00 26.14167 C 12.8 g/m*3 26.14 C 8.86667 km/h
1073 24-07-2014 13:00:00 27.40833 C 12.64 g/m*3 27.41 C 9.95 km/h
1074 24-07-2014 14:00:00 28.15833 C 12.34 g/m*3 28.16 C 9.675 km/h
1075 24-07-2014 15:00:00 25.025 C 12.14 g/m*3 25.03 C 10.875 km/h
Sensor: Nr:Datum:Temp:Abs-Feuchte:Windchill:Wind:
Aussen-T/F 1076 24-07-2014 16:00:00 21.59167 C 12.8 g/m*3 21.59 C 5.08333 km/h
1077 24-07-2014 17:00:00 21.36667 C 14.16 g/m*3 21.37 C 0.53333 km/h
1078 24-07-2014 18:00:00 21.3 C 14.15 g/m*3 21.3 C 3.34167 km/h
1079 24-07-2014 19:00:00 21.99167 C 12.53 g/m*3 21.99 C 5.08333 km/h
1080 24-07-2014 20:00:00 21.34167 C 11.88 g/m*3 21.34 C 8.05 km/h
1081 24-07-2014 21:00:00 18.80833 C 12.07 g/m*3 18.81 C 1.33333 km/h
1082 24-07-2014 22:00:00 16.61667 C 11.9 g/m*3 16.62 C 0 km/h
1083 24-07-2014 23:00:00 16.45833 C 12.15 g/m*3 16.46 C 0 km/h
1084 25-07-2014 00:00:00 16.3625 C 12.86 g/m*3 16.36 C 0 km/h
1085 25-07-2014 08:00:00 16.8 C 13.35 g/m*3 16.8 C 0 km/h
1086 25-07-2014 09:00:00 17.28333 C 13.71 g/m*3 17.28 C 0 km/h
1087 25-07-2014 10:00:00 19.53333 C 14.17 g/m*3 19.53 C 1.46667 km/h
1088 25-07-2014 11:00:00 22.43333 C 14.51 g/m*3 22.43 C 3.88333 km/h
1089 25-07-2014 12:00:00 23.625 C 13.99 g/m*3 23.63 C 5.63333 km/h
1090 25-07-2014 13:00:00 25.05833 C 13.91 g/m*3 25.06 C 7.525 km/h
1091 25-07-2014 14:00:00 26.25833 C 13.21 g/m*3 26.26 C 8.61667 km/h
1092 25-07-2014 15:00:00 23.7 C 14.76 g/m*3 23.7 C 1.46667 km/h
1093 25-07-2014 16:00:00 25.11667 C 13.63 g/m*3 25.12 C 4.4 km/h
1094 25-07-2014 17:00:00 23.16667 C 14.34 g/m*3 23.17 C 3.21111 km/h
1095 25-07-2014 18:00:00 25.45 C 18.77 g/m*3 25.45 C 5.6 km/h
1096 25-07-2014 19:00:00 24.37778 C 13.11 g/m*3 24.38 C 5.51111 km/h
1097 25-07-2014 20:00:00 22.725 C 13.35 g/m*3 22.73 C 4.40833 km/h
1098 25-07-2014 21:00:00 20.43333 C 13.93 g/m*3 20.43 C 0 km/h
1099 25-07-2014 22:00:00 18.225 C 13.36 g/m*3 18.23 C 0.13333 km/h
1100 25-07-2014 23:00:00 17.36667 C 13.13 g/m*3 17.37 C 0 km/h
Sensor: Nr:Datum:Temp:Abs-Feuchte:Windchill:Wind:
Aussen-T/F 1101 26-07-2014 00:00:00 16.55 C 12.89 g/m*3 16.55 C 0 km/h
1102 26-07-2014 01:00:00 16.26667 C 12.92 g/m*3 16.27 C 0 km/h
1103 26-07-2014 02:00:00 16.3 C 13.04 g/m*3 16.3 C 0 km/h
1104 26-07-2014 08:00:00 16.86667 C 13.46 g/m*3 16.87 C 1.77778 km/h
1105 26-07-2014 09:00:00 17.43333 C 13.71 g/m*3 17.43 C 2.8 km/h
1106 26-07-2014 10:00:00 18.1 C 13.96 g/m*3 18.1 C 2.8 km/h
1107 26-07-2014 11:00:00 19.3625 C 14.53 g/m*3 19.36 C 2.8 km/h
1108 26-07-2014 14:00:00 25.67 C 15.51 g/m*3 25.67 C 7.09 km/h
1109 26-07-2014 15:00:00 26.58333 C 14.08 g/m*3 26.58 C 6.45 km/h
1110 26-07-2014 16:00:00 27.525 C 13.49 g/m*3 27.53 C 7.11667 km/h
1111 26-07-2014 17:00:00 27.50833 C 13.61 g/m*3 27.51 C 7.25 km/h
1112 26-07-2014 18:00:00 27 C 14.07 g/m*3 27 C 6.23333 km/h
1113 26-07-2014 19:00:00 26.175 C 13.75 g/m*3 26.18 C 7.94167 km/h
1114 26-07-2014 20:00:00 24.96667 C 14.78 g/m*3 24.97 C 1.06667 km/h
1115 26-07-2014 21:00:00 20.36667 C 14.54 g/m*3 20.37 C 0 km/h
1116 26-07-2014 22:00:00 20.01667 C 14.44 g/m*3 20.02 C 0.13333 km/h
1117 26-07-2014 23:00:00 19.58333 C 14.17 g/m*3 19.58 C 0 km/h
1118 27-07-2014 01:00:00 17.95 C 13.48 g/m*3 17.95 C 0 km/h
1119 27-07-2014 03:00:00 16.74286 C 13.17 g/m*3 16.74 C 0 km/h
1120 27-07-2014 04:00:00 16.33333 C 13 g/m*3 16.33 C 0 km/h
1121 27-07-2014 05:00:00 15.85 C 12.75 g/m*3 15.85 C 0 km/h
1122 27-07-2014 06:00:00 15.58333 C 12.64 g/m*3 15.58 C 0 km/h
1123 27-07-2014 07:00:00 16.03333 C 13.03 g/m*3 16.03 C 0.53333 km/h
1124 27-07-2014 08:00:00 17.825 C 13.76 g/m*3 17.83 C 1.6 km/h
1125 27-07-2014 09:00:00 19.02857 C 14.29 g/m*3 19.03 C 4.81429 km/h
Sensor: Nr:Datum:Temp:Abs-Feuchte:Windchill:Wind:
Aussen-T/F 1126 27-07-2014 10:00:00 21.1 C 16.03 g/m*3 21.1 C 3.2 km/h
1127 27-07-2014 11:00:00 23.56 C 15.87 g/m*3 23.56 C 7.4 km/h
1128 27-07-2014 12:00:00 24.23333 C 15.74 g/m*3 24.23 C 4.81667 km/h
1129 27-07-2014 13:00:00 25 C 15.19 g/m*3 25 C 2.66667 km/h
1130 27-07-2014 14:00:00 26.5375 C 15.62 g/m*3 26.54 C 1.6 km/h
1131 27-07-2014 15:00:00 27 C 15.18 g/m*3 27 C 3.76667 km/h
1132 27-07-2014 18:00:00 27.14 C 14.89 g/m*3 27.14 C 8.4 km/h
1133 28-07-2014 07:00:00 17.05556 C 13.94 g/m*3 17.06 C 4.97778 km/h
1134 28-07-2014 08:00:00 17.93333 C 14.56 g/m*3 17.93 C 2.26667 km/h
1135 28-07-2014 09:00:00 19.4 C 15.24 g/m*3 19.4 C 0 km/h
1136 28-07-2014 10:00:00 20.37143 C 15.92 g/m*3 20.37 C 0 km/h
1137 28-07-2014 11:00:00 26.25714 C 15.74 g/m*3 26.26 C 4.81429 km/h
1138 28-07-2014 12:00:00 26.7 C 14.68 g/m*3 26.7 C 6.4 km/h
1139 28-07-2014 13:00:00 28.17273 C 17.55 g/m*3 28.17 C 4.95455 km/h
1140 28-07-2014 14:00:00 26.35 C 16.53 g/m*3 26.35 C 1.6 km/h
1141 28-07-2014 15:00:00 24.13333 C 17.1 g/m*3 24.13 C 2.4 km/h
1142 28-07-2014 16:00:00 24.4 C 16.47 g/m*3 24.4 C 4.8 km/h
1143 28-07-2014 17:00:00 24.3 C 15.53 g/m*3 24.3 C 10.66 km/h
1144 28-07-2014 18:00:00 23.81667 C 15.75 g/m*3 23.82 C 9.25833 km/h
1145 28-07-2014 19:00:00 23 C 15.59 g/m*3 23 C 7.1 km/h
1146 28-07-2014 20:00:00 22.41667 C 15.06 g/m*3 22.42 C 7.65 km/h
1147 28-07-2014 21:00:00 21.45833 C 14.39 g/m*3 21.46 C 4.54167 km/h
1148 28-07-2014 22:00:00 20.75 C 14.49 g/m*3 20.75 C 4.14167 km/h
1149 28-07-2014 23:00:00 19.94167 C 14.68 g/m*3 19.94 C 1.46667 km/h
1150 29-07-2014 00:00:00 19.15833 C 15.3 g/m*3 19.16 C 0.13333 km/h
Sensor: Nr:Datum:Temp:Abs-Feuchte:Windchill:Wind:
Aussen-T/F 1151 29-07-2014 01:00:00 18.48333 C 15.11 g/m*3 18.48 C 0 km/h
1152 29-07-2014 02:00:00 18.68333 C 15.46 g/m*3 18.68 C 0 km/h
1153 29-07-2014 03:00:00 18.675 C 15.51 g/m*3 18.68 C 0 km/h
1154 29-07-2014 04:00:00 18.725 C 15.55 g/m*3 18.73 C 0 km/h
1155 29-07-2014 05:00:00 18.28333 C 15.15 g/m*3 18.28 C 0 km/h
1156 29-07-2014 06:00:00 18.33333 C 15.2 g/m*3 18.33 C 0 km/h
1157 29-07-2014 07:00:00 18.56667 C 15.57 g/m*3 18.57 C 0 km/h
1158 29-07-2014 08:00:00 18.70833 C 15.58 g/m*3 18.71 C 1.6 km/h
1159 29-07-2014 09:00:00 19.05833 C 15.89 g/m*3 19.06 C 0.53333 km/h
1160 29-07-2014 10:00:00 19.5 C 16.32 g/m*3 19.5 C 0 km/h
1161 29-07-2014 11:00:00 19.83333 C 16.64 g/m*3 19.83 C 0 km/h
1162 29-07-2014 12:00:00 20.9 C 17.27 g/m*3 20.9 C 3.46667 km/h
1163 29-07-2014 13:00:00 21.31667 C 17.69 g/m*3 21.32 C 0 km/h
1164 29-07-2014 14:00:00 20.95 C 17.23 g/m*3 20.95 C 2.68333 km/h
1165 29-07-2014 15:00:00 21.5 C 17.51 g/m*3 21.5 C 2.26667 km/h
1166 29-07-2014 16:00:00 20.625 C 17.24 g/m*3 20.63 C 0 km/h
1167 29-07-2014 17:00:00 22.20833 C 18.66 g/m*3 22.21 C 1.73333 km/h
1168 29-07-2014 18:00:00 23.01667 C 18.65 g/m*3 23.02 C 3.06667 km/h
1169 29-07-2014 19:00:00 21.59167 C 17.91 g/m*3 21.59 C 2.675 km/h
1170 29-07-2014 20:00:00 20.6 C 17.21 g/m*3 20.6 C 1.73333 km/h
1171 29-07-2014 21:00:00 20.06667 C 16.68 g/m*3 20.07 C 2 km/h
1172 29-07-2014 22:00:00 19.41667 C 16.17 g/m*3 19.42 C 0 km/h
1173 29-07-2014 23:00:00 18.96667 C 15.78 g/m*3 18.97 C 0.13333 km/h
1174 30-07-2014 00:00:00 18.91667 C 15.88 g/m*3 18.92 C 1.6 km/h
1175 30-07-2014 01:00:00 18.73333 C 15.68 g/m*3 18.73 C 0 km/h
Sensor: Nr:Datum:Temp:Abs-Feuchte:Windchill:Wind:
Aussen-T/F 1176 30-07-2014 02:00:00 18.7 C 15.69 g/m*3 18.7 C 0 km/h
1177 30-07-2014 03:00:00 18.7 C 15.69 g/m*3 18.7 C 0.13333 km/h
1178 30-07-2014 04:00:00 18.7 C 15.69 g/m*3 18.7 C 1.33333 km/h
1179 30-07-2014 05:00:00 18.775 C 15.76 g/m*3 18.77 C 0.8 km/h
1180 30-07-2014 06:00:00 18.8 C 15.78 g/m*3 18.8 C 4.14167 km/h
1181 30-07-2014 07:00:00 18.55833 C 15.35 g/m*3 18.56 C 10.61667 km/h
1182 30-07-2014 08:00:00 18.325 C 14.78 g/m*3 18.33 C 10.75 km/h
1183 30-07-2014 09:00:00 17.925 C 14.36 g/m*3 17.93 C 7.25 km/h
1184 30-07-2014 10:00:00 18.28333 C 14.47 g/m*3 18.28 C 7.1 km/h
1185 30-07-2014 11:00:00 18.96667 C 14.56 g/m*3 18.97 C 9.95 km/h
1186 30-07-2014 12:00:00 19.725 C 14.51 g/m*3 19.73 C 10.08333 km/h
1187 30-07-2014 13:00:00 20.88333 C 14.4 g/m*3 20.88 C 10.89167 km/h
1188 30-07-2014 14:00:00 21.71667 C 13.89 g/m*3 21.72 C 11.96667 km/h
1189 30-07-2014 15:00:00 22.86667 C 13.46 g/m*3 22.87 C 14.63333 km/h
1190 30-07-2014 16:00:00 23.48333 C 13.33 g/m*3 23.48 C 12.76667 km/h
1191 30-07-2014 17:00:00 23.01667 C 13.03 g/m*3 23.02 C 7.375 km/h
1192 30-07-2014 18:00:00 23.74167 C 12.76 g/m*3 23.74 C 6.70833 km/h
1193 30-07-2014 19:00:00 22.98333 C 13 g/m*3 22.98 C 8.85833 km/h
1194 30-07-2014 20:00:00 20.58333 C 14.44 g/m*3 20.58 C 2.53333 km/h
1195 30-07-2014 21:00:00 19.01667 C 14.14 g/m*3 19.02 C 1.73333 km/h
1196 30-07-2014 22:00:00 18.46667 C 14.03 g/m*3 18.47 C 0 km/h
1197 30-07-2014 23:00:00 18.5 C 13.96 g/m*3 18.5 C 0 km/h
1198 31-07-2014 00:00:00 18.4 C 13.88 g/m*3 18.4 C 0 km/h
1199 31-07-2014 01:00:00 18.46667 C 13.37 g/m*3 18.47 C 0 km/h
1200 31-07-2014 02:00:00 17.45 C 12.91 g/m*3 17.45 C 0.675 km/h
Sensor: Nr:Datum:Temp:Abs-Feuchte:Windchill:Wind:
Aussen-T/F 1201 31-07-2014 03:00:00 16.225 C 12.6 g/m*3 16.23 C 0 km/h
1202 31-07-2014 04:00:00 16.125 C 12.74 g/m*3 16.13 C 0 km/h
1203 31-07-2014 05:00:00 16.09167 C 12.64 g/m*3 16.09 C 0 km/h
1204 31-07-2014 06:00:00 16.09167 C 12.74 g/m*3 16.09 C 0 km/h
1205 31-07-2014 07:00:00 16.5 C 12.84 g/m*3 16.5 C 0 km/h
1206 31-07-2014 08:00:00 17.16667 C 12.79 g/m*3 17.17 C 0 km/h
1207 31-07-2014 09:00:00 18.025 C 12.96 g/m*3 18.02 C 0 km/h
1208 31-07-2014 10:00:00 18.93333 C 13.32 g/m*3 18.93 C 0 km/h
1209 31-07-2014 11:00:00 19.90833 C 13.91 g/m*3 19.91 C 0 km/h
1210 31-07-2014 12:00:00 21.5125 C 13.59 g/m*3 21.51 C 4.6125 km/h
1211 31-07-2014 13:00:00 23.74286 C 12.96 g/m*3 23.74 C 7.38571 km/h
1212 31-07-2014 14:00:00 25.25833 C 12.09 g/m*3 25.26 C 8.45833 km/h
1213 31-07-2014 15:00:00 26.3 C 11.88 g/m*3 26.3 C 6.575 km/h
1214 31-07-2014 16:00:00 27.20833 C 11.72 g/m*3 27.21 C 5.625 km/h
1215 31-07-2014 17:00:00 27.74167 C 11.64 g/m*3 27.74 C 5.625 km/h
1216 31-07-2014 18:00:00 26.85 C 14 g/m*3 26.85 C 3.6 km/h
1217 31-07-2014 19:00:00 22.8 C 15.19 g/m*3 22.8 C 0.93333 km/h
1218 31-07-2014 20:00:00 20.11667 C 14.28 g/m*3 20.12 C 0.93333 km/h
1219 31-07-2014 21:00:00 19.4 C 14.04 g/m*3 19.4 C 0.4 km/h
1220 31-07-2014 22:00:00 18.59167 C 13.5 g/m*3 18.59 C 0.13333 km/h
1221 31-07-2014 23:00:00 17.95833 C 13.02 g/m*3 17.96 C 0 km/h
1222 01-08-2014 00:00:00 17.325 C 12.91 g/m*3 17.33 C 0 km/h
1223 01-08-2014 01:00:00 16.59167 C 12.39 g/m*3 16.59 C 0 km/h
1224 01-08-2014 02:00:00 16.00833 C 12.3 g/m*3 16.01 C 0 km/h
1225 01-08-2014 03:00:00 15.6 C 12.22 g/m*3 15.6 C 0 km/h
Sensor: Nr:Datum:Temp:Abs-Feuchte:Windchill:Wind:
Aussen-T/F 1226 01-08-2014 04:00:00 15.13333 C 12.02 g/m*3 15.13 C 0 km/h
1227 01-08-2014 05:00:00 14.74167 C 11.88 g/m*3 14.74 C 0 km/h
1228 01-08-2014 06:00:00 14.54167 C 11.85 g/m*3 14.54 C 0 km/h
1229 01-08-2014 07:00:00 14.95833 C 12.26 g/m*3 14.96 C 0 km/h
1230 01-08-2014 08:00:00 16.23333 C 13.06 g/m*3 16.23 C 0 km/h
1231 01-08-2014 09:00:00 17.65 C 13.68 g/m*3 17.65 C 0 km/h
1232 01-08-2014 10:00:00 18.71667 C 14.52 g/m*3 18.72 C 0 km/h
1233 01-08-2014 11:00:00 21.11667 C 15.54 g/m*3 21.12 C 0 km/h
1234 01-08-2014 12:00:00 21.9 C 16.18 g/m*3 21.9 C 0 km/h
1235 01-08-2014 13:00:00 21.78333 C 16.29 g/m*3 21.78 C 0 km/h
1236 01-08-2014 14:00:00 26.54167 C 15.14 g/m*3 26.54 C 3.625 km/h
1237 01-08-2014 15:00:00 27.39167 C 15.76 g/m*3 27.39 C 4.56667 km/h
1238 01-08-2014 16:00:00 29.06667 C 13.31 g/m*3 29.07 C 6.43333 km/h
1239 01-08-2014 17:00:00 28.61667 C 13.99 g/m*3 28.62 C 3.625 km/h
1240 01-08-2014 18:00:00 25.69167 C 16.55 g/m*3 25.69 C 0 km/h
1241 01-08-2014 19:00:00 22.45 C 15.77 g/m*3 22.45 C 0 km/h
1242 01-08-2014 20:00:00 21.24167 C 15.19 g/m*3 21.24 C 0 km/h
1243 01-08-2014 21:00:00 20.20833 C 14.48 g/m*3 20.21 C 0 km/h
1244 01-08-2014 22:00:00 19.56667 C 14.14 g/m*3 19.57 C 0 km/h
1245 01-08-2014 23:00:00 18.95 C 13.62 g/m*3 18.95 C 0 km/h
1246 02-08-2014 00:00:00 18.54167 C 13.47 g/m*3 18.54 C 0 km/h
1247 02-08-2014 01:00:00 17.9 C 13.32 g/m*3 17.9 C 0 km/h
1248 02-08-2014 02:00:00 17.14167 C 12.83 g/m*3 17.14 C 0 km/h
1249 02-08-2014 03:00:00 16.36667 C 12.49 g/m*3 16.37 C 0 km/h
1250 02-08-2014 04:00:00 15.86667 C 12.36 g/m*3 15.87 C 0 km/h
Sensor: Nr:Datum:Temp:Abs-Feuchte:Windchill:Wind:
Aussen-T/F 1251 02-08-2014 05:00:00 15.51667 C 12.35 g/m*3 15.52 C 0 km/h
1252 02-08-2014 06:00:00 15.25833 C 12.24 g/m*3 15.26 C 0 km/h
1253 02-08-2014 07:00:00 15.33333 C 12.41 g/m*3 15.33 C 0 km/h
1254 02-08-2014 08:00:00 16.05833 C 12.95 g/m*3 16.06 C 0 km/h
1255 02-08-2014 09:00:00 17.175 C 13.4 g/m*3 17.18 C 0 km/h
1256 02-08-2014 10:00:00 18.875 C 14.59 g/m*3 18.88 C 0 km/h
1257 02-08-2014 11:00:00 21.3 C 15.94 g/m*3 21.3 C 0 km/h
1258 02-08-2014 12:00:00 23.825 C 16.17 g/m*3 23.83 C 0 km/h
1259 02-08-2014 13:00:00 24.425 C 16.19 g/m*3 24.43 C 0 km/h
1260 02-08-2014 14:00:00 25.44167 C 16.7 g/m*3 25.44 C 2.80833 km/h
1261 02-08-2014 15:00:00 26.525 C 17 g/m*3 26.53 C 5.08333 km/h
1262 02-08-2014 16:00:00 25.49167 C 16.98 g/m*3 25.49 C 4.69167 km/h
1263 02-08-2014 17:00:00 23.875 C 16.09 g/m*3 23.88 C 5.08333 km/h
1264 02-08-2014 18:00:00 23.93333 C 16.31 g/m*3 23.93 C 2 km/h
1265 02-08-2014 19:00:00 23.39167 C 16.94 g/m*3 23.39 C 2.8 km/h
1266 02-08-2014 20:00:00 20.94167 C 16.42 g/m*3 20.94 C 0.8 km/h
1267 02-08-2014 21:00:00 19.85 C 15.65 g/m*3 19.85 C 0 km/h
1268 02-08-2014 22:00:00 19.675 C 15.43 g/m*3 19.68 C 0 km/h
1269 02-08-2014 23:00:00 19.9 C 15.42 g/m*3 19.9 C 0 km/h
1270 03-08-2014 00:00:00 19.75 C 15.13 g/m*3 19.75 C 0 km/h
1271 03-08-2014 01:00:00 19.49167 C 14.44 g/m*3 19.49 C 0 km/h
1272 03-08-2014 02:00:00 19.00833 C 14.43 g/m*3 19.01 C 0 km/h
1273 03-08-2014 03:00:00 18.95833 C 14.37 g/m*3 18.96 C 0 km/h
1274 03-08-2014 04:00:00 18.95833 C 14.21 g/m*3 18.96 C 1.475 km/h
1275 03-08-2014 05:00:00 19.275 C 14.27 g/m*3 19.27 C 4.275 km/h
Sensor: Nr:Datum:Temp:Abs-Feuchte:Windchill:Wind:
Aussen-T/F 1276 03-08-2014 06:00:00 19.025 C 14.53 g/m*3 19.02 C 1.6 km/h
1277 03-08-2014 07:00:00 18.81667 C 14.56 g/m*3 18.82 C 1.46667 km/h
1278 03-08-2014 08:00:00 19.59167 C 14.92 g/m*3 19.59 C 2.40833 km/h
1279 03-08-2014 09:00:00 20.83333 C 15.21 g/m*3 20.83 C 4.14167 km/h
1280 03-08-2014 10:00:00 21.75833 C 15.22 g/m*3 21.76 C 1.2 km/h
1281 03-08-2014 11:00:00 22.03333 C 15.83 g/m*3 22.03 C 0 km/h
1282 03-08-2014 12:00:00 24.85 C 15.26 g/m*3 24.85 C 3.74167 km/h
1283 03-08-2014 13:00:00 25.4 C 15.05 g/m*3 25.4 C 4.01667 km/h
1284 03-08-2014 14:00:00 24.04167 C 15.54 g/m*3 24.04 C 2.4 km/h
1285 03-08-2014 15:00:00 23.46667 C 15.3 g/m*3 23.47 C 4.13333 km/h
1286 03-08-2014 16:00:00 24.85833 C 15.87 g/m*3 24.86 C 6.975 km/h
1287 03-08-2014 17:00:00 23.43333 C 15.52 g/m*3 23.43 C 3.49167 km/h
1288 03-08-2014 18:00:00 23.73333 C 15.8 g/m*3 23.73 C 3.33333 km/h
1289 03-08-2014 19:00:00 24.31667 C 16.67 g/m*3 24.32 C 2.13333 km/h
1290 03-08-2014 20:00:00 21.45833 C 16.08 g/m*3 21.46 C 0.13333 km/h
1291 03-08-2014 21:00:00 19.80833 C 15.15 g/m*3 19.81 C 0 km/h
1292 03-08-2014 22:00:00 19.95833 C 14.71 g/m*3 19.96 C 1.46667 km/h
1293 03-08-2014 23:00:00 19.73333 C 14.72 g/m*3 19.73 C 0 km/h
1294 04-08-2014 00:00:00 18.93333 C 14.23 g/m*3 18.93 C 1.48333 km/h
1295 04-08-2014 01:00:00 18.65833 C 13.85 g/m*3 18.66 C 3.08333 km/h
1296 04-08-2014 02:00:00 17.60833 C 13.81 g/m*3 17.61 C 0 km/h
1297 04-08-2014 03:00:00 17.15833 C 13.6 g/m*3 17.16 C 0 km/h
1298 04-08-2014 04:00:00 16.54167 C 13.28 g/m*3 16.54 C 0 km/h
1299 04-08-2014 05:00:00 16.70833 C 13.45 g/m*3 16.71 C 0.66667 km/h
1300 04-08-2014 06:00:00 16.875 C 13.5 g/m*3 16.88 C 0 km/h
Sensor: Nr:Datum:Temp:Abs-Feuchte:Windchill:Wind:
Aussen-T/F 1301 04-08-2014 07:00:00 17.19167 C 13.72 g/m*3 17.19 C 1.06667 km/h
1302 04-08-2014 08:00:00 18.04167 C 14.02 g/m*3 18.04 C 0.93333 km/h
1303 04-08-2014 09:00:00 19.675 C 13.88 g/m*3 19.68 C 3.075 km/h
1304 04-08-2014 10:00:00 20.68333 C 14.18 g/m*3 20.68 C 2.80833 km/h
1305 04-08-2014 11:00:00 22.025 C 14.37 g/m*3 22.03 C 6.71667 km/h
1306 04-08-2014 12:00:00 23.21667 C 14.62 g/m*3 23.22 C 6.05 km/h
1307 04-08-2014 13:00:00 22.95833 C 14.64 g/m*3 22.96 C 2.26667 km/h
1308 04-08-2014 14:00:00 21.54167 C 15.41 g/m*3 21.54 C 3.49167 km/h
1309 04-08-2014 15:00:00 22.51667 C 16.04 g/m*3 22.52 C 2.66667 km/h
1310 04-08-2014 16:00:00 23.03333 C 14.72 g/m*3 23.03 C 11.29167 km/h
1311 04-08-2014 17:00:00 18.71667 C 13.05 g/m*3 18.72 C 3.63333 km/h
1312 04-08-2014 18:00:00 17.94167 C 14.08 g/m*3 17.94 C 3.76667 km/h
1313 04-08-2014 19:00:00 18.53333 C 13.95 g/m*3 18.53 C 3.75833 km/h
1314 04-08-2014 20:00:00 17.375 C 13.77 g/m*3 17.38 C 0 km/h
1315 04-08-2014 21:00:00 16.85833 C 13.63 g/m*3 16.86 C 0 km/h
1316 04-08-2014 22:00:00 16.66667 C 13.57 g/m*3 16.67 C 0 km/h
1317 04-08-2014 23:00:00 16.625 C 13.58 g/m*3 16.63 C 0 km/h
1318 05-08-2014 00:00:00 16.16667 C 13.21 g/m*3 16.17 C 0 km/h
1319 05-08-2014 01:00:00 15.86667 C 13.04 g/m*3 15.87 C 0 km/h
1320 05-08-2014 02:00:00 15.58333 C 12.78 g/m*3 15.58 C 0 km/h
1321 05-08-2014 03:00:00 15.55 C 12.78 g/m*3 15.55 C 0 km/h
1322 05-08-2014 04:00:00 15.675 C 12.96 g/m*3 15.68 C 0 km/h
1323 05-08-2014 05:00:00 15.85 C 13.09 g/m*3 15.85 C 0 km/h
1324 05-08-2014 06:00:00 15.575 C 12.75 g/m*3 15.58 C 0 km/h
1325 05-08-2014 07:00:00 15.64167 C 12.79 g/m*3 15.64 C 0 km/h
Sensor: Nr:Datum:Temp:Abs-Feuchte:Windchill:Wind:
Aussen-T/F 1326 05-08-2014 08:00:00 16.64167 C 12.98 g/m*3 16.64 C 0 km/h
1327 05-08-2014 09:00:00 17.74167 C 13.18 g/m*3 17.74 C 0 km/h
1328 05-08-2014 10:00:00 18.90833 C 13.36 g/m*3 18.91 C 0.675 km/h
1329 05-08-2014 11:00:00 20.1 C 13.47 g/m*3 20.1 C 6.975 km/h
1330 05-08-2014 12:00:00 21.41667 C 13.34 g/m*3 21.42 C 5.61667 km/h
1331 05-08-2014 13:00:00 22.40833 C 12.62 g/m*3 22.41 C 5.61667 km/h
1332 05-08-2014 14:00:00 22.05833 C 12.87 g/m*3 22.06 C 2.275 km/h
1333 05-08-2014 15:00:00 21.85 C 13.44 g/m*3 21.85 C 2.54167 km/h
1334 05-08-2014 16:00:00 22.76667 C 13.05 g/m*3 22.77 C 6.56667 km/h
1335 05-08-2014 17:00:00 24.09167 C 12.81 g/m*3 24.09 C 3.46667 km/h
1336 05-08-2014 18:00:00 24.4 C 11.68 g/m*3 24.4 C 6.70833 km/h
1337 05-08-2014 19:00:00 21.24167 C 13.56 g/m*3 21.24 C 0.53333 km/h
1338 05-08-2014 20:00:00 19.89167 C 13.81 g/m*3 19.89 C 1.46667 km/h
1339 05-08-2014 21:00:00 18.05833 C 13 g/m*3 18.06 C 0.53333 km/h
1340 05-08-2014 22:00:00 16.925 C 12.52 g/m*3 16.93 C 0 km/h
1341 05-08-2014 23:00:00 16.08333 C 12.08 g/m*3 16.08 C 0 km/h
1342 06-08-2014 00:00:00 15.15833 C 11.77 g/m*3 15.16 C 0 km/h
1343 06-08-2014 01:00:00 14.43333 C 11.45 g/m*3 14.43 C 0 km/h
1344 06-08-2014 02:00:00 13.89167 C 11.18 g/m*3 13.89 C 0 km/h
1345 06-08-2014 03:00:00 13.53333 C 11.07 g/m*3 13.53 C 0 km/h
1346 06-08-2014 04:00:00 13.13333 C 10.86 g/m*3 13.13 C 0 km/h
1347 06-08-2014 05:00:00 12.8 C 10.74 g/m*3 12.8 C 0.4 km/h
1348 06-08-2014 06:00:00 12.75833 C 10.74 g/m*3 12.76 C 0.13333 km/h
1349 06-08-2014 07:00:00 13.00833 C 10.98 g/m*3 13.01 C 0.53333 km/h
1350 06-08-2014 08:00:00 13.45833 C 11.32 g/m*3 13.46 C 1.33333 km/h
Sensor: Nr:Datum:Temp:Abs-Feuchte:Windchill:Wind:
Aussen-T/F 1351 06-08-2014 09:00:00 14.61667 C 11.93 g/m*3 14.62 C 3.2 km/h
1352 06-08-2014 10:00:00 16.79167 C 12.87 g/m*3 16.79 C 0.53333 km/h
1353 06-08-2014 11:00:00 19.925 C 14.4 g/m*3 19.93 C 1.46667 km/h
1354 06-08-2014 12:00:00 22.75 C 13.8 g/m*3 22.75 C 3.73333 km/h
1355 06-08-2014 13:00:00 24.55833 C 12.11 g/m*3 24.56 C 6.43333 km/h
1356 06-08-2014 14:00:00 25.48333 C 11.08 g/m*3 25.48 C 8.31667 km/h
1357 06-08-2014 15:00:00 25.1 C 12.64 g/m*3 25.1 C 4.15 km/h
1358 06-08-2014 16:00:00 24.33333 C 13.54 g/m*3 24.33 C 2.54167 km/h
1359 06-08-2014 17:00:00 21.50833 C 14.7 g/m*3 21.51 C 0.13333 km/h
1360 06-08-2014 18:00:00 20.5 C 14.43 g/m*3 20.5 C 0.13333 km/h
1361 06-08-2014 19:00:00 19.16667 C 13.81 g/m*3 19.17 C 5.5 km/h
1362 06-08-2014 20:00:00 17.10833 C 13.3 g/m*3 17.11 C 3.73333 km/h
1363 06-08-2014 21:00:00 16.41667 C 13.19 g/m*3 16.42 C 0.53333 km/h
1364 06-08-2014 22:00:00 16.025 C 13.1 g/m*3 16.02 C 0.13333 km/h
1365 06-08-2014 23:00:00 15.85 C 12.96 g/m*3 15.85 C 0 km/h
1366 07-08-2014 00:00:00 15.65 C 12.81 g/m*3 15.65 C 2.40833 km/h
1367 07-08-2014 01:00:00 15.58333 C 12.81 g/m*3 15.58 C 0.13333 km/h
1368 07-08-2014 02:00:00 15.43333 C 12.76 g/m*3 15.43 C 0 km/h
1369 07-08-2014 03:00:00 15.28333 C 12.64 g/m*3 15.28 C 0.8 km/h
1370 07-08-2014 04:00:00 15.21667 C 12.6 g/m*3 15.22 C 0 km/h
1371 07-08-2014 05:00:00 15.55 C 12.89 g/m*3 15.55 C 0 km/h
1372 07-08-2014 06:00:00 15.8 C 13.19 g/m*3 15.8 C 0.53333 km/h
1373 07-08-2014 07:00:00 16 C 13.35 g/m*3 16 C 0 km/h
1374 07-08-2014 08:00:00 16.25 C 13.56 g/m*3 16.25 C 1.33333 km/h
1375 07-08-2014 09:00:00 17.36667 C 13.9 g/m*3 17.37 C 3.46667 km/h
Sensor: Nr:Datum:Temp:Abs-Feuchte:Windchill:Wind:
Aussen-T/F 1376 07-08-2014 10:00:00 18.675 C 14.07 g/m*3 18.68 C 3.075 km/h
1377 07-08-2014 11:00:00 20.33333 C 14.23 g/m*3 20.33 C 4.81667 km/h
1378 07-08-2014 12:00:00 22.01667 C 14 g/m*3 22.02 C 4.94167 km/h
1379 07-08-2014 13:00:00 22.65 C 13.57 g/m*3 22.65 C 4.54167 km/h
1380 07-08-2014 14:00:00 23.96667 C 14.1 g/m*3 23.97 C 4.95 km/h
1381 07-08-2014 15:00:00 25.75 C 13.42 g/m*3 25.75 C 8.35 km/h
1382 07-08-2014 16:00:00 25.43333 C 14.23 g/m*3 25.43 C 3.60833 km/h
1383 07-08-2014 17:00:00 21.08333 C 15.66 g/m*3 21.08 C 0.13333 km/h
1384 07-08-2014 18:00:00 22.50833 C 15.9 g/m*3 22.51 C 0.4 km/h
1385 07-08-2014 19:00:00 22.38333 C 15.87 g/m*3 22.38 C 0.13333 km/h
1386 07-08-2014 20:00:00 20.11667 C 14.86 g/m*3 20.12 C 0.53333 km/h
1387 07-08-2014 21:00:00 18.46667 C 14.03 g/m*3 18.47 C 0.13333 km/h
1388 07-08-2014 22:00:00 17.56667 C 13.52 g/m*3 17.57 C 0 km/h
1389 07-08-2014 23:00:00 16.75833 C 13.13 g/m*3 16.76 C 0 km/h
1390 08-08-2014 00:00:00 16.075 C 12.76 g/m*3 16.08 C 0 km/h
1391 08-08-2014 01:00:00 15.54167 C 12.49 g/m*3 15.54 C 0 km/h
1392 08-08-2014 02:00:00 15.15833 C 12.3 g/m*3 15.16 C 0 km/h
1393 08-08-2014 03:00:00 14.80833 C 12.15 g/m*3 14.81 C 0 km/h
1394 08-08-2014 04:00:00 14.43333 C 11.89 g/m*3 14.43 C 0 km/h
1395 08-08-2014 05:00:00 14.275 C 11.88 g/m*3 14.28 C 0 km/h
1396 08-08-2014 06:00:00 14.58333 C 12.13 g/m*3 14.58 C 0.93333 km/h
1397 08-08-2014 07:00:00 15.04167 C 12.47 g/m*3 15.04 C 0.4 km/h
1398 08-08-2014 08:00:00 15.68333 C 12.9 g/m*3 15.68 C 0 km/h
1399 08-08-2014 09:00:00 16.60833 C 13.54 g/m*3 16.61 C 0 km/h
1400 08-08-2014 10:00:00 18.375 C 14.7 g/m*3 18.38 C 0.93333 km/h
Sensor: Nr:Datum:Temp:Abs-Feuchte:Windchill:Wind:
Aussen-T/F 1401 08-08-2014 11:00:00 22.93333 C 15.49 g/m*3 22.93 C 5.49167 km/h
1402 08-08-2014 12:00:00 25.45 C 14.66 g/m*3 25.45 C 8.175 km/h
1403 08-08-2014 13:00:00 26.50833 C 13.88 g/m*3 26.51 C 9.55 km/h
1404 08-08-2014 14:00:00 26.025 C 14.99 g/m*3 26.03 C 6.44167 km/h
1405 08-08-2014 15:00:00 22.73333 C 16.82 g/m*3 22.73 C 0.93333 km/h
1406 08-08-2014 16:00:00 20.86667 C 16.75 g/m*3 20.87 C 0.4 km/h
1407 08-08-2014 17:00:00 20.45 C 16.84 g/m*3 20.45 C 0 km/h
1408 08-08-2014 18:00:00 20.625 C 17.03 g/m*3 20.63 C 0 km/h
1409 08-08-2014 19:00:00 20.35 C 16.8 g/m*3 20.35 C 0 km/h
1410 08-08-2014 20:00:00 20.00833 C 16.53 g/m*3 20.01 C 0.13333 km/h
1411 08-08-2014 21:00:00 19.11667 C 15.71 g/m*3 19.12 C 0 km/h
1412 08-08-2014 22:00:00 18.75 C 15.42 g/m*3 18.75 C 0.13333 km/h
1413 08-08-2014 23:00:00 18.625 C 15.3 g/m*3 18.63 C 0.4 km/h
1414 09-08-2014 00:00:00 18.64167 C 15.24 g/m*3 18.64 C 0.13333 km/h
1415 09-08-2014 01:00:00 18.8 C 15.3 g/m*3 18.8 C 0 km/h
1416 09-08-2014 02:00:00 19.40833 C 15.55 g/m*3 19.41 C 2.80833 km/h
1417 09-08-2014 03:00:00 18.85 C 15.56 g/m*3 18.85 C 0.26667 km/h
1418 09-08-2014 04:00:00 18.69167 C 15.52 g/m*3 18.69 C 0.26667 km/h
1419 09-08-2014 05:00:00 18.35 C 15.13 g/m*3 18.35 C 5.90833 km/h
1420 09-08-2014 06:00:00 18.625 C 14.66 g/m*3 18.63 C 13.01667 km/h
1421 09-08-2014 07:00:00 18.69167 C 14.54 g/m*3 18.69 C 10.075 km/h
1422 09-08-2014 08:00:00 19.56667 C 14.97 g/m*3 19.57 C 10.74167 km/h
1423 09-08-2014 09:00:00 19.875 C 15.24 g/m*3 19.88 C 10.46667 km/h
1424 09-08-2014 10:00:00 19.56667 C 14.59 g/m*3 19.57 C 9.53333 km/h
1425 09-08-2014 11:00:00 20.30833 C 13.08 g/m*3 20.31 C 15.83333 km/h
Sensor: Nr:Datum:Temp:Abs-Feuchte:Windchill:Wind:
Aussen-T/F 1426 09-08-2014 12:00:00 21.53333 C 12.37 g/m*3 21.53 C 16.1 km/h
1427 09-08-2014 13:00:00 22.125 C 12.14 g/m*3 22.13 C 11.43333 km/h
1428 09-08-2014 14:00:00 22.825 C 12.35 g/m*3 22.83 C 9.40833 km/h
1429 09-08-2014 15:00:00 24.24167 C 12.37 g/m*3 24.24 C 12.5 km/h
1430 09-08-2014 16:00:00 24.95833 C 12.08 g/m*3 24.96 C 12.75833 km/h
1431 09-08-2014 17:00:00 24.71667 C 12.46 g/m*3 24.72 C 7.79167 km/h
1432 09-08-2014 18:00:00 22.90833 C 14.24 g/m*3 22.91 C 1.60833 km/h
1433 09-08-2014 19:00:00 21.55833 C 14.51 g/m*3 21.56 C 0.8 km/h
1434 09-08-2014 20:00:00 18.9 C 13.31 g/m*3 18.9 C 1.73333 km/h
1435 09-08-2014 21:00:00 17.59167 C 12.67 g/m*3 17.59 C 0.26667 km/h
1436 09-08-2014 22:00:00 16.73333 C 12.4 g/m*3 16.73 C 0 km/h
1437 09-08-2014 23:00:00 16.55833 C 12.35 g/m*3 16.56 C 0.26667 km/h
1438 10-08-2014 00:00:00 16.25 C 12.46 g/m*3 16.25 C 0 km/h
1439 10-08-2014 01:00:00 16.20833 C 12.59 g/m*3 16.21 C 0 km/h
1440 10-08-2014 02:00:00 16.3 C 12.73 g/m*3 16.3 C 0 km/h
1441 10-08-2014 03:00:00 16.34167 C 12.8 g/m*3 16.34 C 0 km/h
1442 10-08-2014 04:00:00 16.175 C 12.75 g/m*3 16.18 C 0 km/h
1443 10-08-2014 05:00:00 15.825 C 12.37 g/m*3 15.83 C 0 km/h
1444 10-08-2014 06:00:00 15.26667 C 12.03 g/m*3 15.27 C 0.26667 km/h
1445 10-08-2014 07:00:00 15.58333 C 12.41 g/m*3 15.58 C 1.61667 km/h
1446 10-08-2014 08:00:00 17.63333 C 13.51 g/m*3 17.63 C 1.73333 km/h
1447 10-08-2014 09:00:00 19.61667 C 14.24 g/m*3 19.62 C 2.93333 km/h
1448 10-08-2014 10:00:00 21.25833 C 14.91 g/m*3 21.26 C 3.86667 km/h
1449 10-08-2014 11:00:00 22.8 C 15.78 g/m*3 22.8 C 4.94167 km/h
1450 10-08-2014 12:00:00 24.26667 C 15.94 g/m*3 24.27 C 6.96667 km/h
Sensor: Nr:Datum:Temp:Abs-Feuchte:Windchill:Wind:
Aussen-T/F 1451 10-08-2014 13:00:00 23.85833 C 16.26 g/m*3 23.86 C 4.825 km/h
1452 10-08-2014 14:00:00 21.55833 C 17.22 g/m*3 21.56 C 0.8 km/h
1453 10-08-2014 15:00:00 20.85833 C 16.81 g/m*3 20.86 C 2.93333 km/h
1454 10-08-2014 16:00:00 21.05833 C 17.29 g/m*3 21.06 C 2.26667 km/h
1455 10-08-2014 17:00:00 21.00833 C 17.3 g/m*3 21.01 C 0 km/h
1456 10-08-2014 18:00:00 20.25833 C 16.84 g/m*3 20.26 C 0.13333 km/h
1457 10-08-2014 19:00:00 19.85 C 16.46 g/m*3 19.85 C 0 km/h
1458 10-08-2014 20:00:00 19.225 C 16.02 g/m*3 19.23 C 2.68333 km/h
1459 10-08-2014 21:00:00 18.975 C 15.34 g/m*3 18.98 C 3.33333 km/h
1460 10-08-2014 22:00:00 18.34167 C 14.81 g/m*3 18.34 C 2 km/h
1461 10-08-2014 23:00:00 17.78333 C 14.56 g/m*3 17.78 C 1.33333 km/h
1462 11-08-2014 00:00:00 17.50833 C 14.06 g/m*3 17.51 C 3.20833 km/h
1463 11-08-2014 01:00:00 16.31667 C 13.02 g/m*3 16.32 C 2.8 km/h
1464 11-08-2014 02:00:00 15.40833 C 11.96 g/m*3 15.41 C 2.93333 km/h
1465 11-08-2014 03:00:00 14.05833 C 11.45 g/m*3 14.06 C 0.53333 km/h
1466 11-08-2014 04:00:00 13.36667 C 11.03 g/m*3 13.37 C 0.4 km/h
1467 11-08-2014 05:00:00 13.14167 C 10.8 g/m*3 13.14 C 1.06667 km/h
1468 11-08-2014 06:00:00 12.86667 C 10.64 g/m*3 12.87 C 0.4 km/h
1469 11-08-2014 07:00:00 13.10833 C 10.83 g/m*3 13.11 C 0.66667 km/h
1470 11-08-2014 08:00:00 13.86667 C 11.12 g/m*3 13.87 C 3.49167 km/h
1471 11-08-2014 09:00:00 15.43333 C 11.14 g/m*3 15.43 C 12.76667 km/h
1472 11-08-2014 10:00:00 16.50833 C 11.25 g/m*3 16.51 C 12.5 km/h
1473 11-08-2014 11:00:00 18.25833 C 11.35 g/m*3 18.26 C 10.89167 km/h
1474 11-08-2014 12:00:00 19.55 C 11.21 g/m*3 19.55 C 11.025 km/h
1475 11-08-2014 13:00:00 20.375 C 11.14 g/m*3 20.38 C 13.16667 km/h
Sensor: Nr:Datum:Temp:Abs-Feuchte:Windchill:Wind:
Aussen-T/F 1476 11-08-2014 14:00:00 20.85 C 11.38 g/m*3 20.85 C 11.96667 km/h
1477 11-08-2014 15:00:00 18.66667 C 13.41 g/m*3 18.67 C 3.06667 km/h
1478 11-08-2014 16:00:00 20.51667 C 13.4 g/m*3 20.52 C 6.3 km/h
1479 11-08-2014 17:00:00 21.975 C 11.47 g/m*3 21.98 C 12.49167 km/h
1480 11-08-2014 18:00:00 21.24167 C 11.58 g/m*3 21.24 C 6.975 km/h
1481 11-08-2014 19:00:00 20.60833 C 11.83 g/m*3 20.61 C 5.625 km/h
1482 11-08-2014 20:00:00 18.75833 C 11.33 g/m*3 18.76 C 3.46667 km/h
1483 11-08-2014 21:00:00 16.34167 C 11.18 g/m*3 16.34 C 2.66667 km/h
1484 11-08-2014 22:00:00 15.25 C 10.96 g/m*3 15.25 C 0.53333 km/h
1485 11-08-2014 23:00:00 14.18333 C 10.61 g/m*3 14.18 C 0 km/h
1486 12-08-2014 00:00:00 14.28333 C 10.69 g/m*3 14.28 C 0.53333 km/h
1487 12-08-2014 01:00:00 16.15833 C 10.36 g/m*3 16.16 C 6.725 km/h
1488 12-08-2014 02:00:00 15.51667 C 10.73 g/m*3 15.52 C 8.85833 km/h
1489 12-08-2014 03:00:00 14.46667 C 10.91 g/m*3 14.47 C 2 km/h
1490 12-08-2014 04:00:00 13.975 C 10.93 g/m*3 13.98 C 2.94167 km/h
1491 12-08-2014 05:00:00 14.225 C 10.76 g/m*3 14.23 C 4.81667 km/h
1492 12-08-2014 06:00:00 14.1 C 10.64 g/m*3 14.1 C 1.86667 km/h
1493 12-08-2014 07:00:00 13.80833 C 10.76 g/m*3 13.81 C 0.53333 km/h
1494 12-08-2014 08:00:00 14.375 C 11.11 g/m*3 14.38 C 2.54167 km/h
1495 12-08-2014 09:00:00 15.88333 C 11 g/m*3 15.88 C 10.61667 km/h
1496 12-08-2014 10:00:00 17.10833 C 10.63 g/m*3 17.11 C 13.56667 km/h
1497 12-08-2014 11:00:00 18.5 C 10.5 g/m*3 18.5 C 13.55833 km/h
1498 12-08-2014 12:00:00 19.80833 C 9.91 g/m*3 19.81 C 14.5 km/h
1499 12-08-2014 13:00:00 20.46667 C 9.72 g/m*3 20.47 C 14.23333 km/h
1500 12-08-2014 14:00:00 21.59167 C 9.97 g/m*3 21.59 C 14.63333 km/h
Sensor: Nr:Datum:Temp:Abs-Feuchte:Windchill:Wind:
Aussen-T/F 1501 12-08-2014 15:00:00 22.775 C 9.93 g/m*3 22.78 C 15.96667 km/h
1502 12-08-2014 16:00:00 23.30833 C 10.01 g/m*3 23.31 C 14.89167 km/h
1503 12-08-2014 17:00:00 22.31667 C 9.87 g/m*3 22.32 C 14.64167 km/h
1504 12-08-2014 18:00:00 22.16667 C 10.22 g/m*3 22.17 C 9.825 km/h
1505 12-08-2014 19:00:00 21.04167 C 11.29 g/m*3 21.04 C 4.15 km/h
1506 12-08-2014 20:00:00 18.46667 C 11.33 g/m*3 18.47 C 2 km/h
1507 12-08-2014 21:00:00 17.16667 C 11.12 g/m*3 17.17 C 0.93333 km/h
1508 12-08-2014 22:00:00 16.41667 C 10.86 g/m*3 16.42 C 0 km/h
1509 12-08-2014 23:00:00 15.05833 C 10.64 g/m*3 15.06 C 0 km/h
1510 13-08-2014 00:00:00 14.33333 C 10.8 g/m*3 14.33 C 0 km/h
1511 13-08-2014 01:00:00 14.09167 C 10.93 g/m*3 14.09 C 0 km/h
1512 13-08-2014 02:00:00 13.95833 C 10.95 g/m*3 13.96 C 0 km/h
1513 13-08-2014 03:00:00 14.075 C 11.01 g/m*3 14.08 C 0 km/h
1514 13-08-2014 04:00:00 14.125 C 11 g/m*3 14.13 C 0 km/h
1515 13-08-2014 05:00:00 14.11667 C 11.06 g/m*3 14.12 C 0 km/h
1516 13-08-2014 06:00:00 13.61667 C 10.9 g/m*3 13.62 C 0 km/h
1517 13-08-2014 07:00:00 14 C 11.25 g/m*3 14 C 0 km/h
1518 13-08-2014 08:00:00 14.98333 C 11.68 g/m*3 14.98 C 0 km/h
1519 13-08-2014 09:00:00 16.70833 C 12.16 g/m*3 16.71 C 0 km/h
1520 13-08-2014 10:00:00 18.325 C 12.21 g/m*3 18.33 C 3.75 km/h
1521 13-08-2014 11:00:00 19.50833 C 12.51 g/m*3 19.51 C 3.74167 km/h
1522 13-08-2014 12:00:00 19.825 C 12.67 g/m*3 19.83 C 2.8 km/h
1523 13-08-2014 13:00:00 19.48333 C 13.4 g/m*3 19.48 C 0.93333 km/h
1524 13-08-2014 14:00:00 18.73333 C 14.17 g/m*3 18.73 C 0 km/h
1525 13-08-2014 15:00:00 17.98333 C 14.17 g/m*3 17.98 C 0 km/h
Sensor: Nr:Datum:Temp:Abs-Feuchte:Windchill:Wind:
Aussen-T/F 1526 13-08-2014 16:00:00 17.16667 C 13.54 g/m*3 17.17 C 0.675 km/h
1527 13-08-2014 17:00:00 15.85 C 12.62 g/m*3 15.85 C 4.975 km/h
1528 13-08-2014 18:00:00 15.68333 C 12.8 g/m*3 15.68 C 0 km/h
1529 13-08-2014 19:00:00 15.70833 C 12.86 g/m*3 15.71 C 0 km/h
1530 13-08-2014 20:00:00 15.6 C 12.89 g/m*3 15.6 C 0 km/h
1531 13-08-2014 21:00:00 15.28333 C 12.59 g/m*3 15.28 C 0.13333 km/h
1532 13-08-2014 22:00:00 15.13333 C 12.28 g/m*3 15.13 C 0 km/h
1533 13-08-2014 23:00:00 15.15 C 12.23 g/m*3 15.15 C 4.95833 km/h
1534 14-08-2014 00:00:00 14.95 C 11.89 g/m*3 14.95 C 3.74167 km/h
1535 14-08-2014 01:00:00 14.58333 C 11.54 g/m*3 14.58 C 2.26667 km/h
1536 14-08-2014 02:00:00 13.85833 C 11.34 g/m*3 13.86 C 0 km/h
1537 14-08-2014 03:00:00 13.35 C 11.14 g/m*3 13.35 C 0 km/h
1538 14-08-2014 04:00:00 13.20833 C 11.14 g/m*3 13.21 C 0.13333 km/h
1539 14-08-2014 05:00:00 13.06667 C 11.05 g/m*3 13.07 C 0 km/h
1540 14-08-2014 06:00:00 12.91667 C 10.94 g/m*3 12.92 C 0 km/h
1541 14-08-2014 07:00:00 13.53333 C 11.31 g/m*3 13.53 C 1.74167 km/h
1542 14-08-2014 08:00:00 14.86667 C 11.36 g/m*3 14.87 C 5.36667 km/h
1543 14-08-2014 09:00:00 15.51667 C 11.62 g/m*3 15.52 C 5.10833 km/h
1544 14-08-2014 10:00:00 16.51667 C 11.53 g/m*3 16.52 C 11 km/h
1545 14-08-2014 11:00:00 17.20833 C 11.4 g/m*3 17.21 C 11.025 km/h
1546 14-08-2014 12:00:00 18.96667 C 11.63 g/m*3 18.97 C 14.76667 km/h
1547 14-08-2014 13:00:00 19.525 C 11.71 g/m*3 19.52 C 13.03333 km/h
1548 14-08-2014 14:00:00 19.775 C 12.07 g/m*3 19.77 C 15.03333 km/h
1549 14-08-2014 15:00:00 20.125 C 11.87 g/m*3 20.13 C 12.36667 km/h
1550 14-08-2014 16:00:00 19.63333 C 11.8 g/m*3 19.63 C 7.25 km/h
Sensor: Nr:Datum:Temp:Abs-Feuchte:Windchill:Wind:
Aussen-T/F 1551 14-08-2014 17:00:00 20.83333 C 11.78 g/m*3 20.83 C 6.56667 km/h
1552 14-08-2014 18:00:00 19.16667 C 11.68 g/m*3 19.17 C 10.325 km/h
1553 14-08-2014 19:00:00 16.38 C 11.29 g/m*3 16.38 C 3.04 km/h
1554 14-08-2014 20:00:00 15.22727 C 11.36 g/m*3 15.23 C 0.29091 km/h
1555 14-08-2014 21:00:00 14.71111 C 11.32 g/m*3 14.71 C 0 km/h
1556 14-08-2014 22:00:00 14.70833 C 11.42 g/m*3 14.71 C 0 km/h
1557 14-08-2014 23:00:00 14.675 C 11.25 g/m*3 14.68 C 0.93333 km/h
1558 15-08-2014 00:00:00 14.26667 C 10.92 g/m*3 14.27 C 0.8 km/h
1559 15-08-2014 01:00:00 13.55833 C 10.61 g/m*3 13.56 C 0 km/h
1560 15-08-2014 02:00:00 13.55 C 10.56 g/m*3 13.55 C 0.26667 km/h
1561 15-08-2014 03:00:00 12.99167 C 10.54 g/m*3 12.99 C 0 km/h
1562 15-08-2014 04:00:00 13.20833 C 10.8 g/m*3 13.21 C 0 km/h
1563 15-08-2014 05:00:00 13.39167 C 10.92 g/m*3 13.39 C 0 km/h
1564 15-08-2014 06:00:00 13.525 C 10.98 g/m*3 13.53 C 0 km/h
1565 15-08-2014 07:00:00 13.75 C 11.11 g/m*3 13.75 C 0 km/h
1566 15-08-2014 08:00:00 14.15 C 11.21 g/m*3 14.15 C 0.8 km/h
1567 15-08-2014 09:00:00 14.68333 C 11.52 g/m*3 14.68 C 3.225 km/h
1568 15-08-2014 10:00:00 15.34167 C 11.82 g/m*3 15.34 C 6.575 km/h
1569 15-08-2014 11:00:00 15.69167 C 11.76 g/m*3 15.69 C 3.6 km/h
1570 15-08-2014 12:00:00 15.76667 C 12.09 g/m*3 15.77 C 2.93333 km/h
1571 15-08-2014 13:00:00 16.18889 C 11.82 g/m*3 16.19 C 2.48889 km/h
1572 15-08-2014 14:00:00 15.68333 C 11.85 g/m*3 15.68 C 3.74167 km/h
1573 15-08-2014 15:00:00 15.36667 C 12.05 g/m*3 15.37 C 1.2 km/h
1574 15-08-2014 16:00:00 15.625 C 12.01 g/m*3 15.63 C 1.2 km/h
1575 15-08-2014 17:00:00 14.54167 C 11.69 g/m*3 14.54 C 1.06667 km/h
Sensor: Nr:Datum:Temp:Abs-Feuchte:Windchill:Wind:
Aussen-T/F 1576 15-08-2014 18:00:00 16.99167 C 12.87 g/m*3 16.99 C 0.66667 km/h
1577 15-08-2014 19:00:00 14.875 C 11.96 g/m*3 14.88 C 0 km/h
1578 15-08-2014 20:00:00 14.41667 C 11.91 g/m*3 14.42 C 0.13333 km/h
1579 15-08-2014 21:00:00 14.15833 C 11.74 g/m*3 14.16 C 0.26667 km/h
1580 15-08-2014 22:00:00 13.74167 C 11.51 g/m*3 13.74 C 0 km/h
1581 15-08-2014 23:00:00 13.275 C 11.19 g/m*3 13.28 C 0 km/h
1582 16-08-2014 00:00:00 12.83333 C 10.89 g/m*3 12.83 C 0 km/h
1583 16-08-2014 01:00:00 12.725 C 10.84 g/m*3 12.73 C 0 km/h
1584 16-08-2014 02:00:00 12.95833 C 11.09 g/m*3 12.96 C 0 km/h
1585 16-08-2014 03:00:00 12.9 C 11.05 g/m*3 12.9 C 0 km/h
1586 16-08-2014 04:00:00 12.91667 C 11.06 g/m*3 12.92 C 0 km/h
1587 16-08-2014 05:00:00 12.54167 C 10.77 g/m*3 12.54 C 0 km/h
1588 16-08-2014 06:00:00 12.51667 C 10.78 g/m*3 12.52 C 0 km/h
1589 16-08-2014 07:00:00 12.41667 C 10.68 g/m*3 12.42 C 0 km/h
1590 16-08-2014 08:00:00 13.20833 C 11.04 g/m*3 13.21 C 0 km/h
1591 16-08-2014 09:00:00 13.975 C 11.17 g/m*3 13.98 C 3.89167 km/h
1592 16-08-2014 10:00:00 15 C 11.68 g/m*3 15 C 4.83333 km/h
1593 16-08-2014 11:00:00 15.09167 C 12.25 g/m*3 15.09 C 0.66667 km/h
1594 16-08-2014 12:00:00 16.29167 C 12.43 g/m*3 16.29 C 3.89167 km/h
1595 16-08-2014 13:00:00 17.09167 C 12.62 g/m*3 17.09 C 4.69167 km/h
1596 16-08-2014 14:00:00 18.4 C 11.6 g/m*3 18.4 C 8.06667 km/h
1597 16-08-2014 15:00:00 20.40833 C 11.33 g/m*3 20.41 C 11.15833 km/h
1598 16-08-2014 16:00:00 20.41667 C 11.61 g/m*3 20.42 C 6.7 km/h
1599 16-08-2014 17:00:00 19.56667 C 11.65 g/m*3 19.57 C 7.11667 km/h
1600 16-08-2014 18:00:00 17.49167 C 11.81 g/m*3 17.49 C 4.29167 km/h
Sensor: Nr:Datum:Temp:Abs-Feuchte:Windchill:Wind:
Aussen-T/F 1601 16-08-2014 19:00:00 15.75833 C 11.88 g/m*3 15.76 C 4.15 km/h
1602 16-08-2014 20:00:00 14.68333 C 11.72 g/m*3 14.68 C 1.73333 km/h
1603 16-08-2014 21:00:00 14.9 C 11.57 g/m*3 14.9 C 1.06667 km/h
1604 16-08-2014 22:00:00 14.58333 C 11.73 g/m*3 14.58 C 0 km/h
1605 16-08-2014 23:00:00 14.51667 C 11.83 g/m*3 14.52 C 0 km/h
1606 17-08-2014 00:00:00 14.49167 C 11.63 g/m*3 14.49 C 0 km/h
1607 17-08-2014 01:00:00 13.84167 C 11.19 g/m*3 13.84 C 0 km/h
1608 17-08-2014 02:00:00 13.61667 C 11.13 g/m*3 13.62 C 0 km/h
1609 17-08-2014 03:00:00 13.81667 C 11.2 g/m*3 13.82 C 0 km/h
1610 17-08-2014 04:00:00 13.65 C 11.16 g/m*3 13.65 C 0 km/h
1611 17-08-2014 05:00:00 13.525 C 11.12 g/m*3 13.53 C 0 km/h
1612 17-08-2014 06:00:00 13.21667 C 10.92 g/m*3 13.22 C 0 km/h
1613 17-08-2014 07:00:00 12.75 C 10.67 g/m*3 12.75 C 0 km/h
1614 17-08-2014 08:00:00 13.76667 C 10.88 g/m*3 13.77 C 3.35 km/h
1615 17-08-2014 09:00:00 15.525 C 10.69 g/m*3 15.53 C 10.21667 km/h
1616 17-08-2014 10:00:00 16.61667 C 10.84 g/m*3 16.62 C 11.94167 km/h
1617 17-08-2014 11:00:00 17.575 C 10.62 g/m*3 17.58 C 15.03333 km/h
1618 17-08-2014 12:00:00 18.49167 C 10.19 g/m*3 18.49 C 18.5 km/h
1619 17-08-2014 13:00:00 18.375 C 9.89 g/m*3 18.38 C 13.7 km/h
1620 17-08-2014 14:00:00 18.09167 C 9.74 g/m*3 18.09 C 14.1 km/h
1621 17-08-2014 15:00:00 18.36667 C 9.72 g/m*3 18.37 C 11.55 km/h
1622 17-08-2014 16:00:00 18.66667 C 9.81 g/m*3 18.67 C 13.69167 km/h
1623 17-08-2014 17:00:00 18.31667 C 9.81 g/m*3 18.32 C 8.325 km/h
1624 17-08-2014 18:00:00 18.375 C 10.04 g/m*3 18.38 C 8.73333 km/h
1625 17-08-2014 19:00:00 17.89167 C 10.44 g/m*3 17.89 C 6.30833 km/h
Sensor: Nr:Datum:Temp:Abs-Feuchte:Windchill:Wind:
Aussen-T/F 1626 17-08-2014 20:00:00 17.56667 C 10.35 g/m*3 17.57 C 7.65 km/h
1627 17-08-2014 21:00:00 17.18333 C 10.11 g/m*3 17.18 C 6.30833 km/h
1628 17-08-2014 22:00:00 16.775 C 9.85 g/m*3 16.77 C 7.91667 km/h
1629 17-08-2014 23:00:00 16.88333 C 9.91 g/m*3 16.88 C 9.13333 km/h
1630 18-08-2014 00:00:00 17.05 C 10.03 g/m*3 17.05 C 12.225 km/h
1631 18-08-2014 01:00:00 16.675 C 9.96 g/m*3 16.68 C 11.29167 km/h
1632 18-08-2014 02:00:00 16.21667 C 9.88 g/m*3 16.22 C 10.61667 km/h
1633 18-08-2014 03:00:00 15.95 C 9.94 g/m*3 15.95 C 10.35 km/h
1634 18-08-2014 04:00:00 15.70833 C 10.11 g/m*3 15.71 C 11.425 km/h
1635 18-08-2014 05:00:00 15.06667 C 10.34 g/m*3 15.07 C 10.74167 km/h
1636 18-08-2014 06:00:00 14.95 C 10.31 g/m*3 14.95 C 10.89167 km/h
1637 18-08-2014 07:00:00 14.95 C 10.39 g/m*3 14.95 C 9.55 km/h
1638 18-08-2014 08:00:00 14.23333 C 10.62 g/m*3 14.23 C 8.325 km/h
1639 18-08-2014 09:00:00 13.65 C 10.86 g/m*3 13.65 C 4.28333 km/h
1640 18-08-2014 10:00:00 14.26667 C 11.15 g/m*3 14.27 C 6.16667 km/h
1641 18-08-2014 11:00:00 15.84167 C 11.52 g/m*3 15.84 C 9.825 km/h
1642 18-08-2014 12:00:00 17.175 C 10.98 g/m*3 17.18 C 10.89167 km/h
1643 18-08-2014 13:00:00 17.4 C 10.55 g/m*3 17.4 C 13.55833 km/h
1644 18-08-2014 14:00:00 16.50833 C 10.77 g/m*3 16.51 C 6.85833 km/h
1645 18-08-2014 15:00:00 17.51667 C 10.96 g/m*3 17.52 C 5.75833 km/h
1646 18-08-2014 16:00:00 19.4 C 10.39 g/m*3 19.4 C 11.69167 km/h
1647 18-08-2014 17:00:00 20.59167 C 8.18 g/m*3 20.59 C 17.96667 km/h
1648 18-08-2014 18:00:00 19.525 C 8.92 g/m*3 19.52 C 11.025 km/h
1649 18-08-2014 19:00:00 18.675 C 8.78 g/m*3 18.68 C 12.35833 km/h
1650 18-08-2014 20:00:00 17.03333 C 9.74 g/m*3 17.03 C 3.9 km/h
Sensor: Nr:Datum:Temp:Abs-Feuchte:Windchill:Wind:
Aussen-T/F 1651 18-08-2014 21:00:00 14.76667 C 10.43 g/m*3 14.77 C 0.13333 km/h
1652 18-08-2014 22:00:00 14.225 C 10.34 g/m*3 14.23 C 0 km/h
1653 18-08-2014 23:00:00 13.925 C 10.25 g/m*3 13.93 C 0 km/h
1654 19-08-2014 00:00:00 13.5 C 10.05 g/m*3 13.5 C 0 km/h
1655 19-08-2014 01:00:00 12.44167 C 9.65 g/m*3 12.44 C 0 km/h
1656 19-08-2014 02:00:00 11.60833 C 9.43 g/m*3 11.61 C 0 km/h
1657 19-08-2014 03:00:00 10.93333 C 9.23 g/m*3 10.93 C 0 km/h
1658 19-08-2014 04:00:00 10.525 C 9.07 g/m*3 10.53 C 0 km/h
1659 19-08-2014 05:00:00 10.29167 C 9.06 g/m*3 10.29 C 0 km/h
1660 19-08-2014 06:00:00 10.45833 C 9.19 g/m*3 10.46 C 1.46667 km/h
1661 19-08-2014 07:00:00 11.00833 C 9.46 g/m*3 11.01 C 1.6 km/h
1662 19-08-2014 08:00:00 12.3 C 10.01 g/m*3 12.3 C 6.96667 km/h
1663 19-08-2014 09:00:00 13.99167 C 10.25 g/m*3 13.99 C 9.28333 km/h
1664 19-08-2014 10:00:00 15.54167 C 10.27 g/m*3 15.54 C 14.63333 km/h
1665 19-08-2014 11:00:00 16.39167 C 10.23 g/m*3 16.39 C 15.96667 km/h
1666 19-08-2014 12:00:00 17.94167 C 10.13 g/m*3 17.94 C 15.29167 km/h
1667 19-08-2014 13:00:00 19.725 C 9.92 g/m*3 19.73 C 14.625 km/h
1668 19-08-2014 14:00:00 19.59167 C 10 g/m*3 19.59 C 16.63333 km/h
1669 19-08-2014 15:00:00 15.925 C 10.31 g/m*3 15.93 C 12.35 km/h
1670 19-08-2014 16:00:00 14.54167 C 10.94 g/m*3 14.54 C 4.175 km/h
1671 19-08-2014 17:00:00 15.13333 C 11.58 g/m*3 15.13 C 0 km/h
1672 19-08-2014 18:00:00 14.63333 C 11.02 g/m*3 14.63 C 4.69167 km/h
1673 19-08-2014 19:00:00 13.95833 C 9.37 g/m*3 13.96 C 7.65 km/h
1674 19-08-2014 20:00:00 13.89167 C 8.93 g/m*3 13.89 C 5.08333 km/h
1675 19-08-2014 21:00:00 12.86667 C 9.56 g/m*3 12.87 C 1.60833 km/h
Sensor: Nr:Datum:Temp:Abs-Feuchte:Windchill:Wind:
Aussen-T/F 1676 19-08-2014 22:00:00 11.95 C 9.56 g/m*3 11.95 C 0 km/h
1677 19-08-2014 23:00:00 11.96667 C 9.3 g/m*3 11.97 C 0 km/h
1678 20-08-2014 00:00:00 12.025 C 9 g/m*3 12.03 C 0 km/h
1679 20-08-2014 01:00:00 11.25 C 8.73 g/m*3 11.25 C 0 km/h
1680 20-08-2014 02:00:00 10.55 C 8.5 g/m*3 10.55 C 0 km/h
1681 20-08-2014 03:00:00 9.49167 C 8.26 g/m*3 9.49 C 0 km/h
1682 20-08-2014 04:00:00 8.61667 C 8.03 g/m*3 8.62 C 0 km/h
1683 20-08-2014 05:00:00 8.33333 C 7.95 g/m*3 8.33 C 0 km/h
1684 20-08-2014 06:00:00 8.14167 C 7.88 g/m*3 8.14 C 0 km/h
1685 20-08-2014 07:00:00 7.98333 C 7.85 g/m*3 7.98 C 0 km/h
1686 20-08-2014 08:00:00 8.675 C 8.26 g/m*3 8.68 C 1.33333 km/h
1687 20-08-2014 09:00:00 10.58333 C 8.97 g/m*3 10.58 C 1.06667 km/h
1688 20-08-2014 10:00:00 11.96667 C 9.42 g/m*3 11.97 C 0.4 km/h
1689 20-08-2014 11:00:00 13.79167 C 9.61 g/m*3 13.79 C 0.93333 km/h
1690 20-08-2014 12:00:00 16.14167 C 9.29 g/m*3 16.14 C 2.95 km/h
1691 20-08-2014 13:00:00 14.675 C 10.52 g/m*3 14.68 C 0.675 km/h
1692 20-08-2014 14:00:00 17.70833 C 8.87 g/m*3 17.71 C 6.16667 km/h
1693 20-08-2014 15:00:00 17.325 C 10.52 g/m*3 17.33 C 0.66667 km/h
1694 20-08-2014 16:00:00 17.79167 C 9.58 g/m*3 17.79 C 5.21667 km/h
1695 20-08-2014 17:00:00 17.55833 C 10.62 g/m*3 17.56 C 0.80833 km/h
1696 20-08-2014 18:00:00 17.16667 C 11.02 g/m*3 17.17 C 1.2 km/h
1697 20-08-2014 19:00:00 15.01667 C 10.28 g/m*3 15.02 C 2.94167 km/h
1698 20-08-2014 20:00:00 14.13333 C 10.04 g/m*3 14.13 C 0.66667 km/h
1699 20-08-2014 21:00:00 12.825 C 9.13 g/m*3 12.83 C 2.28333 km/h
1700 20-08-2014 22:00:00 11.83333 C 9.15 g/m*3 11.83 C 0 km/h
Sensor: Nr:Datum:Temp:Abs-Feuchte:Windchill:Wind:
Aussen-T/F 1701 20-08-2014 23:00:00 10.9 C 8.95 g/m*3 10.9 C 0 km/h
1702 21-08-2014 00:00:00 10.35833 C 8.72 g/m*3 10.36 C 0 km/h
1703 21-08-2014 01:00:00 9.63333 C 8.51 g/m*3 9.63 C 0 km/h
1704 21-08-2014 02:00:00 9.725 C 8.63 g/m*3 9.73 C 0 km/h
1705 21-08-2014 03:00:00 9.35 C 8.41 g/m*3 9.35 C 0 km/h
1706 21-08-2014 04:00:00 8.90833 C 8.26 g/m*3 8.91 C 0 km/h
1707 21-08-2014 05:00:00 8.54167 C 8.13 g/m*3 8.54 C 0 km/h
1708 21-08-2014 06:00:00 8.2 C 7.96 g/m*3 8.2 C 0.13333 km/h
1709 21-08-2014 07:00:00 8.20833 C 8.04 g/m*3 8.21 C 0.13333 km/h
1710 21-08-2014 08:00:00 8.76667 C 8.34 g/m*3 8.77 C 0.13333 km/h
1711 21-08-2014 09:00:00 9.94167 C 8.92 g/m*3 9.94 C 0.4 km/h
1712 21-08-2014 10:00:00 12.58333 C 9.44 g/m*3 12.58 C 6.70833 km/h
1713 21-08-2014 11:00:00 14.55833 C 9.54 g/m*3 14.56 C 3.61667 km/h
1714 21-08-2014 12:00:00 16.725 C 9.87 g/m*3 16.73 C 5.75833 km/h
1715 21-08-2014 13:00:00 15.10833 C 10.4 g/m*3 15.11 C 1.475 km/h
1716 21-08-2014 14:00:00 17.36667 C 9.68 g/m*3 17.37 C 3.48333 km/h
1717 21-08-2014 15:00:00 17.75833 C 9.83 g/m*3 17.76 C 4.825 km/h
1718 21-08-2014 16:00:00 18.6 C 9.97 g/m*3 18.6 C 4.13333 km/h
1719 21-08-2014 17:00:00 18.75833 C 9.64 g/m*3 18.76 C 7.39167 km/h
1720 21-08-2014 18:00:00 17.5 C 10.27 g/m*3 17.5 C 2 km/h
1721 21-08-2014 19:00:00 14.91667 C 10.13 g/m*3 14.92 C 2.66667 km/h
1722 21-08-2014 20:00:00 14.125 C 9.94 g/m*3 14.13 C 1.2 km/h
1723 21-08-2014 21:00:00 13.75833 C 9.86 g/m*3 13.76 C 0.13333 km/h
1724 21-08-2014 22:00:00 12.98333 C 9.67 g/m*3 12.98 C 0 km/h
1725 21-08-2014 23:00:00 11.94167 C 9.26 g/m*3 11.94 C 0 km/h
Sensor: Nr:Datum:Temp:Abs-Feuchte:Windchill:Wind:
Aussen-T/F 1726 22-08-2014 00:00:00 11 C 8.87 g/m*3 11 C 0 km/h
1727 22-08-2014 01:00:00 10.16667 C 8.57 g/m*3 10.17 C 0 km/h
1728 22-08-2014 02:00:00 9.36667 C 8.24 g/m*3 9.37 C 0 km/h
1729 22-08-2014 03:00:00 8.76667 C 8.06 g/m*3 8.77 C 0 km/h
1730 22-08-2014 04:00:00 8.25833 C 7.85 g/m*3 8.26 C 0 km/h
1731 22-08-2014 05:00:00 8.31667 C 7.96 g/m*3 8.32 C 0 km/h
1732 22-08-2014 06:00:00 9.06667 C 8.28 g/m*3 9.07 C 0 km/h
1733 22-08-2014 07:00:00 10 C 8.56 g/m*3 10 C 0 km/h
1734 22-08-2014 08:00:00 11.28333 C 8.76 g/m*3 11.28 C 3.35 km/h
1735 22-08-2014 09:00:00 12.725 C 9.12 g/m*3 12.73 C 6.99167 km/h
1736 22-08-2014 10:00:00 14.53333 C 9.66 g/m*3 14.53 C 5.61667 km/h
1737 22-08-2014 11:00:00 17.275 C 9.52 g/m*3 17.27 C 10.63333 km/h
1738 22-08-2014 12:00:00 18.23333 C 9.15 g/m*3 18.23 C 13.16667 km/h
1739 22-08-2014 13:00:00 18.63333 C 9.13 g/m*3 18.63 C 13.03333 km/h
1740 22-08-2014 14:00:00 18.51667 C 9.12 g/m*3 18.52 C 10.1 km/h
1741 22-08-2014 15:00:00 18.81667 C 9.89 g/m*3 18.82 C 6.04167 km/h
1742 22-08-2014 16:00:00 18.76667 C 10.14 g/m*3 18.77 C 7.65 km/h
1743 22-08-2014 17:00:00 17.35 C 10.95 g/m*3 17.35 C 1.2 km/h
1744 22-08-2014 18:00:00 18.89167 C 10.57 g/m*3 18.89 C 4.7 km/h
1745 22-08-2014 19:00:00 17.70833 C 10.91 g/m*3 17.71 C 2.26667 km/h
1746 22-08-2014 20:00:00 15.975 C 10.49 g/m*3 15.98 C 2 km/h
1747 22-08-2014 21:00:00 14.75833 C 10.4 g/m*3 14.76 C 0.26667 km/h
1748 22-08-2014 22:00:00 14.23333 C 10.32 g/m*3 14.23 C 0 km/h
1749 22-08-2014 23:00:00 14.33333 C 10.52 g/m*3 14.33 C 0 km/h
1750 23-08-2014 00:00:00 14.49167 C 10.27 g/m*3 14.49 C 0 km/h
Sensor: Nr:Datum:Temp:Abs-Feuchte:Windchill:Wind:
Aussen-T/F 1751 23-08-2014 01:00:00 13.70833 C 10.27 g/m*3 13.71 C 0 km/h
1752 23-08-2014 02:00:00 13.925 C 10.3 g/m*3 13.93 C 0 km/h
1753 23-08-2014 03:00:00 13.93333 C 10.33 g/m*3 13.93 C 2.275 km/h
1754 23-08-2014 04:00:00 13.81667 C 10.32 g/m*3 13.82 C 4.14167 km/h
1755 23-08-2014 05:00:00 13.58333 C 10.37 g/m*3 13.58 C 3.20833 km/h
1756 23-08-2014 06:00:00 13.28333 C 10.45 g/m*3 13.28 C 2.4 km/h
1757 23-08-2014 07:00:00 13.04167 C 10.43 g/m*3 13.04 C 0.26667 km/h
1758 23-08-2014 08:00:00 13.79167 C 10.61 g/m*3 13.79 C 5.35833 km/h
1759 23-08-2014 09:00:00 14.85 C 10.58 g/m*3 14.85 C 10.49167 km/h
1760 23-08-2014 10:00:00 16.18333 C 10.26 g/m*3 16.18 C 11.83333 km/h
1761 23-08-2014 11:00:00 17.21667 C 9.61 g/m*3 17.22 C 12.5 km/h
1762 23-08-2014 12:00:00 18.2 C 9.26 g/m*3 18.2 C 13.3 km/h
1763 23-08-2014 13:00:00 18.79167 C 9.43 g/m*3 18.79 C 13.96667 km/h
1764 23-08-2014 14:00:00 19.23333 C 9.64 g/m*3 19.23 C 13.7 km/h
1765 23-08-2014 15:00:00 16.38333 C 10.04 g/m*3 16.38 C 6.55833 km/h
1766 23-08-2014 16:00:00 14.05833 C 10.43 g/m*3 14.06 C 2.13333 km/h
1767 23-08-2014 17:00:00 12.85 C 10.21 g/m*3 12.85 C 4.825 km/h
1768 23-08-2014 18:00:00 13.79167 C 10.74 g/m*3 13.79 C 1.6 km/h
1769 23-08-2014 19:00:00 12.54167 C 10.36 g/m*3 12.54 C 0.93333 km/h
1770 23-08-2014 20:00:00 11.85833 C 9.89 g/m*3 11.86 C 1.73333 km/h
1771 23-08-2014 21:00:00 11.35833 C 9.73 g/m*3 11.36 C 1.33333 km/h
1772 23-08-2014 22:00:00 11.05833 C 9.55 g/m*3 11.06 C 1.06667 km/h
1773 23-08-2014 23:00:00 10.5 C 9.3 g/m*3 10.5 C 0.4 km/h
1774 24-08-2014 00:00:00 10.06667 C 9.06 g/m*3 10.07 C 0.26667 km/h
1775 24-08-2014 01:00:00 9.725 C 8.88 g/m*3 9.73 C 0.66667 km/h
Sensor: Nr:Datum:Temp:Abs-Feuchte:Windchill:Wind:
Aussen-T/F 1776 24-08-2014 02:00:00 10.26667 C 9.23 g/m*3 9.8 C 5.90833 km/h
1777 24-08-2014 03:00:00 10.33333 C 9.09 g/m*3 10.33 C 0.8 km/h
1778 24-08-2014 04:00:00 9.80833 C 8.91 g/m*3 9.81 C 0.53333 km/h
1779 24-08-2014 05:00:00 8.95 C 8.44 g/m*3 8.95 C 0.26667 km/h
1780 24-08-2014 06:00:00 8.90833 C 8.42 g/m*3 8.91 C 1.33333 km/h
1781 24-08-2014 07:00:00 9.53333 C 8.7 g/m*3 9.53 C 2.93333 km/h
1782 24-08-2014 08:00:00 10.06667 C 8.82 g/m*3 10.07 C 4.30833 km/h
1783 24-08-2014 09:00:00 11.16667 C 9.11 g/m*3 11.17 C 8.89167 km/h
1784 24-08-2014 10:00:00 11.93333 C 9.28 g/m*3 11.93 C 11.95833 km/h
1785 24-08-2014 11:00:00 13.25833 C 9.55 g/m*3 13.26 C 11.3 km/h
1786 24-08-2014 12:00:00 14.70833 C 9.92 g/m*3 14.71 C 8.59167 km/h
1787 24-08-2014 13:00:00 15.66667 C 9.94 g/m*3 15.67 C 10.33333 km/h
1788 24-08-2014 14:00:00 10.76667 C 9.38 g/m*3 10.77 C 1.06667 km/h
1789 24-08-2014 15:00:00 12.69167 C 10.79 g/m*3 12.69 C 0.26667 km/h
1790 24-08-2014 16:00:00 13.76667 C 11.42 g/m*3 13.77 C 0.13333 km/h
1791 24-08-2014 17:00:00 13.275 C 11.11 g/m*3 13.28 C 1.2 km/h
1792 24-08-2014 18:00:00 13.51667 C 11.3 g/m*3 13.52 C 0.4 km/h
1793 24-08-2014 19:00:00 13.575 C 11.25 g/m*3 13.58 C 0.13333 km/h
1794 24-08-2014 20:00:00 12.74167 C 10.76 g/m*3 12.74 C 0.66667 km/h
1795 24-08-2014 21:00:00 11.675 C 10.11 g/m*3 11.68 C 0.26667 km/h
1796 24-08-2014 22:00:00 11.225 C 9.85 g/m*3 11.23 C 0 km/h
1797 24-08-2014 23:00:00 10.53333 C 9.43 g/m*3 10.53 C 0 km/h
1798 25-08-2014 00:00:00 10.38333 C 9.34 g/m*3 10.38 C 0 km/h
1799 25-08-2014 01:00:00 10.23333 C 9.34 g/m*3 10.23 C 0 km/h
1800 25-08-2014 02:00:00 10.3 C 9.39 g/m*3 10.3 C 0 km/h
Sensor: Nr:Datum:Temp:Abs-Feuchte:Windchill:Wind:
Aussen-T/F 1801 25-08-2014 03:00:00 10.3 C 9.39 g/m*3 10.3 C 0 km/h
1802 25-08-2014 04:00:00 10.21667 C 9.34 g/m*3 10.22 C 0 km/h
1803 25-08-2014 05:00:00 10.025 C 9.22 g/m*3 10.03 C 0 km/h
1804 25-08-2014 06:00:00 9.75 C 9.06 g/m*3 9.75 C 0 km/h
1805 25-08-2014 07:00:00 9.925 C 9.16 g/m*3 9.93 C 0 km/h
1806 25-08-2014 08:00:00 10.45 C 9.47 g/m*3 10.45 C 0.26667 km/h
1807 25-08-2014 09:00:00 11.16667 C 9.91 g/m*3 11.17 C 0 km/h
1808 25-08-2014 10:00:00 12.775 C 10.96 g/m*3 12.78 C 0 km/h
1809 25-08-2014 11:00:00 14.25833 C 11.95 g/m*3 14.26 C 0.26667 km/h
1810 25-08-2014 12:00:00 15.80833 C 12.11 g/m*3 15.81 C 4.96667 km/h
1811 25-08-2014 13:00:00 18.45833 C 11.44 g/m*3 18.46 C 10.88333 km/h
1812 25-08-2014 14:00:00 18.25 C 11.64 g/m*3 18.25 C 6.58333 km/h
1813 25-08-2014 15:00:00 16.41667 C 12.32 g/m*3 16.42 C 1.06667 km/h
1814 25-08-2014 16:00:00 16.325 C 11.98 g/m*3 16.33 C 6.175 km/h
1815 25-08-2014 17:00:00 16.04167 C 12.13 g/m*3 16.04 C 1.73333 km/h
1816 25-08-2014 18:00:00 15.39167 C 12.27 g/m*3 15.39 C 0 km/h
1817 25-08-2014 19:00:00 14.91667 C 12.17 g/m*3 14.92 C 0 km/h
1818 25-08-2014 20:00:00 14.44167 C 11.9 g/m*3 14.44 C 0 km/h
1819 25-08-2014 21:00:00 14.2 C 11.84 g/m*3 14.2 C 0 km/h
1820 25-08-2014 22:00:00 14.00833 C 11.71 g/m*3 14.01 C 0 km/h
1821 25-08-2014 23:00:00 13.68333 C 11.47 g/m*3 13.68 C 0.13333 km/h
1822 26-08-2014 00:00:00 13.39167 C 11.27 g/m*3 13.39 C 0 km/h
1823 26-08-2014 01:00:00 13.15 C 11.1 g/m*3 13.15 C 0.26667 km/h
1824 26-08-2014 02:00:00 12.9 C 11.02 g/m*3 12.9 C 0.53333 km/h
1825 26-08-2014 03:00:00 12.81667 C 10.94 g/m*3 12.82 C 0 km/h
Sensor: Nr:Datum:Temp:Abs-Feuchte:Windchill:Wind:
Aussen-T/F 1826 26-08-2014 04:00:00 12.79167 C 10.97 g/m*3 12.79 C 0.26667 km/h
1827 26-08-2014 05:00:00 12.7 C 10.91 g/m*3 12.7 C 0 km/h
1828 26-08-2014 06:00:00 12.7 C 10.91 g/m*3 12.7 C 0 km/h
1829 26-08-2014 07:00:00 12.78333 C 10.97 g/m*3 12.78 C 0 km/h
1830 26-08-2014 08:00:00 13.1 C 11.18 g/m*3 13.1 C 0.13333 km/h
1831 26-08-2014 09:00:00 14.13333 C 11.92 g/m*3 14.13 C 0.4 km/h
1832 26-08-2014 10:00:00 15.70833 C 13.13 g/m*3 15.71 C 1.86667 km/h
1833 26-08-2014 11:00:00 16.45 C 13.47 g/m*3 16.45 C 3.61667 km/h
1834 26-08-2014 12:00:00 16.475 C 13.53 g/m*3 16.48 C 1.33333 km/h
1835 26-08-2014 13:00:00 17.31667 C 14.07 g/m*3 17.32 C 2.675 km/h
1836 26-08-2014 14:00:00 17.525 C 13.71 g/m*3 17.52 C 3.075 km/h
1837 26-08-2014 15:00:00 17.425 C 14.1 g/m*3 17.43 C 1.46667 km/h
1838 26-08-2014 16:00:00 16.73333 C 13.66 g/m*3 16.73 C 0.53333 km/h
1839 26-08-2014 17:00:00 16.44167 C 13.51 g/m*3 16.44 C 0 km/h
1840 26-08-2014 18:00:00 16.43333 C 13.57 g/m*3 16.43 C 0 km/h
1841 26-08-2014 19:00:00 16.06667 C 13.27 g/m*3 16.07 C 0.13333 km/h
1842 26-08-2014 20:00:00 15.34167 C 12.69 g/m*3 15.34 C 1.33333 km/h
1843 26-08-2014 21:00:00 14.49167 C 12.06 g/m*3 14.49 C 2.66667 km/h
1844 26-08-2014 22:00:00 14.24167 C 11.87 g/m*3 14.24 C 0.4 km/h
1845 26-08-2014 23:00:00 13.95833 C 11.67 g/m*3 13.96 C 0.93333 km/h
1846 27-08-2014 00:00:00 13.80833 C 11.61 g/m*3 13.81 C 0.66667 km/h
1847 27-08-2014 01:00:00 13.64167 C 11.53 g/m*3 13.64 C 0 km/h
1848 27-08-2014 02:00:00 13.59167 C 11.53 g/m*3 13.59 C 0 km/h
1849 27-08-2014 03:00:00 13.55833 C 11.5 g/m*3 13.56 C 0 km/h
1850 27-08-2014 04:00:00 13.4 C 11.39 g/m*3 13.4 C 0 km/h
Sensor: Nr:Datum:Temp:Abs-Feuchte:Windchill:Wind:
Aussen-T/F 1851 27-08-2014 05:00:00 13.18333 C 11.24 g/m*3 13.18 C 0 km/h
1852 27-08-2014 06:00:00 12.63333 C 10.86 g/m*3 12.63 C 0 km/h
1853 27-08-2014 07:00:00 12.33333 C 10.66 g/m*3 12.33 C 0 km/h
1854 27-08-2014 08:00:00 13.28182 C 11.39 g/m*3 13.28 C 0 km/h
1855 27-08-2014 09:00:00 13.425 C 11.41 g/m*3 13.43 C 0 km/h
1856 27-08-2014 10:00:00 14.325 C 11.98 g/m*3 14.33 C 0 km/h
1857 27-08-2014 11:00:00 15.475 C 11.85 g/m*3 15.48 C 3.46667 km/h
1858 27-08-2014 12:00:00 16.04167 C 12.26 g/m*3 16.04 C 2.00833 km/h
1859 27-08-2014 13:00:00 18.08333 C 12.41 g/m*3 18.08 C 3.2 km/h
1860 27-08-2014 14:00:00 18.33333 C 13.03 g/m*3 18.33 C 3.75 km/h
1861 27-08-2014 15:00:00 20.79167 C 12.34 g/m*3 20.79 C 4.4 km/h
1862 27-08-2014 16:00:00 20.48333 C 12.7 g/m*3 20.48 C 1.86667 km/h
1863 27-08-2014 17:00:00 19.31667 C 13.13 g/m*3 19.32 C 1.86667 km/h
1864 27-08-2014 18:00:00 17.325 C 13.27 g/m*3 17.33 C 0.13333 km/h
1865 27-08-2014 19:00:00 16.75 C 12.9 g/m*3 16.75 C 0.26667 km/h
1866 27-08-2014 20:00:00 15.01667 C 11.96 g/m*3 15.02 C 0.53333 km/h
1867 27-08-2014 21:00:00 14.61667 C 11.88 g/m*3 14.62 C 0 km/h
1868 27-08-2014 22:00:00 14.05833 C 11.47 g/m*3 14.06 C 0 km/h
1869 27-08-2014 23:00:00 13.35833 C 11.04 g/m*3 13.36 C 0 km/h
1870 28-08-2014 00:00:00 12.78333 C 10.74 g/m*3 12.78 C 0 km/h
1871 28-08-2014 01:00:00 12.4 C 10.59 g/m*3 12.4 C 0 km/h
1872 28-08-2014 02:00:00 12.13333 C 10.42 g/m*3 12.13 C 0 km/h
1873 28-08-2014 03:00:00 12.09167 C 10.4 g/m*3 12.09 C 0 km/h
1874 28-08-2014 04:00:00 11.75 C 10.19 g/m*3 11.75 C 0 km/h
1875 28-08-2014 05:00:00 11.73333 C 10.19 g/m*3 11.73 C 0 km/h
Sensor: Nr:Datum:Temp:Abs-Feuchte:Windchill:Wind:
Aussen-T/F 1876 28-08-2014 06:00:00 11.69167 C 10.24 g/m*3 11.69 C 0 km/h
1877 28-08-2014 07:00:00 11.61667 C 10.19 g/m*3 11.62 C 0 km/h
1878 28-08-2014 08:00:00 11.875 C 10.36 g/m*3 11.88 C 0 km/h
1879 28-08-2014 09:00:00 12.79167 C 10.97 g/m*3 12.79 C 0 km/h
1880 28-08-2014 10:00:00 14.7 C 12.34 g/m*3 14.7 C 0 km/h
1881 28-08-2014 11:00:00 16.75 C 13.68 g/m*3 16.75 C 2 km/h
1882 28-08-2014 12:00:00 19.64167 C 14.55 g/m*3 19.64 C 0.66667 km/h
1883 28-08-2014 13:00:00 19.575 C 14.65 g/m*3 19.58 C 0.53333 km/h
1884 28-08-2014 14:00:00 21.4 C 15.3 g/m*3 21.4 C 2.14167 km/h
1885 28-08-2014 15:00:00 21.15 C 14.58 g/m*3 21.15 C 3.475 km/h
1886 28-08-2014 16:00:00 20.59167 C 15.15 g/m*3 20.59 C 0.66667 km/h
1887 28-08-2014 17:00:00 19.975 C 14.67 g/m*3 19.98 C 2.13333 km/h
1888 28-08-2014 18:00:00 19.50833 C 14.97 g/m*3 19.51 C 0.53333 km/h
1889 28-08-2014 19:00:00 18.60833 C 14.73 g/m*3 18.61 C 0 km/h
1890 28-08-2014 20:00:00 17.61667 C 14.05 g/m*3 17.62 C 0 km/h
1891 28-08-2014 21:00:00 16.8 C 13.65 g/m*3 16.8 C 0.13333 km/h
1892 28-08-2014 22:00:00 16.74167 C 13.68 g/m*3 16.74 C 0 km/h
1893 28-08-2014 23:00:00 16.25 C 13.31 g/m*3 16.25 C 0 km/h
1894 29-08-2014 00:00:00 16.11667 C 13.25 g/m*3 16.12 C 0 km/h
1895 29-08-2014 01:00:00 16.05833 C 13.26 g/m*3 16.06 C 0 km/h
1896 29-08-2014 02:00:00 16.125 C 13.32 g/m*3 16.13 C 0.13333 km/h
1897 29-08-2014 03:00:00 16.33333 C 13.48 g/m*3 16.33 C 0 km/h
1898 29-08-2014 04:00:00 16.3 C 13.46 g/m*3 16.3 C 0 km/h
1899 29-08-2014 05:00:00 16.00833 C 13.22 g/m*3 16.01 C 0 km/h
1900 29-08-2014 06:00:00 15.875 C 13.12 g/m*3 15.88 C 0 km/h
Sensor: Nr:Datum:Temp:Abs-Feuchte:Windchill:Wind:
Aussen-T/F 1901 29-08-2014 07:00:00 15.725 C 13 g/m*3 15.73 C 0 km/h
1902 29-08-2014 08:00:00 16 C 13.17 g/m*3 16 C 0.26667 km/h
1903 29-08-2014 09:00:00 17.15833 C 13.32 g/m*3 17.16 C 3.06667 km/h
1904 29-08-2014 10:00:00 17.98333 C 13.41 g/m*3 17.98 C 2.675 km/h
1905 29-08-2014 11:00:00 18.49167 C 13.35 g/m*3 18.49 C 3.75 km/h
1906 29-08-2014 12:00:00 20.08333 C 13.79 g/m*3 20.08 C 3.48333 km/h
1907 29-08-2014 13:00:00 22.30833 C 14.13 g/m*3 22.31 C 6.725 km/h
1908 29-08-2014 14:00:00 23.80833 C 13.42 g/m*3 23.81 C 7.38333 km/h
1909 29-08-2014 15:00:00 23.5 C 13.83 g/m*3 23.5 C 7.25 km/h
1910 29-08-2014 16:00:00 22.725 C 14.16 g/m*3 22.73 C 9.8 km/h
1911 29-08-2014 17:00:00 20.74167 C 14.38 g/m*3 20.74 C 6.58333 km/h
1912 29-08-2014 18:00:00 19.06667 C 14.23 g/m*3 19.07 C 3.36667 km/h
1913 29-08-2014 19:00:00 18.05 C 14.39 g/m*3 18.05 C 0.26667 km/h
1914 29-08-2014 20:00:00 16.975 C 13.74 g/m*3 16.98 C 0 km/h
1915 29-08-2014 21:00:00 16.33333 C 13.35 g/m*3 16.33 C 0 km/h
1916 29-08-2014 22:00:00 15.96667 C 13.14 g/m*3 15.97 C 0.4 km/h
1917 29-08-2014 23:00:00 15.53333 C 12.85 g/m*3 15.53 C 0 km/h
1918 30-08-2014 00:00:00 15.36667 C 12.72 g/m*3 15.37 C 0 km/h
1919 30-08-2014 01:00:00 14.54167 C 12.1 g/m*3 14.54 C 0 km/h
1920 30-08-2014 02:00:00 14.475 C 12.08 g/m*3 14.48 C 0 km/h
1921 30-08-2014 03:00:00 14.1 C 11.78 g/m*3 14.1 C 0 km/h
1922 30-08-2014 04:00:00 13.475 C 11.33 g/m*3 13.48 C 0 km/h
1923 30-08-2014 05:00:00 13.06667 C 11.09 g/m*3 13.07 C 0 km/h
1924 30-08-2014 06:00:00 13.29167 C 11.31 g/m*3 13.29 C 0 km/h
1925 30-08-2014 07:00:00 13.63333 C 11.47 g/m*3 13.63 C 0.4 km/h
Sensor: Nr:Datum:Temp:Abs-Feuchte:Windchill:Wind:
Aussen-T/F 1926 30-08-2014 08:00:00 14.175 C 11.77 g/m*3 14.18 C 4.55 km/h
1927 30-08-2014 09:00:00 15.44167 C 12.21 g/m*3 15.44 C 6.575 km/h
1928 30-08-2014 10:00:00 17.075 C 12.62 g/m*3 17.08 C 5.49167 km/h
1929 30-08-2014 11:00:00 17.98333 C 12.71 g/m*3 17.98 C 4.15 km/h
1930 30-08-2014 12:00:00 19.425 C 12.71 g/m*3 19.43 C 8.48333 km/h
1931 30-08-2014 13:00:00 19.78333 C 13 g/m*3 19.78 C 6.03333 km/h
1932 30-08-2014 14:00:00 20.575 C 13.08 g/m*3 20.58 C 7.65833 km/h
1933 30-08-2014 15:00:00 21.125 C 13.07 g/m*3 21.13 C 10.33333 km/h
1934 30-08-2014 16:00:00 19.40833 C 13.05 g/m*3 19.41 C 4.15 km/h
1935 30-08-2014 17:00:00 16.825 C 13.33 g/m*3 16.83 C 1.875 km/h
1936 30-08-2014 18:00:00 16.475 C 13.4 g/m*3 16.48 C 0.4 km/h
1937 30-08-2014 19:00:00 16.26667 C 13.29 g/m*3 16.27 C 0 km/h
1938 30-08-2014 20:00:00 15.89167 C 13.08 g/m*3 15.89 C 0.13333 km/h
1939 30-08-2014 21:00:00 15.73333 C 13 g/m*3 15.73 C 0 km/h
1940 30-08-2014 22:00:00 15.775 C 13.04 g/m*3 15.78 C 0 km/h
1941 30-08-2014 23:00:00 15.68333 C 13.02 g/m*3 15.68 C 2.425 km/h
1942 31-08-2014 00:00:00 15.125 C 12.17 g/m*3 15.13 C 3.625 km/h
1943 31-08-2014 01:00:00 14.65 C 12.05 g/m*3 14.65 C 0 km/h
1944 31-08-2014 02:00:00 14.475 C 12.05 g/m*3 14.48 C 0 km/h
1945 31-08-2014 03:00:00 14.375 C 11.97 g/m*3 14.38 C 0 km/h
1946 31-08-2014 04:00:00 14.275 C 11.9 g/m*3 14.28 C 0 km/h
1947 31-08-2014 05:00:00 13.90833 C 11.63 g/m*3 13.91 C 0 km/h
1948 31-08-2014 06:00:00 13.76667 C 11.53 g/m*3 13.77 C 0 km/h
1949 31-08-2014 07:00:00 13.85833 C 11.6 g/m*3 13.86 C 0 km/h
1950 31-08-2014 08:00:00 13.9 C 11.63 g/m*3 13.9 C 0 km/h
Sensor: Nr:Datum:Temp:Abs-Feuchte:Windchill:Wind:
Aussen-T/F 1951 31-08-2014 09:00:00 15 C 11.86 g/m*3 15 C 0.8 km/h
1952 31-08-2014 10:00:00 16.275 C 11.73 g/m*3 16.27 C 4.14167 km/h
1953 31-08-2014 11:00:00 17.25833 C 11.99 g/m*3 17.26 C 2.4 km/h
1954 31-08-2014 12:00:00 17.51667 C 11.8 g/m*3 17.52 C 8.2 km/h
1955 31-08-2014 13:00:00 18.06667 C 11.91 g/m*3 18.07 C 10.09167 km/h
1956 31-08-2014 14:00:00 17.99167 C 12.14 g/m*3 17.99 C 3.35 km/h
1957 31-08-2014 15:00:00 14.69167 C 11.37 g/m*3 14.69 C 2.55 km/h
1958 31-08-2014 16:00:00 14.5 C 11.85 g/m*3 14.5 C 0 km/h
1959 31-08-2014 17:00:00 14.09167 C 11.66 g/m*3 14.09 C 0 km/h
1960 31-08-2014 18:00:00 13.81667 C 11.56 g/m*3 13.82 C 0 km/h
1961 31-08-2014 19:00:00 13.74167 C 11.52 g/m*3 13.74 C 0 km/h
1962 31-08-2014 20:00:00 13.38333 C 11.26 g/m*3 13.38 C 0.4 km/h
1963 31-08-2014 21:00:00 13.175 C 11.12 g/m*3 13.18 C 0.8 km/h
1964 31-08-2014 22:00:00 12.53333 C 10.69 g/m*3 12.53 C 0 km/h
1965 31-08-2014 23:00:00 12.44167 C 10.69 g/m*3 12.44 C 0 km/h
1966 01-09-2014 00:00:00 12.45 C 10.74 g/m*3 12.45 C 0 km/h
1967 01-09-2014 01:00:00 12.4 C 10.71 g/m*3 12.4 C 0 km/h
1968 01-09-2014 02:00:00 12.70833 C 10.91 g/m*3 12.71 C 0 km/h
1969 01-09-2014 03:00:00 12.8 C 10.98 g/m*3 12.8 C 2.26667 km/h
1970 01-09-2014 04:00:00 12.80833 C 10.98 g/m*3 12.81 C 0.4 km/h
1971 01-09-2014 05:00:00 12.73333 C 10.93 g/m*3 12.73 C 0 km/h
1972 01-09-2014 06:00:00 12.7 C 10.91 g/m*3 12.7 C 0 km/h
1973 01-09-2014 07:00:00 12.76667 C 10.95 g/m*3 12.77 C 0 km/h
1974 01-09-2014 08:00:00 13.225 C 11.25 g/m*3 13.23 C 0 km/h
1975 01-09-2014 09:00:00 14.04167 C 11.39 g/m*3 14.04 C 2.66667 km/h
Sensor: Nr:Datum:Temp:Abs-Feuchte:Windchill:Wind:
Aussen-T/F 1976 01-09-2014 10:00:00 14.825 C 11.29 g/m*3 14.83 C 2.66667 km/h
1977 01-09-2014 11:00:00 16.00833 C 11.35 g/m*3 16.01 C 6.16667 km/h
1978 01-09-2014 12:00:00 16.49167 C 11.38 g/m*3 16.49 C 4.26667 km/h
1979 01-09-2014 13:00:00 17.33333 C 11.85 g/m*3 17.33 C 2 km/h
1980 01-09-2014 14:00:00 18.03333 C 11.73 g/m*3 18.03 C 4.54167 km/h
1981 01-09-2014 15:00:00 18.75833 C 11.66 g/m*3 18.76 C 3.06667 km/h
1982 01-09-2014 16:00:00 17.325 C 12.38 g/m*3 17.33 C 0.53333 km/h
1983 01-09-2014 17:00:00 15.90833 C 12.33 g/m*3 15.91 C 0 km/h
1984 01-09-2014 18:00:00 15.84167 C 12.44 g/m*3 15.84 C 0 km/h
1985 01-09-2014 19:00:00 15.3 C 12.25 g/m*3 15.3 C 0 km/h
1986 01-09-2014 20:00:00 14.79167 C 11.88 g/m*3 14.79 C 0.4 km/h
1987 01-09-2014 21:00:00 14.45833 C 11.65 g/m*3 14.46 C 0.13333 km/h
1988 01-09-2014 22:00:00 13.80833 C 11.19 g/m*3 13.81 C 0 km/h
1989 01-09-2014 23:00:00 13.01667 C 10.77 g/m*3 13.02 C 0 km/h
1990 02-09-2014 00:00:00 12.71667 C 10.75 g/m*3 12.72 C 0 km/h
1991 02-09-2014 01:00:00 12.45833 C 10.54 g/m*3 12.46 C 0 km/h
1992 02-09-2014 02:00:00 11.70833 C 10.1 g/m*3 11.71 C 0 km/h
1993 02-09-2014 03:00:00 11.375 C 9.94 g/m*3 11.38 C 0 km/h
1994 02-09-2014 04:00:00 11.33333 C 9.91 g/m*3 11.33 C 0 km/h
1995 02-09-2014 05:00:00 11.26667 C 9.9 g/m*3 11.27 C 0 km/h
1996 02-09-2014 06:00:00 11.01667 C 9.74 g/m*3 11.02 C 0 km/h
1997 02-09-2014 07:00:00 10.775 C 9.64 g/m*3 10.78 C 0 km/h
1998 02-09-2014 08:00:00 10.85 C 9.72 g/m*3 10.85 C 0 km/h
1999 02-09-2014 09:00:00 11.20833 C 9.94 g/m*3 11.21 C 0 km/h
2000 02-09-2014 10:00:00 11.95 C 10.41 g/m*3 11.95 C 0 km/h
Sensor: Nr:Datum:Temp:Abs-Feuchte:Windchill:Wind:
Aussen-T/F 2001 02-09-2014 11:00:00 13.73333 C 11.32 g/m*3 13.73 C 0 km/h
2002 02-09-2014 12:00:00 15.81667 C 12.08 g/m*3 15.82 C 1.075 km/h
2003 02-09-2014 13:00:00 20.025 C 12.16 g/m*3 20.02 C 8.45833 km/h
2004 02-09-2014 14:00:00 20.84167 C 11.47 g/m*3 20.84 C 6.70833 km/h
2005 02-09-2014 15:00:00 21.725 C 11.83 g/m*3 21.73 C 6.30833 km/h
2006 02-09-2014 16:00:00 18.8 C 13.09 g/m*3 18.8 C 1.46667 km/h
2007 02-09-2014 17:00:00 17.69167 C 13.22 g/m*3 17.69 C 0.93333 km/h
2008 02-09-2014 18:00:00 17.09167 C 13.03 g/m*3 17.09 C 0.4 km/h
2009 02-09-2014 19:00:00 16.45 C 12.88 g/m*3 16.45 C 0 km/h
2010 02-09-2014 20:00:00 16.24167 C 12.85 g/m*3 16.24 C 0 km/h
2011 02-09-2014 21:00:00 15.61667 C 12.44 g/m*3 15.62 C 0 km/h
2012 02-09-2014 22:00:00 15.40833 C 12.48 g/m*3 15.41 C 0 km/h
2013 02-09-2014 23:00:00 14.75833 C 11.98 g/m*3 14.76 C 0 km/h
2014 03-09-2014 00:00:00 14.725 C 12.15 g/m*3 14.73 C 0 km/h
2015 03-09-2014 01:00:00 14.98333 C 12.39 g/m*3 14.98 C 0 km/h
2016 03-09-2014 02:00:00 15 C 12.36 g/m*3 15 C 0 km/h
2017 03-09-2014 03:00:00 14.24167 C 11.75 g/m*3 14.24 C 0 km/h
2018 03-09-2014 04:00:00 13.29167 C 11.05 g/m*3 13.29 C 0 km/h
2019 03-09-2014 05:00:00 12.475 C 10.54 g/m*3 12.48 C 0 km/h
2020 03-09-2014 06:00:00 12.00833 C 10.24 g/m*3 12.01 C 0 km/h
2021 03-09-2014 07:00:00 11.725 C 10.08 g/m*3 11.73 C 0 km/h
2022 03-09-2014 08:00:00 12.56667 C 10.67 g/m*3 12.57 C 0.26667 km/h
2023 03-09-2014 09:00:00 13.875 C 10.75 g/m*3 13.88 C 1.86667 km/h
2024 03-09-2014 10:00:00 15.06667 C 10.78 g/m*3 15.07 C 3.48333 km/h
2025 03-09-2014 11:00:00 16.00833 C 10.78 g/m*3 16.01 C 6.975 km/h
Sensor: Nr:Datum:Temp:Abs-Feuchte:Windchill:Wind:
Aussen-T/F 2026 03-09-2014 12:00:00 16.73333 C 11.06 g/m*3 16.73 C 7.25833 km/h
2027 03-09-2014 13:00:00 16.85 C 11.16 g/m*3 16.85 C 7.8 km/h
2028 03-09-2014 14:00:00 16.80833 C 11.35 g/m*3 16.81 C 7.24167 km/h
2029 03-09-2014 15:00:00 16.85833 C 11.61 g/m*3 16.86 C 5.90833 km/h
2030 03-09-2014 16:00:00 17.28333 C 11.96 g/m*3 17.28 C 2.66667 km/h
2031 03-09-2014 17:00:00 16.74167 C 12.5 g/m*3 16.74 C 0 km/h
2032 03-09-2014 18:00:00 16.3 C 12.75 g/m*3 16.3 C 0 km/h
2033 03-09-2014 19:00:00 16.08333 C 12.64 g/m*3 16.08 C 0 km/h
2034 03-09-2014 20:00:00 15.575 C 12.23 g/m*3 15.58 C 0 km/h
2035 03-09-2014 21:00:00 15.25 C 12.09 g/m*3 15.25 C 0 km/h
2036 03-09-2014 22:00:00 15.16667 C 12.05 g/m*3 15.17 C 0 km/h
2037 03-09-2014 23:00:00 15.175 C 12.09 g/m*3 15.18 C 0 km/h
2038 04-09-2014 00:00:00 14.98333 C 11.93 g/m*3 14.98 C 0 km/h
2039 04-09-2014 01:00:00 14.56667 C 11.6 g/m*3 14.57 C 0 km/h
2040 04-09-2014 02:00:00 14.25833 C 11.51 g/m*3 14.26 C 0 km/h
2041 04-09-2014 03:00:00 13.45 C 11.02 g/m*3 13.45 C 0 km/h
2042 04-09-2014 04:00:00 13.34167 C 11.12 g/m*3 13.34 C 0 km/h
2043 04-09-2014 05:00:00 13.64167 C 11.35 g/m*3 13.64 C 0 km/h
2044 04-09-2014 06:00:00 13.88333 C 11.5 g/m*3 13.88 C 0 km/h
2045 04-09-2014 07:00:00 14.31667 C 11.89 g/m*3 14.32 C 0 km/h
2046 04-09-2014 08:00:00 15.01667 C 12.33 g/m*3 15.02 C 0 km/h
2047 04-09-2014 09:00:00 16.05833 C 12.81 g/m*3 16.06 C 0 km/h
2048 04-09-2014 10:00:00 18.06667 C 13.2 g/m*3 18.07 C 0 km/h
2049 04-09-2014 11:00:00 19.38333 C 13.15 g/m*3 19.38 C 6.05 km/h
2050 04-09-2014 12:00:00 19.81667 C 13.26 g/m*3 19.82 C 8.46667 km/h
Sensor: Nr:Datum:Temp:Abs-Feuchte:Windchill:Wind:
Aussen-T/F 2051 04-09-2014 13:00:00 19.65 C 13.18 g/m*3 19.65 C 6.84167 km/h
2052 04-09-2014 14:00:00 20.025 C 13.49 g/m*3 20.02 C 8.20833 km/h
2053 04-09-2014 15:00:00 20.14167 C 13.5 g/m*3 20.14 C 4.825 km/h
2054 04-09-2014 16:00:00 19.68333 C 13.49 g/m*3 19.68 C 2.28333 km/h
2055 04-09-2014 17:00:00 19.05 C 14.06 g/m*3 19.05 C 0 km/h
2056 04-09-2014 18:00:00 17.90833 C 13.94 g/m*3 17.91 C 0 km/h
2057 04-09-2014 19:00:00 17.30833 C 13.71 g/m*3 17.31 C 0 km/h
2058 04-09-2014 20:00:00 17.04167 C 13.6 g/m*3 17.04 C 0 km/h
2059 04-09-2014 21:00:00 16.85 C 13.58 g/m*3 16.85 C 0 km/h
2060 04-09-2014 22:00:00 16.8 C 13.58 g/m*3 16.8 C 0 km/h
2061 04-09-2014 23:00:00 16.525 C 13.36 g/m*3 16.52 C 0 km/h
2062 05-09-2014 00:00:00 16.01667 C 13.08 g/m*3 16.02 C 0 km/h
2063 05-09-2014 01:00:00 15.7 C 12.92 g/m*3 15.7 C 0 km/h
2064 05-09-2014 02:00:00 15.88333 C 13.12 g/m*3 15.88 C 0 km/h
2065 05-09-2014 03:00:00 16 C 13.22 g/m*3 16 C 0 km/h
2066 05-09-2014 04:00:00 15.93333 C 13.16 g/m*3 15.93 C 0 km/h
2067 05-09-2014 05:00:00 15.88333 C 13.12 g/m*3 15.88 C 0 km/h
2068 05-09-2014 06:00:00 15.70833 C 12.98 g/m*3 15.71 C 0 km/h
2069 05-09-2014 07:00:00 15.70833 C 12.98 g/m*3 15.71 C 0 km/h
2070 05-09-2014 08:00:00 16.11667 C 13.38 g/m*3 16.12 C 0 km/h
2071 05-09-2014 09:00:00 16.7 C 13.71 g/m*3 16.7 C 0 km/h
2072 05-09-2014 10:00:00 18.025 C 14.13 g/m*3 18.02 C 0 km/h
2073 05-09-2014 11:00:00 19.48333 C 14.68 g/m*3 19.48 C 0 km/h
2074 05-09-2014 12:00:00 20.23333 C 15.02 g/m*3 20.23 C 0 km/h
2075 05-09-2014 13:00:00 22.45833 C 16.06 g/m*3 22.46 C 0 km/h
Sensor: Nr:Datum:Temp:Abs-Feuchte:Windchill:Wind:
Aussen-T/F 2076 05-09-2014 14:00:00 22.61667 C 16.45 g/m*3 22.62 C 0 km/h
2077 05-09-2014 15:00:00 22.25833 C 15.91 g/m*3 22.26 C 0 km/h
2078 05-09-2014 16:00:00 22.15 C 16.07 g/m*3 22.15 C 0 km/h
2079 05-09-2014 17:00:00 21.65833 C 16.1 g/m*3 21.66 C 0 km/h
2080 05-09-2014 18:00:00 20.33333 C 15.43 g/m*3 20.33 C 0 km/h
2081 05-09-2014 19:00:00 18.99167 C 14.67 g/m*3 18.99 C 0 km/h
2082 05-09-2014 20:00:00 18.125 C 14.13 g/m*3 18.13 C 0 km/h
2083 05-09-2014 21:00:00 17.29167 C 13.61 g/m*3 17.29 C 0 km/h
2084 05-09-2014 22:00:00 16.56667 C 13.19 g/m*3 16.57 C 0 km/h
2085 05-09-2014 23:00:00 15.975 C 12.88 g/m*3 15.98 C 0 km/h
2086 06-09-2014 00:00:00 15.68333 C 12.81 g/m*3 15.68 C 0 km/h
2087 06-09-2014 01:00:00 15.59167 C 12.76 g/m*3 15.59 C 0 km/h
2088 06-09-2014 02:00:00 15.125 C 12.45 g/m*3 15.13 C 0 km/h
2089 06-09-2014 03:00:00 14.73333 C 12.24 g/m*3 14.73 C 0 km/h
2090 06-09-2014 04:00:00 14.11667 C 11.78 g/m*3 14.12 C 0 km/h
2091 06-09-2014 05:00:00 13.925 C 11.69 g/m*3 13.93 C 0 km/h
2092 06-09-2014 06:00:00 13.85 C 11.64 g/m*3 13.85 C 0 km/h
2093 06-09-2014 07:00:00 13.76667 C 11.65 g/m*3 13.77 C 0 km/h
2094 06-09-2014 08:00:00 13.96667 C 11.8 g/m*3 13.97 C 0 km/h
2095 06-09-2014 09:00:00 14.39167 C 12.11 g/m*3 14.39 C 0 km/h
2096 06-09-2014 10:00:00 15.13333 C 12.67 g/m*3 15.13 C 0 km/h
2097 06-09-2014 11:00:00 17.11667 C 14.17 g/m*3 17.12 C 0 km/h
2098 06-09-2014 12:00:00 19.25833 C 15.03 g/m*3 19.26 C 0 km/h
2099 06-09-2014 13:00:00 20.925 C 16.08 g/m*3 20.93 C 0 km/h
2100 06-09-2014 14:00:00 21.04167 C 15.9 g/m*3 21.04 C 0 km/h
Sensor: Nr:Datum:Temp:Abs-Feuchte:Windchill:Wind:
Aussen-T/F 2101 06-09-2014 15:00:00 21.38333 C 16.3 g/m*3 21.38 C 0 km/h
2102 06-09-2014 16:00:00 22.90833 C 15.81 g/m*3 22.91 C 1.2 km/h
2103 06-09-2014 17:00:00 20.76667 C 15.89 g/m*3 20.77 C 0.66667 km/h
2104 06-09-2014 18:00:00 23.55 C 16.6 g/m*3 23.55 C 0.26667 km/h
2105 06-09-2014 19:00:00 20.86667 C 15.8 g/m*3 20.87 C 0.26667 km/h
2106 06-09-2014 20:00:00 18.6 C 14.76 g/m*3 18.6 C 0 km/h
2107 06-09-2014 21:00:00 17.99167 C 14.44 g/m*3 17.99 C 0 km/h
2108 06-09-2014 22:00:00 17.325 C 13.95 g/m*3 17.33 C 0 km/h
2109 06-09-2014 23:00:00 16.925 C 13.78 g/m*3 16.93 C 0 km/h
2110 07-09-2014 00:00:00 16.6 C 13.56 g/m*3 16.6 C 0 km/h
2111 07-09-2014 01:00:00 16.1 C 13.2 g/m*3 16.1 C 0 km/h
2112 07-09-2014 02:00:00 15.925 C 13.16 g/m*3 15.93 C 0 km/h
2113 07-09-2014 03:00:00 16.26667 C 13.43 g/m*3 16.27 C 1.33333 km/h
2114 07-09-2014 04:00:00 16.35833 C 13.5 g/m*3 16.36 C 0.66667 km/h
2115 07-09-2014 05:00:00 16.51667 C 13.56 g/m*3 16.52 C 0.66667 km/h
2116 07-09-2014 06:00:00 16.75833 C 13.7 g/m*3 16.76 C 0.26667 km/h
2117 07-09-2014 07:00:00 17.03333 C 13.91 g/m*3 17.03 C 0 km/h
2118 07-09-2014 08:00:00 17.21667 C 13.91 g/m*3 17.22 C 0 km/h
2119 07-09-2014 09:00:00 17.56667 C 13.68 g/m*3 17.57 C 2.4 km/h
2120 07-09-2014 10:00:00 18.15 C 13.56 g/m*3 18.15 C 6.16667 km/h
2121 07-09-2014 11:00:00 18 C 13.21 g/m*3 18 C 6.45 km/h
2122 07-09-2014 12:00:00 18.51667 C 13.26 g/m*3 18.52 C 3.46667 km/h
2123 07-09-2014 14:00:00 20.77143 C 14.54 g/m*3 20.77 C 3.9 km/h
2124 07-09-2014 15:00:00 22.025 C 13.69 g/m*3 22.03 C 5.09167 km/h
2125 07-09-2014 16:00:00 22.80833 C 13.82 g/m*3 22.81 C 3.73333 km/h
Sensor: Nr:Datum:Temp:Abs-Feuchte:Windchill:Wind:
Aussen-T/F 2126 07-09-2014 17:00:00 23.125 C 13.37 g/m*3 23.13 C 5.625 km/h
2127 07-09-2014 18:00:00 21.94167 C 13.6 g/m*3 21.94 C 5.075 km/h
2128 07-09-2014 19:00:00 18.375 C 13.61 g/m*3 18.38 C 0.13333 km/h
2129 07-09-2014 20:00:00 17.075 C 13.11 g/m*3 17.08 C 0 km/h
2130 07-09-2014 21:00:00 16.85 C 13.12 g/m*3 16.85 C 0 km/h
2131 07-09-2014 22:00:00 16.725 C 13.09 g/m*3 16.73 C 0 km/h
2132 07-09-2014 23:00:00 16.38333 C 12.89 g/m*3 16.38 C 0.13333 km/h
2133 08-09-2014 00:00:00 15.71667 C 12.5 g/m*3 15.72 C 0 km/h
2134 08-09-2014 01:00:00 15.41667 C 12.43 g/m*3 15.42 C 0 km/h
2135 08-09-2014 02:00:00 15.05 C 12.22 g/m*3 15.05 C 0 km/h
2136 08-09-2014 03:00:00 15.04167 C 12.32 g/m*3 15.04 C 0 km/h
2137 08-09-2014 04:00:00 14.83333 C 12.17 g/m*3 14.83 C 0 km/h
2138 08-09-2014 05:00:00 14.33333 C 11.88 g/m*3 14.33 C 0 km/h
2139 08-09-2014 06:00:00 14.325 C 11.94 g/m*3 14.33 C 0 km/h
2140 08-09-2014 07:00:00 14.33333 C 11.94 g/m*3 14.33 C 0 km/h
2141 08-09-2014 08:00:00 14.94167 C 12.39 g/m*3 14.94 C 0 km/h
2142 08-09-2014 09:00:00 16.11667 C 13.01 g/m*3 16.12 C 0.13333 km/h
2143 08-09-2014 10:00:00 17.28333 C 13.15 g/m*3 17.28 C 0.4 km/h
2144 08-09-2014 11:00:00 17.78333 C 13.49 g/m*3 17.78 C 0.13333 km/h
2145 08-09-2014 12:00:00 18.53333 C 13.71 g/m*3 18.53 C 0.53333 km/h
2146 08-09-2014 13:00:00 21.96667 C 14.16 g/m*3 21.97 C 5.375 km/h
2147 08-09-2014 14:00:00 22.85833 C 13.2 g/m*3 22.86 C 6.16667 km/h
2148 08-09-2014 15:00:00 23.36667 C 12.96 g/m*3 23.37 C 6.425 km/h
2149 08-09-2014 16:00:00 24.25833 C 12.68 g/m*3 24.26 C 7.11667 km/h
2150 08-09-2014 17:00:00 23.41667 C 12.8 g/m*3 23.42 C 5.35 km/h
Sensor: Nr:Datum:Temp:Abs-Feuchte:Windchill:Wind:
Aussen-T/F 2151 08-09-2014 18:00:00 22.36667 C 12.49 g/m*3 22.37 C 7.25833 km/h
2152 08-09-2014 19:00:00 21.00833 C 12.33 g/m*3 21.01 C 4.94167 km/h
2153 08-09-2014 20:00:00 17.9 C 12.53 g/m*3 17.9 C 1.86667 km/h
2154 08-09-2014 21:00:00 16.29167 C 12.02 g/m*3 16.29 C 0.93333 km/h
2155 08-09-2014 22:00:00 15.56667 C 11.82 g/m*3 15.57 C 0.13333 km/h
2156 08-09-2014 23:00:00 15.30833 C 11.8 g/m*3 15.31 C 0.4 km/h
2157 09-09-2014 00:00:00 14.48333 C 11.36 g/m*3 14.48 C 0.26667 km/h
2158 09-09-2014 01:00:00 13.825 C 11.13 g/m*3 13.83 C 0 km/h
2159 09-09-2014 02:00:00 13.4 C 10.96 g/m*3 13.4 C 0.13333 km/h
2160 09-09-2014 03:00:00 12.90833 C 10.71 g/m*3 12.91 C 0 km/h
2161 09-09-2014 04:00:00 12.50833 C 10.54 g/m*3 12.51 C 0 km/h
2162 09-09-2014 05:00:00 12.1 C 10.29 g/m*3 12.1 C 0 km/h
2163 09-09-2014 06:00:00 11.675 C 10.04 g/m*3 11.68 C 0.13333 km/h
2164 09-09-2014 07:00:00 11.6 C 10.06 g/m*3 11.6 C 0.26667 km/h
2165 09-09-2014 08:00:00 12.21667 C 10.48 g/m*3 12.22 C 0.13333 km/h
2166 09-09-2014 09:00:00 12.975 C 10.82 g/m*3 12.98 C 0.4 km/h
2167 09-09-2014 10:00:00 14.40833 C 11.23 g/m*3 14.41 C 2.53333 km/h
2168 09-09-2014 11:00:00 15.95833 C 11.53 g/m*3 15.96 C 2.66667 km/h
2169 09-09-2014 12:00:00 17.26667 C 11.15 g/m*3 17.27 C 4.95 km/h
2170 09-09-2014 13:00:00 19.30833 C 11.45 g/m*3 19.31 C 6.025 km/h
2171 09-09-2014 14:00:00 20.175 C 10.88 g/m*3 20.18 C 7.51667 km/h
2172 09-09-2014 15:00:00 21.025 C 10.62 g/m*3 21.03 C 7.79167 km/h
2173 09-09-2014 16:00:00 21.84167 C 10.24 g/m*3 21.84 C 8.19167 km/h
2174 09-09-2014 17:00:00 21.91667 C 9.82 g/m*3 21.92 C 8.05833 km/h
2175 09-09-2014 18:00:00 21.45 C 10.12 g/m*3 21.45 C 6.83333 km/h
Sensor: Nr:Datum:Temp:Abs-Feuchte:Windchill:Wind:
Aussen-T/F 2176 09-09-2014 19:00:00 19.45833 C 10.35 g/m*3 19.46 C 7.24167 km/h
2177 09-09-2014 20:00:00 15.9 C 10.54 g/m*3 15.9 C 1.74167 km/h
2178 09-09-2014 21:00:00 13.85 C 10.21 g/m*3 13.85 C 0.53333 km/h
2179 09-09-2014 22:00:00 12.975 C 10.07 g/m*3 12.98 C 0.13333 km/h
2180 09-09-2014 23:00:00 12.36667 C 9.88 g/m*3 12.37 C 0 km/h
2181 10-09-2014 00:00:00 11.675 C 9.63 g/m*3 11.68 C 0 km/h
2182 10-09-2014 01:00:00 11.56667 C 9.73 g/m*3 11.57 C 0 km/h
2183 10-09-2014 02:00:00 11.625 C 9.79 g/m*3 11.63 C 0 km/h
2184 10-09-2014 03:00:00 11.63333 C 9.8 g/m*3 11.63 C 0 km/h
2185 10-09-2014 04:00:00 11.65833 C 9.91 g/m*3 11.66 C 0.26667 km/h
2186 10-09-2014 05:00:00 11.83333 C 10.02 g/m*3 11.83 C 0.4 km/h
2187 10-09-2014 06:00:00 11.95833 C 10.1 g/m*3 11.96 C 0 km/h
2188 10-09-2014 07:00:00 12.24167 C 10.28 g/m*3 12.24 C 0.13333 km/h
2189 10-09-2014 08:00:00 12.9 C 10.68 g/m*3 12.9 C 0.66667 km/h
2190 10-09-2014 09:00:00 14.06667 C 11.14 g/m*3 14.07 C 0.8 km/h
2191 10-09-2014 10:00:00 15.10833 C 11.25 g/m*3 15.11 C 6.04167 km/h
2192 10-09-2014 11:00:00 15.86667 C 11.06 g/m*3 15.87 C 6.56667 km/h
2193 10-09-2014 12:00:00 16.55833 C 10.7 g/m*3 16.56 C 9.275 km/h
2194 10-09-2014 13:00:00 16.85833 C 10.51 g/m*3 16.86 C 8.20833 km/h
2195 10-09-2014 14:00:00 17.44167 C 10.16 g/m*3 17.44 C 8.61667 km/h
2196 10-09-2014 15:00:00 17.14167 C 10.01 g/m*3 17.14 C 8.88333 km/h
2197 10-09-2014 16:00:00 17.31667 C 9.7 g/m*3 17.32 C 8.60833 km/h
2198 10-09-2014 17:00:00 17.15833 C 9.11 g/m*3 17.16 C 9.00833 km/h
2199 10-09-2014 18:00:00 16.98333 C 9.08 g/m*3 16.98 C 6.975 km/h
2200 10-09-2014 19:00:00 15.84167 C 9.69 g/m*3 15.84 C 2.80833 km/h
Sensor: Nr:Datum:Temp:Abs-Feuchte:Windchill:Wind:
Aussen-T/F 2201 10-09-2014 20:00:00 14.5 C 10.2 g/m*3 14.5 C 0.53333 km/h
2202 10-09-2014 21:00:00 14.375 C 10.4 g/m*3 14.38 C 0.4 km/h
2203 10-09-2014 22:00:00 13.84167 C 10.31 g/m*3 13.84 C 0.26667 km/h
2204 10-09-2014 23:00:00 12.54167 C 9.98 g/m*3 12.54 C 0.26667 km/h
2205 11-09-2014 00:00:00 12.3 C 10.04 g/m*3 12.3 C 0.13333 km/h
2206 11-09-2014 01:00:00 12.10833 C 10.02 g/m*3 12.11 C 0.26667 km/h
2207 11-09-2014 02:00:00 12.00833 C 10.07 g/m*3 12.01 C 0.26667 km/h
2208 11-09-2014 03:00:00 12.14167 C 10.18 g/m*3 12.14 C 0.93333 km/h
2209 11-09-2014 04:00:00 12.56667 C 10.45 g/m*3 12.57 C 0.26667 km/h
2210 11-09-2014 05:00:00 12.60833 C 10.42 g/m*3 12.61 C 0.13333 km/h
2211 11-09-2014 06:00:00 12.54167 C 10.51 g/m*3 12.54 C 0.4 km/h
2212 11-09-2014 07:00:00 13.025 C 10.8 g/m*3 13.03 C 0.53333 km/h
2213 11-09-2014 08:00:00 13.76667 C 11.19 g/m*3 13.77 C 0.93333 km/h
2214 11-09-2014 09:00:00 14.825 C 11.52 g/m*3 14.83 C 5.75833 km/h
2215 11-09-2014 10:00:00 15.85 C 11.58 g/m*3 15.85 C 6.44167 km/h
2216 11-09-2014 11:00:00 16.76667 C 11.36 g/m*3 16.77 C 8.2 km/h
2217 11-09-2014 12:00:00 17.75833 C 11.28 g/m*3 17.76 C 8.45833 km/h
2218 11-09-2014 13:00:00 18.19167 C 11.13 g/m*3 18.19 C 10.23333 km/h
2219 11-09-2014 14:00:00 18.81667 C 10.85 g/m*3 18.82 C 12.76667 km/h
2220 11-09-2014 15:00:00 19.39167 C 10.58 g/m*3 19.39 C 9.275 km/h
2221 11-09-2014 16:00:00 18.91667 C 10.07 g/m*3 18.92 C 10.225 km/h
2222 11-09-2014 17:00:00 18.975 C 9.9 g/m*3 18.98 C 9.95 km/h
2223 11-09-2014 18:00:00 18.14167 C 10.87 g/m*3 18.14 C 3.48333 km/h
2224 11-09-2014 19:00:00 15.95 C 10.78 g/m*3 15.95 C 1.34167 km/h
2225 11-09-2014 20:00:00 14.675 C 9.84 g/m*3 14.68 C 1.60833 km/h
Sensor: Nr:Datum:Temp:Abs-Feuchte:Windchill:Wind:
Aussen-T/F 2226 11-09-2014 21:00:00 13.40833 C 9.77 g/m*3 13.41 C 1.06667 km/h
2227 11-09-2014 22:00:00 12.56667 C 9.64 g/m*3 12.57 C 0.4 km/h
2228 11-09-2014 23:00:00 11.76667 C 9.53 g/m*3 11.77 C 0 km/h
2229 12-09-2014 00:00:00 11.15833 C 9.35 g/m*3 11.16 C 0 km/h
2230 12-09-2014 01:00:00 10.54167 C 9.12 g/m*3 10.54 C 0 km/h
2231 12-09-2014 02:00:00 10.05833 C 8.95 g/m*3 10.06 C 0.13333 km/h
2232 12-09-2014 03:00:00 9.7 C 8.8 g/m*3 9.7 C 0.13333 km/h
2233 12-09-2014 04:00:00 9.825 C 8.92 g/m*3 9.82 C 0 km/h
2234 12-09-2014 05:00:00 9.40833 C 8.69 g/m*3 9.41 C 0.13333 km/h
2235 12-09-2014 06:00:00 8.93333 C 8.43 g/m*3 8.93 C 0 km/h
2236 12-09-2014 07:00:00 9.31667 C 8.73 g/m*3 9.32 C 0 km/h
2237 12-09-2014 08:00:00 10 C 9.11 g/m*3 10 C 0.26667 km/h
2238 12-09-2014 09:00:00 11.03333 C 9.71 g/m*3 11.03 C 0.26667 km/h
2239 12-09-2014 10:00:00 12.45833 C 10.09 g/m*3 12.46 C 4 km/h
2240 12-09-2014 11:00:00 14.175 C 10.54 g/m*3 14.18 C 7.50833 km/h
2241 12-09-2014 12:00:00 16.36667 C 11.21 g/m*3 16.37 C 9.55 km/h
2242 12-09-2014 13:00:00 18.21667 C 11.4 g/m*3 18.22 C 12.35833 km/h
2243 12-09-2014 14:00:00 19.99167 C 10.61 g/m*3 19.99 C 14.9 km/h
2244 12-09-2014 15:00:00 19.4 C 10.51 g/m*3 19.4 C 13.96667 km/h
2245 12-09-2014 16:00:00 18.95 C 10.64 g/m*3 18.95 C 10.49167 km/h
2246 12-09-2014 17:00:00 18.34167 C 10.88 g/m*3 18.34 C 12.5 km/h
2247 12-09-2014 18:00:00 17.65 C 11.27 g/m*3 17.65 C 6.975 km/h
2248 12-09-2014 19:00:00 17.20833 C 11.42 g/m*3 17.21 C 4.15 km/h
2249 12-09-2014 20:00:00 16.74167 C 11.65 g/m*3 16.74 C 3.46667 km/h
2250 12-09-2014 21:00:00 16.54167 C 11.73 g/m*3 16.54 C 3.34167 km/h
Sensor: Nr:Datum:Temp:Abs-Feuchte:Windchill:Wind:
Aussen-T/F 2251 12-09-2014 22:00:00 16.5 C 11.75 g/m*3 16.5 C 2.53333 km/h
2252 12-09-2014 23:00:00 16.4 C 11.84 g/m*3 16.4 C 0.8 km/h
2253 13-09-2014 00:00:00 16.14167 C 11.93 g/m*3 16.14 C 0.4 km/h
2254 13-09-2014 01:00:00 15.88333 C 11.91 g/m*3 15.88 C 0.53333 km/h
2255 13-09-2014 02:00:00 15.325 C 11.68 g/m*3 15.33 C 0.4 km/h
2256 13-09-2014 03:00:00 15.21667 C 11.8 g/m*3 15.22 C 0.13333 km/h
2257 13-09-2014 04:00:00 15.16667 C 11.97 g/m*3 15.17 C 0 km/h
2258 13-09-2014 05:00:00 14.86667 C 11.96 g/m*3 14.87 C 0 km/h
2259 13-09-2014 06:00:00 14.95833 C 11.84 g/m*3 14.96 C 0.4 km/h
2260 13-09-2014 07:00:00 15.125 C 11.76 g/m*3 15.13 C 2.80833 km/h
2261 13-09-2014 08:00:00 15.2 C 11.74 g/m*3 15.2 C 2.275 km/h
2262 13-09-2014 09:00:00 15.7 C 11.85 g/m*3 15.7 C 4.68333 km/h
2263 13-09-2014 10:00:00 15.9 C 11.87 g/m*3 15.9 C 6.84167 km/h
2264 13-09-2014 11:00:00 15.88333 C 11.91 g/m*3 15.88 C 5.75833 km/h
2265 13-09-2014 12:00:00 16.29167 C 12.12 g/m*3 16.29 C 4.675 km/h
2266 13-09-2014 13:00:00 17.15833 C 12.54 g/m*3 17.16 C 5.61667 km/h
2267 13-09-2014 14:00:00 17.525 C 12.64 g/m*3 17.52 C 6.83333 km/h
2268 13-09-2014 15:00:00 17.45833 C 12.73 g/m*3 17.46 C 3.875 km/h
2269 13-09-2014 16:00:00 17.56667 C 12.82 g/m*3 17.57 C 5.5 km/h
2270 13-09-2014 17:00:00 17.775 C 12.57 g/m*3 17.77 C 6.3 km/h
2271 13-09-2014 18:00:00 17.29167 C 12.56 g/m*3 17.29 C 2.4 km/h
2272 13-09-2014 19:00:00 16.41667 C 12.61 g/m*3 16.42 C 0.4 km/h
2273 13-09-2014 20:00:00 16.35 C 12.48 g/m*3 16.35 C 1.33333 km/h
2274 13-09-2014 21:00:00 16.175 C 12.45 g/m*3 16.18 C 0 km/h
2275 13-09-2014 22:00:00 15.85 C 12.31 g/m*3 15.85 C 0 km/h
Sensor: Nr:Datum:Temp:Abs-Feuchte:Windchill:Wind:
Aussen-T/F 2276 13-09-2014 23:00:00 15.68333 C 12.3 g/m*3 15.68 C 0 km/h
2277 14-09-2014 00:00:00 15.6 C 12.23 g/m*3 15.6 C 0 km/h
2278 14-09-2014 01:00:00 15.625 C 12.31 g/m*3 15.63 C 0 km/h
2279 14-09-2014 02:00:00 15.64167 C 12.27 g/m*3 15.64 C 0.13333 km/h
2280 14-09-2014 03:00:00 15.45 C 12.21 g/m*3 15.45 C 0 km/h
2281 14-09-2014 04:00:00 15.3 C 12.1 g/m*3 15.3 C 0 km/h
2282 14-09-2014 05:00:00 15.21667 C 11.92 g/m*3 15.22 C 0.26667 km/h
2283 14-09-2014 06:00:00 15.13333 C 11.76 g/m*3 15.13 C 0.66667 km/h
2284 14-09-2014 07:00:00 14.95833 C 11.55 g/m*3 14.96 C 0.93333 km/h
2285 14-09-2014 08:00:00 15.03333 C 11.66 g/m*3 15.03 C 0.66667 km/h
2286 14-09-2014 09:00:00 15.425 C 11.75 g/m*3 15.43 C 0.93333 km/h
2287 14-09-2014 10:00:00 16.05833 C 11.99 g/m*3 16.06 C 2.66667 km/h
2288 14-09-2014 11:00:00 16.80833 C 12.23 g/m*3 16.81 C 3.6 km/h
2289 14-09-2014 12:00:00 17.06667 C 12.43 g/m*3 17.07 C 1.46667 km/h
2290 14-09-2014 13:00:00 17.72 C 12.75 g/m*3 17.72 C 0.96 km/h
2291 14-09-2014 14:00:00 18.55833 C 13.24 g/m*3 18.56 C 0.93333 km/h
2292 14-09-2014 15:00:00 18.625 C 13.34 g/m*3 18.63 C 0.4 km/h
2293 14-09-2014 16:00:00 20.3 C 13.66 g/m*3 20.3 C 2.4 km/h
2294 14-09-2014 17:00:00 21.6 C 13.67 g/m*3 21.6 C 2.93333 km/h
2295 14-09-2014 18:00:00 20.7 C 14 g/m*3 20.7 C 0.93333 km/h
2296 14-09-2014 19:00:00 18.425 C 13.51 g/m*3 18.43 C 0 km/h
2297 14-09-2014 20:00:00 16.18333 C 12.59 g/m*3 16.18 C 0.26667 km/h
2298 14-09-2014 21:00:00 15.60833 C 12.3 g/m*3 15.61 C 0 km/h
2299 14-09-2014 22:00:00 15.00833 C 12.11 g/m*3 15.01 C 0 km/h
2300 14-09-2014 23:00:00 14.225 C 11.59 g/m*3 14.23 C 0 km/h
Sensor: Nr:Datum:Temp:Abs-Feuchte:Windchill:Wind:
Aussen-T/F 2301 15-09-2014 00:00:00 13.58333 C 11.28 g/m*3 13.58 C 0 km/h
2302 15-09-2014 01:00:00 13.05833 C 10.93 g/m*3 13.06 C 0 km/h
2303 15-09-2014 02:00:00 12.55 C 10.65 g/m*3 12.55 C 0 km/h
2304 15-09-2014 03:00:00 12.26667 C 10.51 g/m*3 12.27 C 0 km/h
2305 15-09-2014 04:00:00 12.775 C 10.86 g/m*3 12.78 C 0.13333 km/h
2306 15-09-2014 05:00:00 12.86667 C 10.99 g/m*3 12.87 C 0 km/h
2307 15-09-2014 06:00:00 12.99167 C 11.11 g/m*3 12.99 C 0 km/h
2308 15-09-2014 07:00:00 13.1 C 11.18 g/m*3 13.1 C 0.26667 km/h
2309 15-09-2014 08:00:00 13.28333 C 11.31 g/m*3 13.28 C 0 km/h
2310 15-09-2014 09:00:00 13.76667 C 11.65 g/m*3 13.77 C 0 km/h
2311 15-09-2014 10:00:00 14.22 C 11.98 g/m*3 14.22 C 0.32 km/h
2312 15-09-2014 11:00:00 16.625 C 13.29 g/m*3 16.63 C 1.86667 km/h
2313 15-09-2014 12:00:00 19.025 C 13.83 g/m*3 19.02 C 6.025 km/h
2314 15-09-2014 13:00:00 20.26667 C 14.04 g/m*3 20.27 C 3.33333 km/h
2315 15-09-2014 14:00:00 19.80833 C 14.44 g/m*3 19.81 C 1.06667 km/h
2316 15-09-2014 15:00:00 20.93333 C 14.29 g/m*3 20.93 C 5.48333 km/h
2317 15-09-2014 16:00:00 21.91667 C 14.49 g/m*3 21.92 C 6.29167 km/h
2318 15-09-2014 17:00:00 20.95 C 14.64 g/m*3 20.95 C 2.53333 km/h
2319 15-09-2014 18:00:00 19.51667 C 14.66 g/m*3 19.52 C 0.4 km/h
2320 15-09-2014 19:00:00 17.99167 C 13.79 g/m*3 17.99 C 0.13333 km/h
2321 15-09-2014 20:00:00 16.53333 C 13.04 g/m*3 16.53 C 0.4 km/h
2322 15-09-2014 21:00:00 16.09167 C 12.83 g/m*3 16.09 C 0.13333 km/h
2323 15-09-2014 22:00:00 15.59167 C 12.63 g/m*3 15.59 C 0 km/h
2324 15-09-2014 23:00:00 15.1 C 12.34 g/m*3 15.1 C 0 km/h
2325 16-09-2014 00:00:00 14.5 C 11.98 g/m*3 14.5 C 0 km/h
Sensor: Nr:Datum:Temp:Abs-Feuchte:Windchill:Wind:
Aussen-T/F 2326 16-09-2014 01:00:00 14.13333 C 11.77 g/m*3 14.13 C 0 km/h
2327 16-09-2014 02:00:00 13.66667 C 11.46 g/m*3 13.67 C 0 km/h
2328 16-09-2014 03:00:00 13.25833 C 11.18 g/m*3 13.26 C 0 km/h
2329 16-09-2014 04:00:00 13.45833 C 11.36 g/m*3 13.46 C 0 km/h
2330 16-09-2014 05:00:00 13.70833 C 11.61 g/m*3 13.71 C 0 km/h
2331 16-09-2014 06:00:00 13.775 C 11.65 g/m*3 13.78 C 0 km/h
2332 16-09-2014 07:00:00 13.9 C 11.75 g/m*3 13.9 C 0.13333 km/h
2333 16-09-2014 08:00:00 14.10833 C 11.9 g/m*3 14.11 C 0.93333 km/h
2334 16-09-2014 09:00:00 14.6 C 12.26 g/m*3 14.6 C 1.6 km/h
2335 16-09-2014 10:00:00 15.43333 C 12.9 g/m*3 15.43 C 0.8 km/h
2336 16-09-2014 11:00:00 17.20833 C 13.69 g/m*3 17.21 C 5.63333 km/h
2337 16-09-2014 12:00:00 19.05833 C 14.05 g/m*3 19.06 C 4.68333 km/h
2338 16-09-2014 13:00:00 22.09167 C 14.99 g/m*3 22.09 C 7.10833 km/h
2339 16-09-2014 14:00:00 23.09167 C 14.96 g/m*3 23.09 C 6.44167 km/h
2340 16-09-2014 15:00:00 21.69167 C 15.16 g/m*3 21.69 C 2.94167 km/h
2341 16-09-2014 16:00:00 24.63333 C 14.86 g/m*3 24.63 C 4.95 km/h
2342 16-09-2014 17:00:00 22.30833 C 14.98 g/m*3 22.31 C 1.2 km/h
2343 16-09-2014 18:00:00 20.45 C 14.77 g/m*3 20.45 C 0.4 km/h
2344 16-09-2014 19:00:00 18.53333 C 13.81 g/m*3 18.53 C 1.06667 km/h
2345 16-09-2014 20:00:00 16.85 C 12.94 g/m*3 16.85 C 0.26667 km/h
2346 16-09-2014 21:00:00 16.025 C 12.61 g/m*3 16.02 C 0 km/h
2347 16-09-2014 22:00:00 15.35 C 12.28 g/m*3 15.35 C 0 km/h
2348 16-09-2014 23:00:00 14.55 C 11.8 g/m*3 14.55 C 0 km/h
2349 17-09-2014 00:00:00 13.91667 C 11.5 g/m*3 13.92 C 0 km/h
2350 17-09-2014 01:00:00 13.625 C 11.33 g/m*3 13.63 C 0 km/h
Sensor: Nr:Datum:Temp:Abs-Feuchte:Windchill:Wind:
Aussen-T/F 2351 17-09-2014 02:00:00 13.2 C 11.09 g/m*3 13.2 C 0 km/h
2352 17-09-2014 03:00:00 12.63333 C 10.75 g/m*3 12.63 C 0 km/h
2353 17-09-2014 04:00:00 12.15 C 10.43 g/m*3 12.15 C 0 km/h
2354 17-09-2014 05:00:00 12.24167 C 10.54 g/m*3 12.24 C 0 km/h
2355 17-09-2014 06:00:00 12.35833 C 10.68 g/m*3 12.36 C 0 km/h
2356 17-09-2014 07:00:00 12.175 C 10.56 g/m*3 12.18 C 0 km/h
2357 17-09-2014 08:00:00 12.35 C 10.67 g/m*3 12.35 C 0 km/h
2358 17-09-2014 09:00:00 12.86667 C 11.02 g/m*3 12.87 C 0 km/h
2359 17-09-2014 10:00:00 13.6 C 11.53 g/m*3 13.6 C 0 km/h
2360 17-09-2014 11:00:00 14.88333 C 12.51 g/m*3 14.88 C 0 km/h
2361 17-09-2014 12:00:00 16.725 C 13.84 g/m*3 16.73 C 0.66667 km/h
2362 17-09-2014 13:00:00 20.76667 C 15.32 g/m*3 20.77 C 2.66667 km/h
2363 17-09-2014 14:00:00 22.73333 C 15.59 g/m*3 22.73 C 3.61667 km/h
2364 17-09-2014 15:00:00 22.15 C 15.5 g/m*3 22.15 C 0.94167 km/h
2365 17-09-2014 16:00:00 22.575 C 15.43 g/m*3 22.58 C 0.4 km/h
2366 17-09-2014 17:00:00 21.29167 C 15.34 g/m*3 21.29 C 0 km/h
2367 17-09-2014 18:00:00 20.225 C 15.15 g/m*3 20.23 C 0 km/h
2368 17-09-2014 19:00:00 18.45 C 14.13 g/m*3 18.45 C 0 km/h
2369 17-09-2014 20:00:00 17.20833 C 13.38 g/m*3 17.21 C 0 km/h
2370 17-09-2014 21:00:00 16.35833 C 12.81 g/m*3 16.36 C 0 km/h
2371 17-09-2014 22:00:00 15.64167 C 12.47 g/m*3 15.64 C 0 km/h
2372 17-09-2014 23:00:00 15.10833 C 12.21 g/m*3 15.11 C 0 km/h
2373 18-09-2014 00:00:00 14.73333 C 12.07 g/m*3 14.73 C 0 km/h
2374 18-09-2014 01:00:00 14.43333 C 11.9 g/m*3 14.43 C 0 km/h
2375 18-09-2014 02:00:00 14.28333 C 11.9 g/m*3 14.28 C 0 km/h
Sensor: Nr:Datum:Temp:Abs-Feuchte:Windchill:Wind:
Aussen-T/F 2376 18-09-2014 03:00:00 14.29167 C 11.91 g/m*3 14.29 C 0 km/h
2377 18-09-2014 04:00:00 14.825 C 12.35 g/m*3 14.83 C 0.4 km/h
2378 18-09-2014 05:00:00 15.08333 C 12.56 g/m*3 15.08 C 0.53333 km/h
2379 18-09-2014 06:00:00 15.2 C 12.63 g/m*3 15.2 C 0 km/h
2380 18-09-2014 07:00:00 15.21667 C 12.73 g/m*3 15.22 C 0 km/h
2381 18-09-2014 08:00:00 15.675 C 13.09 g/m*3 15.68 C 0 km/h
2382 18-09-2014 09:00:00 16.23333 C 13.54 g/m*3 16.23 C 0 km/h
2383 18-09-2014 10:00:00 17.175 C 14.33 g/m*3 17.18 C 0 km/h
2384 18-09-2014 11:00:00 17.90833 C 14.95 g/m*3 17.91 C 0 km/h
2385 18-09-2014 12:00:00 18.91667 C 15.47 g/m*3 18.92 C 0 km/h
2386 18-09-2014 13:00:00 19.83333 C 16 g/m*3 19.83 C 0 km/h
2387 18-09-2014 14:00:00 21.13333 C 16.54 g/m*3 21.13 C 0.4 km/h
2388 18-09-2014 15:00:00 22.31667 C 16.7 g/m*3 22.32 C 0.93333 km/h
2389 18-09-2014 16:00:00 21.64167 C 16.6 g/m*3 21.64 C 0.26667 km/h
2390 18-09-2014 17:00:00 20.25833 C 16.49 g/m*3 20.26 C 0 km/h
2391 18-09-2014 18:00:00 19.94167 C 16.43 g/m*3 19.94 C 0.4 km/h
2392 18-09-2014 19:00:00 19.04167 C 15.82 g/m*3 19.04 C 0 km/h
2393 18-09-2014 20:00:00 18.075 C 14.97 g/m*3 18.08 C 0 km/h
2394 18-09-2014 21:00:00 17.71667 C 14.76 g/m*3 17.72 C 0 km/h
2395 18-09-2014 22:00:00 17.875 C 14.94 g/m*3 17.88 C 0 km/h
2396 18-09-2014 23:00:00 17.89167 C 14.96 g/m*3 17.89 C 0 km/h
2397 19-09-2014 00:00:00 17.39167 C 14.52 g/m*3 17.39 C 0 km/h
2398 19-09-2014 01:00:00 16.9 C 14.1 g/m*3 16.9 C 0 km/h
2399 19-09-2014 02:00:00 16.475 C 13.74 g/m*3 16.48 C 0 km/h
2400 19-09-2014 03:00:00 16.14167 C 13.47 g/m*3 16.14 C 0 km/h
Sensor: Nr:Datum:Temp:Abs-Feuchte:Windchill:Wind:
Aussen-T/F 2401 19-09-2014 04:00:00 16.275 C 13.58 g/m*3 16.27 C 0 km/h
2402 19-09-2014 05:00:00 15.825 C 13.21 g/m*3 15.83 C 0 km/h
2403 19-09-2014 06:00:00 15.84167 C 13.3 g/m*3 15.84 C 0 km/h
2404 19-09-2014 07:00:00 16.33333 C 13.73 g/m*3 16.33 C 0.4 km/h
2405 19-09-2014 08:00:00 16.68333 C 14.06 g/m*3 16.68 C 0 km/h
2406 19-09-2014 09:00:00 17.18333 C 14.48 g/m*3 17.18 C 0.13333 km/h
2407 19-09-2014 10:00:00 17.83333 C 15.06 g/m*3 17.83 C 0.26667 km/h
2408 19-09-2014 11:00:00 18.275 C 15.46 g/m*3 18.27 C 0.13333 km/h
2409 19-09-2014 12:00:00 19.60833 C 16.51 g/m*3 19.61 C 3.35833 km/h
2410 19-09-2014 13:00:00 22.7 C 17.12 g/m*3 22.7 C 5.36667 km/h
2411 19-09-2014 14:00:00 23.00833 C 17.02 g/m*3 23.01 C 4.96667 km/h
2412 19-09-2014 15:00:00 21.70833 C 17.16 g/m*3 21.71 C 0.13333 km/h
2413 19-09-2014 16:00:00 21.45833 C 17.29 g/m*3 21.46 C 0.26667 km/h
2414 19-09-2014 17:00:00 21.70833 C 17.35 g/m*3 21.71 C 0.53333 km/h
2415 19-09-2014 18:00:00 20.76667 C 16.39 g/m*3 20.77 C 1.6 km/h
2416 19-09-2014 19:00:00 19.25833 C 15.35 g/m*3 19.26 C 2.66667 km/h
2417 19-09-2014 20:00:00 18.375 C 14.84 g/m*3 18.38 C 0.26667 km/h
2418 19-09-2014 21:00:00 17.8 C 14.57 g/m*3 17.8 C 0.13333 km/h
2419 19-09-2014 22:00:00 17.075 C 13.99 g/m*3 17.08 C 0 km/h
2420 19-09-2014 23:00:00 16.73333 C 13.81 g/m*3 16.73 C 0 km/h
2421 20-09-2014 00:00:00 16.53333 C 13.74 g/m*3 16.53 C 0 km/h
2422 20-09-2014 01:00:00 16.55 C 13.8 g/m*3 16.55 C 0 km/h
2423 20-09-2014 02:00:00 16.44167 C 13.71 g/m*3 16.44 C 0 km/h
2424 20-09-2014 03:00:00 15.925 C 13.29 g/m*3 15.93 C 0 km/h
2425 20-09-2014 04:00:00 15.7 C 13.11 g/m*3 15.7 C 0 km/h
Sensor: Nr:Datum:Temp:Abs-Feuchte:Windchill:Wind:
Aussen-T/F 2426 20-09-2014 05:00:00 15.475 C 12.93 g/m*3 15.48 C 0 km/h
2427 20-09-2014 06:00:00 15.63333 C 13.06 g/m*3 15.63 C 0.26667 km/h
2428 20-09-2014 07:00:00 15.225 C 12.74 g/m*3 15.23 C 0 km/h
2429 20-09-2014 08:00:00 16.04167 C 13.44 g/m*3 16.04 C 0 km/h
2430 20-09-2014 09:00:00 17.05 C 14.27 g/m*3 17.05 C 1.33333 km/h
2431 20-09-2014 10:00:00 18.14167 C 14.81 g/m*3 18.14 C 0.93333 km/h
2432 20-09-2014 11:00:00 19.375 C 15.17 g/m*3 19.38 C 0.4 km/h
2433 20-09-2014 12:00:00 20.5 C 15.93 g/m*3 20.5 C 0 km/h
2434 20-09-2014 13:00:00 20.63333 C 15.97 g/m*3 20.63 C 0.26667 km/h
2435 20-09-2014 14:00:00 17.66667 C 14.43 g/m*3 17.67 C 0.66667 km/h
2436 20-09-2014 15:00:00 17.33333 C 14.24 g/m*3 17.33 C 1.875 km/h
2437 20-09-2014 16:00:00 18.50833 C 15.41 g/m*3 18.51 C 0.26667 km/h
2438 20-09-2014 17:00:00 19.06667 C 15.76 g/m*3 19.07 C 0 km/h
2439 20-09-2014 18:00:00 18.25833 C 15.06 g/m*3 18.26 C 0 km/h
2440 20-09-2014 19:00:00 17.75833 C 14.69 g/m*3 17.76 C 0 km/h
2441 20-09-2014 20:00:00 16.63333 C 13.73 g/m*3 16.63 C 0.66667 km/h
2442 20-09-2014 21:00:00 15.65833 C 12.99 g/m*3 15.66 C 0 km/h
2443 20-09-2014 22:00:00 15.56667 C 13.01 g/m*3 15.57 C 0 km/h
2444 20-09-2014 23:00:00 15.90833 C 13.2 g/m*3 15.91 C 1.73333 km/h
2445 21-09-2014 00:00:00 15.45833 C 12.9 g/m*3 15.46 C 0 km/h
2446 21-09-2014 01:00:00 15.70833 C 13.12 g/m*3 15.71 C 1.875 km/h
2447 21-09-2014 02:00:00 15.775 C 13.17 g/m*3 15.78 C 0 km/h
2448 21-09-2014 03:00:00 15.76667 C 13.17 g/m*3 15.77 C 0 km/h
2449 21-09-2014 04:00:00 15.75833 C 13.16 g/m*3 15.76 C 0 km/h
2450 21-09-2014 05:00:00 15.8 C 13.19 g/m*3 15.8 C 0 km/h
Sensor: Nr:Datum:Temp:Abs-Feuchte:Windchill:Wind:
Aussen-T/F 2451 21-09-2014 06:00:00 15.675 C 13.09 g/m*3 15.68 C 0 km/h
2452 21-09-2014 07:00:00 15.40833 C 12.89 g/m*3 15.41 C 0 km/h
2453 21-09-2014 08:00:00 15.69167 C 13.15 g/m*3 15.69 C 0 km/h
2454 21-09-2014 09:00:00 15.96667 C 13.46 g/m*3 15.97 C 0 km/h
2455 21-09-2014 10:00:00 16.3 C 13.73 g/m*3 16.3 C 0 km/h
2456 21-09-2014 11:00:00 16.575 C 13.96 g/m*3 16.58 C 0 km/h
2457 21-09-2014 12:00:00 16.59167 C 13.83 g/m*3 16.59 C 3.76667 km/h
2458 21-09-2014 13:00:00 16.36667 C 13.26 g/m*3 16.37 C 7.775 km/h
2459 21-09-2014 14:00:00 16.55 C 13.2 g/m*3 16.55 C 5.91667 km/h
2460 21-09-2014 15:00:00 17.01667 C 13.25 g/m*3 17.02 C 7.25 km/h
2461 21-09-2014 16:00:00 16.80833 C 12.8 g/m*3 16.81 C 6.98333 km/h
2462 21-09-2014 17:00:00 16.425 C 12.13 g/m*3 16.43 C 7.50833 km/h
2463 21-09-2014 18:00:00 16.33333 C 11.89 g/m*3 16.33 C 4.55 km/h
2464 21-09-2014 19:00:00 14.925 C 11.57 g/m*3 14.93 C 2.95 km/h
2465 21-09-2014 20:00:00 13.45 C 10.86 g/m*3 13.45 C 0.53333 km/h
2466 21-09-2014 21:00:00 12.63333 C 10.53 g/m*3 12.63 C 0 km/h
2467 21-09-2014 22:00:00 12.15 C 10.18 g/m*3 12.15 C 0 km/h
2468 21-09-2014 23:00:00 11.94167 C 10.04 g/m*3 11.94 C 0 km/h
2469 22-09-2014 00:00:00 12.11667 C 10.05 g/m*3 12.12 C 0 km/h
2470 22-09-2014 01:00:00 11.95833 C 10.07 g/m*3 11.96 C 0 km/h
2471 22-09-2014 02:00:00 11.925 C 9.98 g/m*3 11.93 C 0 km/h
2472 22-09-2014 03:00:00 12.29167 C 10.08 g/m*3 12.29 C 0 km/h
2473 22-09-2014 04:00:00 12.64167 C 10.2 g/m*3 12.64 C 0.80833 km/h
2474 22-09-2014 05:00:00 12.55833 C 10.07 g/m*3 12.56 C 0.66667 km/h
2475 22-09-2014 06:00:00 12.175 C 9.82 g/m*3 12.18 C 3.61667 km/h
Sensor: Nr:Datum:Temp:Abs-Feuchte:Windchill:Wind:
Aussen-T/F 2476 22-09-2014 07:00:00 11.26667 C 9.49 g/m*3 11.27 C 0 km/h
2477 22-09-2014 08:00:00 11.525 C 9.53 g/m*3 11.53 C 0.26667 km/h
2478 22-09-2014 09:00:00 12.98333 C 9.5 g/m*3 12.98 C 5.1 km/h
2479 22-09-2014 10:00:00 13.63333 C 9.16 g/m*3 13.63 C 8.71667 km/h
2480 22-09-2014 11:00:00 13.69167 C 9.28 g/m*3 13.69 C 10.49167 km/h
2481 22-09-2014 12:00:00 14.39167 C 9.34 g/m*3 14.39 C 11.425 km/h
2482 22-09-2014 13:00:00 15.08333 C 9.29 g/m*3 15.08 C 14.76667 km/h
2483 22-09-2014 14:00:00 14.075 C 9.39 g/m*3 14.08 C 19.86667 km/h
2484 22-09-2014 15:00:00 12.89167 C 9.44 g/m*3 12.89 C 9.41667 km/h
2485 22-09-2014 16:00:00 13.75833 C 9.48 g/m*3 13.76 C 9.95 km/h
2486 22-09-2014 17:00:00 14.4 C 9.15 g/m*3 14.4 C 9.28333 km/h
2487 22-09-2014 18:00:00 14.65 C 9.17 g/m*3 14.65 C 5.35833 km/h
2488 22-09-2014 19:00:00 11.9 C 9.36 g/m*3 11.9 C 0.4 km/h
2489 22-09-2014 20:00:00 10.85 C 9.11 g/m*3 10.85 C 0.66667 km/h
2490 22-09-2014 21:00:00 10.25 C 8.87 g/m*3 10.25 C 0 km/h
2491 22-09-2014 22:00:00 9.86667 C 8.75 g/m*3 9.87 C 0 km/h
2492 22-09-2014 23:00:00 9.88333 C 8.74 g/m*3 9.88 C 0 km/h
2493 23-09-2014 00:00:00 9.11667 C 8.43 g/m*3 9.12 C 0 km/h
2494 23-09-2014 01:00:00 8.56667 C 8.19 g/m*3 8.57 C 0 km/h
2495 23-09-2014 02:00:00 8.025 C 7.95 g/m*3 8.03 C 0 km/h
2496 23-09-2014 03:00:00 7.66667 C 7.81 g/m*3 7.67 C 0 km/h
2497 23-09-2014 04:00:00 7.28333 C 7.66 g/m*3 7.28 C 0 km/h
2498 23-09-2014 05:00:00 6.75 C 7.39 g/m*3 6.75 C 0 km/h
2499 23-09-2014 06:00:00 6.875 C 7.5 g/m*3 6.88 C 1.20833 km/h
2500 23-09-2014 07:00:00 6.75833 C 7.43 g/m*3 6.76 C 2.68333 km/h
Sensor: Nr:Datum:Temp:Abs-Feuchte:Windchill:Wind:
Aussen-T/F 2501 23-09-2014 08:00:00 6.95 C 7.57 g/m*3 6.95 C 0.93333 km/h
2502 23-09-2014 09:00:00 7.69167 C 7.94 g/m*3 7.69 C 2.13333 km/h
2503 23-09-2014 10:00:00 8.65833 C 8.38 g/m*3 8.66 C 3.73333 km/h
2504 23-09-2014 11:00:00 9.90833 C 8.73 g/m*3 9.91 C 1.2 km/h
2505 23-09-2014 12:00:00 10.99167 C 9.22 g/m*3 10.99 C 0 km/h
2506 23-09-2014 13:00:00 13.04167 C 9.93 g/m*3 13.04 C 0 km/h
2507 23-09-2014 14:00:00 13.975 C 9.8 g/m*3 13.98 C 0.4 km/h
2508 23-09-2014 15:00:00 14.10833 C 9.34 g/m*3 14.11 C 0 km/h
2509 23-09-2014 16:00:00 16.45 C 8.83 g/m*3 16.45 C 0.53333 km/h
2510 23-09-2014 17:00:00 15.00833 C 9.44 g/m*3 15.01 C 0 km/h
2511 23-09-2014 18:00:00 12.61667 C 9.51 g/m*3 12.62 C 0 km/h
2512 23-09-2014 19:00:00 10.98333 C 8.91 g/m*3 10.98 C 0 km/h
2513 23-09-2014 20:00:00 9.95833 C 8.57 g/m*3 9.96 C 0 km/h
2514 23-09-2014 21:00:00 9.15 C 8.32 g/m*3 9.15 C 0 km/h
2515 23-09-2014 22:00:00 9.00833 C 8.31 g/m*3 9.01 C 0 km/h
2516 23-09-2014 23:00:00 8.33333 C 8 g/m*3 8.33 C 0 km/h
2517 24-09-2014 00:00:00 8.24167 C 8.05 g/m*3 8.24 C 0 km/h
2518 24-09-2014 01:00:00 8.325 C 8.1 g/m*3 8.32 C 0 km/h
2519 24-09-2014 02:00:00 7.96667 C 7.92 g/m*3 7.97 C 0 km/h
2520 24-09-2014 03:00:00 7.69167 C 7.79 g/m*3 7.69 C 0 km/h
2521 24-09-2014 04:00:00 7.55 C 7.74 g/m*3 7.55 C 0 km/h
2522 24-09-2014 05:00:00 7.325 C 7.68 g/m*3 7.33 C 0 km/h
2523 24-09-2014 06:00:00 7.29167 C 7.66 g/m*3 7.29 C 0 km/h
2524 24-09-2014 07:00:00 7.06667 C 7.55 g/m*3 7.07 C 0 km/h
2525 24-09-2014 08:00:00 7.2 C 7.63 g/m*3 7.2 C 0 km/h
Sensor: Nr:Datum:Temp:Abs-Feuchte:Windchill:Wind:
Aussen-T/F 2526 24-09-2014 09:00:00 7.7 C 7.89 g/m*3 7.7 C 0 km/h
2527 24-09-2014 10:00:00 8.475 C 8.26 g/m*3 8.48 C 0 km/h
2528 24-09-2014 11:00:00 10.15833 C 8.87 g/m*3 10.16 C 0 km/h
2529 24-09-2014 12:00:00 12.9 C 9.46 g/m*3 12.9 C 0 km/h
2530 24-09-2014 13:00:00 15.08333 C 9.81 g/m*3 15.08 C 0 km/h
2531 24-09-2014 14:00:00 15.75833 C 10.18 g/m*3 15.76 C 0 km/h
2532 24-09-2014 15:00:00 15.04167 C 10.93 g/m*3 15.04 C 0 km/h
2533 24-09-2014 16:00:00 16.25833 C 10.43 g/m*3 16.26 C 0 km/h
2534 24-09-2014 17:00:00 15.80833 C 10.54 g/m*3 15.81 C 0 km/h
2535 24-09-2014 18:00:00 14.03333 C 10.57 g/m*3 14.03 C 0 km/h
2536 24-09-2014 19:00:00 13.11667 C 10.38 g/m*3 13.12 C 0 km/h
2537 24-09-2014 20:00:00 13.69167 C 9.96 g/m*3 13.69 C 0 km/h
2538 24-09-2014 21:00:00 13.88333 C 10.01 g/m*3 13.88 C 5.5 km/h
2539 24-09-2014 22:00:00 13.04167 C 10.16 g/m*3 13.04 C 3.86667 km/h
2540 24-09-2014 23:00:00 12.9 C 10.08 g/m*3 12.9 C 3.88333 km/h
2541 25-09-2014 00:00:00 12.425 C 9.84 g/m*3 12.43 C 0.4 km/h
2542 25-09-2014 01:00:00 11.925 C 9.62 g/m*3 11.93 C 0.8 km/h
2543 25-09-2014 02:00:00 11.4 C 9.57 g/m*3 11.4 C 1.06667 km/h
2544 25-09-2014 03:00:00 11.39167 C 9.61 g/m*3 11.39 C 1.46667 km/h
2545 25-09-2014 04:00:00 11.41667 C 9.62 g/m*3 11.42 C 0.8 km/h
2546 25-09-2014 05:00:00 11.625 C 9.77 g/m*3 11.63 C 0.53333 km/h
2547 25-09-2014 06:00:00 11.6 C 9.7 g/m*3 11.6 C 0 km/h
2548 25-09-2014 07:00:00 11.60833 C 9.7 g/m*3 11.61 C 1.86667 km/h
2549 25-09-2014 08:00:00 12.125 C 9.83 g/m*3 12.13 C 4.00833 km/h
2550 25-09-2014 09:00:00 12.675 C 10.03 g/m*3 12.68 C 5.89167 km/h
Sensor: Nr:Datum:Temp:Abs-Feuchte:Windchill:Wind:
Aussen-T/F 2551 25-09-2014 10:00:00 13.65833 C 10.37 g/m*3 13.66 C 2.275 km/h
2552 25-09-2014 11:00:00 14.46667 C 10.65 g/m*3 14.47 C 4.275 km/h
2553 25-09-2014 12:00:00 15.56667 C 10.7 g/m*3 15.57 C 7.38333 km/h
2554 25-09-2014 13:00:00 16.01667 C 10.74 g/m*3 16.02 C 4.81667 km/h
2555 25-09-2014 14:00:00 16.35 C 11.19 g/m*3 16.35 C 1.33333 km/h
2556 25-09-2014 15:00:00 16.94167 C 10.68 g/m*3 16.94 C 5.09167 km/h
2557 25-09-2014 16:00:00 17.83333 C 9.72 g/m*3 17.83 C 7.79167 km/h
2558 25-09-2014 17:00:00 17.41667 C 9.77 g/m*3 17.42 C 6.575 km/h
2559 25-09-2014 18:00:00 15.9 C 10.1 g/m*3 15.9 C 3.88333 km/h
2560 25-09-2014 19:00:00 13.675 C 10.16 g/m*3 13.68 C 1.33333 km/h
2561 25-09-2014 20:00:00 13.39167 C 10.16 g/m*3 13.39 C 1.06667 km/h
2562 25-09-2014 21:00:00 13.125 C 10.15 g/m*3 13.13 C 0.66667 km/h
2563 25-09-2014 22:00:00 12.89167 C 10.12 g/m*3 12.89 C 0 km/h
2564 25-09-2014 23:00:00 12.875 C 10.03 g/m*3 12.88 C 1.06667 km/h
2565 26-09-2014 00:00:00 12.46667 C 9.86 g/m*3 12.47 C 0.53333 km/h
2566 26-09-2014 01:00:00 12.74167 C 9.88 g/m*3 12.74 C 0.13333 km/h
2567 26-09-2014 02:00:00 12.46667 C 9.88 g/m*3 12.47 C 0 km/h
2568 26-09-2014 03:00:00 11.90833 C 9.62 g/m*3 11.91 C 0 km/h
2569 26-09-2014 04:00:00 11.10833 C 9.31 g/m*3 11.11 C 0 km/h
2570 26-09-2014 05:00:00 10.68333 C 9.17 g/m*3 10.68 C 0 km/h
2571 26-09-2014 06:00:00 10.65833 C 9.18 g/m*3 10.66 C 0 km/h
2572 26-09-2014 07:00:00 10.925 C 9.3 g/m*3 10.93 C 0 km/h
2573 26-09-2014 08:00:00 11.74167 C 9.62 g/m*3 11.74 C 0 km/h
2574 26-09-2014 09:00:00 12.85 C 9.82 g/m*3 12.85 C 8.06667 km/h
2575 26-09-2014 10:00:00 13.85833 C 10.15 g/m*3 13.86 C 9 km/h
Sensor: Nr:Datum:Temp:Abs-Feuchte:Windchill:Wind:
Aussen-T/F 2576 26-09-2014 11:00:00 15.15833 C 10.77 g/m*3 15.16 C 8.20833 km/h
2577 26-09-2014 12:00:00 16.48333 C 11.18 g/m*3 16.48 C 10.48333 km/h
2578 26-09-2014 13:00:00 17.275 C 11.41 g/m*3 17.27 C 8.20833 km/h
2579 26-09-2014 14:00:00 17.975 C 11.71 g/m*3 17.98 C 7.25 km/h
2580 26-09-2014 15:00:00 17.20833 C 12.26 g/m*3 17.21 C 1.34167 km/h
2581 26-09-2014 16:00:00 16.76667 C 12.79 g/m*3 16.77 C 0.13333 km/h
2582 26-09-2014 17:00:00 16.89167 C 12.88 g/m*3 16.89 C 0.26667 km/h
2583 26-09-2014 18:00:00 16.26667 C 12.6 g/m*3 16.27 C 0.26667 km/h
2584 26-09-2014 19:00:00 15.64167 C 12.29 g/m*3 15.64 C 0.8 km/h
2585 26-09-2014 20:00:00 15.80833 C 12.44 g/m*3 15.81 C 3.46667 km/h
2586 26-09-2014 21:00:00 15.53333 C 12.32 g/m*3 15.53 C 0.8 km/h
2587 26-09-2014 22:00:00 14.925 C 12.13 g/m*3 14.93 C 0 km/h
2588 26-09-2014 23:00:00 14.63333 C 12.02 g/m*3 14.63 C 0 km/h
2589 27-09-2014 00:00:00 14.43333 C 11.89 g/m*3 14.43 C 0 km/h
2590 27-09-2014 01:00:00 14.56667 C 11.99 g/m*3 14.57 C 0 km/h
2591 27-09-2014 02:00:00 14.56667 C 11.99 g/m*3 14.57 C 0 km/h
2592 27-09-2014 03:00:00 14.4 C 11.87 g/m*3 14.4 C 0 km/h
2593 27-09-2014 04:00:00 14.3 C 11.79 g/m*3 14.3 C 0 km/h
2594 27-09-2014 05:00:00 14.18333 C 11.73 g/m*3 14.18 C 0 km/h
2595 27-09-2014 06:00:00 14.1 C 11.77 g/m*3 14.1 C 0 km/h
2596 27-09-2014 07:00:00 14.03333 C 11.72 g/m*3 14.03 C 0 km/h
2597 27-09-2014 08:00:00 14.06667 C 11.77 g/m*3 14.07 C 0 km/h
2598 27-09-2014 09:00:00 14.89167 C 12.28 g/m*3 14.89 C 0 km/h
2599 27-09-2014 10:00:00 16.31667 C 12.74 g/m*3 16.32 C 0 km/h
2600 27-09-2014 11:00:00 17.23333 C 12.59 g/m*3 17.23 C 0 km/h
Sensor: Nr:Datum:Temp:Abs-Feuchte:Windchill:Wind:
Aussen-T/F 2601 27-09-2014 12:00:00 17.59167 C 12.6 g/m*3 17.59 C 0 km/h
2602 27-09-2014 13:00:00 18.675 C 13.2 g/m*3 18.68 C 0 km/h
2603 27-09-2014 14:00:00 19.04167 C 13.55 g/m*3 19.04 C 0 km/h
2604 27-09-2014 15:00:00 18.48333 C 13.09 g/m*3 18.48 C 0 km/h
2605 27-09-2014 16:00:00 19.29167 C 12.78 g/m*3 19.29 C 1.60833 km/h
2606 27-09-2014 17:00:00 18.53333 C 13.16 g/m*3 18.53 C 0.4 km/h
2607 27-09-2014 18:00:00 17.09167 C 12.8 g/m*3 17.09 C 0.4 km/h
2608 27-09-2014 19:00:00 15.675 C 12.05 g/m*3 15.68 C 0.93333 km/h
2609 27-09-2014 20:00:00 14.56667 C 11.56 g/m*3 14.57 C 0 km/h
2610 27-09-2014 21:00:00 13.49167 C 11.02 g/m*3 13.49 C 0 km/h
2611 27-09-2014 22:00:00 12.73333 C 10.68 g/m*3 12.73 C 0 km/h
2612 27-09-2014 23:00:00 12.125 C 10.31 g/m*3 12.13 C 0 km/h
2613 28-09-2014 00:00:00 11.70833 C 10.12 g/m*3 11.71 C 0 km/h
2614 28-09-2014 01:00:00 11.38333 C 9.95 g/m*3 11.38 C 0 km/h
2615 28-09-2014 02:00:00 10.94167 C 9.67 g/m*3 10.94 C 0 km/h
2616 28-09-2014 03:00:00 11 C 9.77 g/m*3 11 C 0 km/h
2617 28-09-2014 04:00:00 10.8 C 9.68 g/m*3 10.8 C 0 km/h
2618 28-09-2014 05:00:00 10.58333 C 9.55 g/m*3 10.58 C 0 km/h
2619 28-09-2014 06:00:00 10.39167 C 9.44 g/m*3 10.39 C 0 km/h
2620 28-09-2014 07:00:00 10.65 C 9.6 g/m*3 10.65 C 0 km/h
2621 28-09-2014 08:00:00 10.775 C 9.67 g/m*3 10.78 C 1.06667 km/h
2622 28-09-2014 09:00:00 11.01667 C 9.82 g/m*3 11.02 C 0.93333 km/h
2623 28-09-2014 10:00:00 12.09167 C 10.54 g/m*3 12.09 C 0.66667 km/h
2624 28-09-2014 11:00:00 13.33333 C 11.37 g/m*3 13.33 C 1.46667 km/h
2625 28-09-2014 12:00:00 15.33333 C 12.38 g/m*3 15.33 C 0.13333 km/h
Sensor: Nr:Datum:Temp:Abs-Feuchte:Windchill:Wind:
Aussen-T/F 2626 28-09-2014 13:00:00 17.55833 C 13.7 g/m*3 17.56 C 0 km/h
2627 28-09-2014 14:00:00 18.53333 C 14.41 g/m*3 18.53 C 0.4 km/h
2628 28-09-2014 15:00:00 19.65833 C 14.88 g/m*3 19.66 C 0.53333 km/h
2629 28-09-2014 16:00:00 19.96667 C 15.03 g/m*3 19.97 C 0.26667 km/h
2630 28-09-2014 17:00:00 19 C 14.69 g/m*3 19 C 1.2 km/h
2631 28-09-2014 18:00:00 18.16667 C 14.23 g/m*3 18.17 C 0.13333 km/h
2632 28-09-2014 19:00:00 16.95833 C 13.51 g/m*3 16.96 C 0.53333 km/h
2633 28-09-2014 20:00:00 16.7 C 13.29 g/m*3 16.7 C 0.8 km/h
2634 28-09-2014 21:00:00 15.78333 C 12.74 g/m*3 15.78 C 0 km/h
2635 28-09-2014 22:00:00 14.88333 C 12.22 g/m*3 14.88 C 0 km/h
2636 28-09-2014 23:00:00 14.24167 C 11.86 g/m*3 14.24 C 0 km/h
2637 29-09-2014 00:00:00 13.75 C 11.52 g/m*3 13.75 C 0 km/h
2638 29-09-2014 01:00:00 13.075 C 11.05 g/m*3 13.08 C 0 km/h
2639 29-09-2014 02:00:00 12.69167 C 10.81 g/m*3 12.69 C 0 km/h
2640 29-09-2014 03:00:00 12.39167 C 10.69 g/m*3 12.39 C 0 km/h
2641 29-09-2014 04:00:00 12.44167 C 10.74 g/m*3 12.44 C 0 km/h
2642 29-09-2014 05:00:00 12.29167 C 10.64 g/m*3 12.29 C 0 km/h
2643 29-09-2014 06:00:00 12.08333 C 10.5 g/m*3 12.08 C 0 km/h
2644 29-09-2014 07:00:00 11.925 C 10.4 g/m*3 11.93 C 0 km/h
2645 29-09-2014 08:00:00 12.275 C 10.64 g/m*3 12.28 C 0 km/h
2646 29-09-2014 09:00:00 12.9 C 11.1 g/m*3 12.9 C 0 km/h
2647 29-09-2014 10:00:00 14.23333 C 12.11 g/m*3 14.23 C 0 km/h
2648 29-09-2014 11:00:00 15.85833 C 13.31 g/m*3 15.86 C 0 km/h
2649 29-09-2014 12:00:00 16.94167 C 13.85 g/m*3 16.94 C 0 km/h
2650 29-09-2014 13:00:00 19.05833 C 14.38 g/m*3 19.06 C 1.2 km/h
Sensor: Nr:Datum:Temp:Abs-Feuchte:Windchill:Wind:
Aussen-T/F 2651 29-09-2014 14:00:00 19.6 C 14.42 g/m*3 19.6 C 2.14167 km/h
2652 29-09-2014 15:00:00 20.35 C 14.63 g/m*3 20.35 C 2 km/h
2653 29-09-2014 16:00:00 19.44167 C 14.61 g/m*3 19.44 C 0.4 km/h
2654 29-09-2014 17:00:00 18.34167 C 14.08 g/m*3 18.34 C 0.4 km/h
2655 29-09-2014 18:00:00 17.65833 C 13.85 g/m*3 17.66 C 0.13333 km/h
2656 29-09-2014 19:00:00 17.18333 C 13.78 g/m*3 17.18 C 0.53333 km/h
2657 29-09-2014 20:00:00 17.01667 C 13.66 g/m*3 17.02 C 1.33333 km/h
2658 29-09-2014 21:00:00 16.4 C 13.45 g/m*3 16.4 C 0.13333 km/h
2659 29-09-2014 22:00:00 16.09167 C 13.29 g/m*3 16.09 C 0 km/h
2660 29-09-2014 23:00:00 15.95833 C 13.28 g/m*3 15.96 C 0 km/h
2661 30-09-2014 00:00:00 15.55833 C 12.96 g/m*3 15.56 C 0 km/h
2662 30-09-2014 01:00:00 15.325 C 12.78 g/m*3 15.33 C 0 km/h
2663 30-09-2014 02:00:00 15.29167 C 12.79 g/m*3 15.29 C 0 km/h
2664 30-09-2014 03:00:00 15.30833 C 12.8 g/m*3 15.31 C 0 km/h
2665 30-09-2014 04:00:00 15.24167 C 12.75 g/m*3 15.24 C 0 km/h
2666 30-09-2014 05:00:00 14.60833 C 12.27 g/m*3 14.61 C 0 km/h
2667 30-09-2014 06:00:00 14.66667 C 12.31 g/m*3 14.67 C 0 km/h
2668 30-09-2014 07:00:00 14.80833 C 12.42 g/m*3 14.81 C 0.53333 km/h
2669 30-09-2014 08:00:00 14.70833 C 12.34 g/m*3 14.71 C 0 km/h
2670 30-09-2014 09:00:00 15.05833 C 12.61 g/m*3 15.06 C 0 km/h
2671 30-09-2014 10:00:00 15.85833 C 13.15 g/m*3 15.86 C 2.275 km/h
2672 30-09-2014 11:00:00 17.725 C 13.62 g/m*3 17.73 C 4.16667 km/h
2673 30-09-2014 12:00:00 19.025 C 13.93 g/m*3 19.02 C 6.45833 km/h
2674 30-09-2014 13:00:00 19.05 C 13.84 g/m*3 19.05 C 3.75833 km/h
2675 30-09-2014 14:00:00 19.8 C 14.09 g/m*3 19.8 C 3.08333 km/h
Sensor: Nr:Datum:Temp:Abs-Feuchte:Windchill:Wind:
Aussen-T/F 2676 30-09-2014 15:00:00 20.38333 C 14.21 g/m*3 20.38 C 5.36667 km/h
2677 30-09-2014 16:00:00 20.41667 C 14.33 g/m*3 20.42 C 1.33333 km/h
2678 30-09-2014 17:00:00 19.91667 C 14.85 g/m*3 19.92 C 0.4 km/h
2679 30-09-2014 18:00:00 18.375 C 14.44 g/m*3 18.38 C 0 km/h
2680 30-09-2014 19:00:00 17.275 C 13.86 g/m*3 17.27 C 0 km/h
2681 30-09-2014 20:00:00 16.94167 C 13.7 g/m*3 16.94 C 0 km/h
2682 30-09-2014 21:00:00 16.70833 C 13.59 g/m*3 16.71 C 0 km/h
2683 30-09-2014 22:00:00 16.2 C 13.23 g/m*3 16.2 C 0 km/h
2684 30-09-2014 23:00:00 15.775 C 13 g/m*3 15.78 C 0 km/h
2685 01-10-2014 00:00:00 15.68333 C 12.97 g/m*3 15.68 C 0 km/h
2686 01-10-2014 01:00:00 15.425 C 12.76 g/m*3 15.43 C 0 km/h
2687 01-10-2014 02:00:00 15.19167 C 12.64 g/m*3 15.19 C 0 km/h
2688 01-10-2014 03:00:00 15.10833 C 12.63 g/m*3 15.11 C 0 km/h
2689 01-10-2014 04:00:00 14.9 C 12.48 g/m*3 14.9 C 0 km/h
2690 01-10-2014 05:00:00 14.75833 C 12.38 g/m*3 14.76 C 0 km/h
2691 01-10-2014 06:00:00 14.6 C 12.26 g/m*3 14.6 C 0 km/h
2692 01-10-2014 07:00:00 14.475 C 12.17 g/m*3 14.48 C 0 km/h
2693 01-10-2014 08:00:00 14.35833 C 12.08 g/m*3 14.36 C 0 km/h
2694 01-10-2014 09:00:00 14.40833 C 12.12 g/m*3 14.41 C 0 km/h
2695 01-10-2014 10:00:00 14.74167 C 12.37 g/m*3 14.74 C 0 km/h
2696 01-10-2014 11:00:00 15.55 C 12.73 g/m*3 15.55 C 0 km/h
2697 01-10-2014 12:00:00 16.36667 C 13.06 g/m*3 16.37 C 0 km/h
2698 01-10-2014 13:00:00 19.2 C 14.25 g/m*3 19.2 C 0 km/h
2699 01-10-2014 14:00:00 19.25 C 14.29 g/m*3 19.25 C 0 km/h
2700 01-10-2014 15:00:00 18.775 C 14.15 g/m*3 18.77 C 0 km/h
Sensor: Nr:Datum:Temp:Abs-Feuchte:Windchill:Wind:
Aussen-T/F 2701 01-10-2014 16:00:00 18.89167 C 14.1 g/m*3 18.89 C 0 km/h
2702 01-10-2014 17:00:00 17.73333 C 13.71 g/m*3 17.73 C 0 km/h
2703 01-10-2014 18:00:00 16.75833 C 13.13 g/m*3 16.76 C 0 km/h
2704 01-10-2014 19:00:00 16.25833 C 12.94 g/m*3 16.26 C 0 km/h
2705 01-10-2014 20:00:00 15.80833 C 12.69 g/m*3 15.81 C 0 km/h
2706 01-10-2014 21:00:00 14.875 C 12.11 g/m*3 14.88 C 0 km/h
2707 01-10-2014 22:00:00 14.16667 C 11.68 g/m*3 14.17 C 0 km/h
2708 01-10-2014 23:00:00 13.78333 C 11.55 g/m*3 13.78 C 0 km/h
2709 02-10-2014 00:00:00 13.5 C 11.35 g/m*3 13.5 C 0 km/h
2710 02-10-2014 01:00:00 13.425 C 11.29 g/m*3 13.43 C 0 km/h
2711 02-10-2014 02:00:00 13.26667 C 11.19 g/m*3 13.27 C 0 km/h
2712 02-10-2014 03:00:00 12.79167 C 10.91 g/m*3 12.79 C 0 km/h
2713 02-10-2014 04:00:00 12.60833 C 10.85 g/m*3 12.61 C 0 km/h
2714 02-10-2014 05:00:00 12.40833 C 10.71 g/m*3 12.41 C 0 km/h
2715 02-10-2014 06:00:00 12.24167 C 10.6 g/m*3 12.24 C 0 km/h
2716 02-10-2014 07:00:00 12.1 C 10.51 g/m*3 12.1 C 0 km/h
2717 02-10-2014 08:00:00 12.18333 C 10.56 g/m*3 12.18 C 0 km/h
2718 02-10-2014 09:00:00 12.34167 C 10.71 g/m*3 12.34 C 0 km/h
2719 02-10-2014 10:00:00 12.71667 C 10.99 g/m*3 12.72 C 0 km/h
2720 02-10-2014 11:00:00 13.36667 C 11.47 g/m*3 13.37 C 0 km/h
2721 02-10-2014 12:00:00 14.40833 C 12.18 g/m*3 14.41 C 0 km/h
2722 02-10-2014 13:00:00 17.19167 C 13.65 g/m*3 17.19 C 0 km/h
2723 02-10-2014 14:00:00 18.13333 C 14.24 g/m*3 18.13 C 0 km/h
2724 02-10-2014 15:00:00 18.325 C 14.11 g/m*3 18.33 C 0 km/h
2725 02-10-2014 16:00:00 18.225 C 14.02 g/m*3 18.23 C 0 km/h
Sensor: Nr:Datum:Temp:Abs-Feuchte:Windchill:Wind:
Aussen-T/F 2726 02-10-2014 17:00:00 17.60833 C 13.77 g/m*3 17.61 C 0 km/h
2727 02-10-2014 18:00:00 16.8 C 13.17 g/m*3 16.8 C 0 km/h
2728 02-10-2014 19:00:00 15.71667 C 12.49 g/m*3 15.72 C 0 km/h
2729 02-10-2014 20:00:00 14.89167 C 12.02 g/m*3 14.89 C 0 km/h
2730 02-10-2014 21:00:00 13.98333 C 11.49 g/m*3 13.98 C 0 km/h
2731 02-10-2014 22:00:00 13.45833 C 11.2 g/m*3 13.46 C 0 km/h
2732 02-10-2014 23:00:00 12.9 C 10.89 g/m*3 12.9 C 0 km/h
2733 03-10-2014 00:00:00 12.55833 C 10.7 g/m*3 12.56 C 0 km/h
2734 03-10-2014 01:00:00 12.03333 C 10.38 g/m*3 12.03 C 0 km/h
2735 03-10-2014 02:00:00 11.63333 C 10.16 g/m*3 11.63 C 0 km/h
2736 03-10-2014 03:00:00 11.73333 C 10.27 g/m*3 11.73 C 0 km/h
2737 03-10-2014 04:00:00 11.90833 C 10.38 g/m*3 11.91 C 0 km/h
2738 03-10-2014 05:00:00 11.975 C 10.43 g/m*3 11.98 C 0 km/h
2739 03-10-2014 06:00:00 11.625 C 10.2 g/m*3 11.63 C 0 km/h
2740 03-10-2014 07:00:00 11.125 C 9.89 g/m*3 11.13 C 0 km/h
2741 03-10-2014 08:00:00 11 C 9.83 g/m*3 11 C 0 km/h
2742 03-10-2014 09:00:00 11.34167 C 10.05 g/m*3 11.34 C 0 km/h
2743 03-10-2014 10:00:00 11.825 C 10.42 g/m*3 11.83 C 0 km/h
2744 03-10-2014 11:00:00 12.85 C 11.12 g/m*3 12.85 C 0 km/h
2745 03-10-2014 12:00:00 13.85 C 11.83 g/m*3 13.85 C 0 km/h
2746 03-10-2014 13:00:00 16.45 C 13.5 g/m*3 16.45 C 0 km/h
2747 03-10-2014 14:00:00 17.90833 C 14.12 g/m*3 17.91 C 0 km/h
2748 03-10-2014 15:00:00 19.15833 C 14.2 g/m*3 19.16 C 1.34167 km/h
2749 03-10-2014 16:00:00 19.18333 C 14.35 g/m*3 19.18 C 0.26667 km/h
2750 03-10-2014 17:00:00 17.60833 C 13.52 g/m*3 17.61 C 0 km/h
Sensor: Nr:Datum:Temp:Abs-Feuchte:Windchill:Wind:
Aussen-T/F 2751 03-10-2014 18:00:00 16.5 C 12.79 g/m*3 16.5 C 0 km/h
2752 03-10-2014 19:00:00 15.00833 C 11.87 g/m*3 15.01 C 0 km/h
2753 03-10-2014 20:00:00 14.19167 C 11.41 g/m*3 14.19 C 0 km/h
2754 03-10-2014 21:00:00 13.325 C 10.89 g/m*3 13.33 C 0.13333 km/h
2755 03-10-2014 22:00:00 12.61667 C 10.54 g/m*3 12.62 C 0 km/h
2756 03-10-2014 23:00:00 12.3 C 10.42 g/m*3 12.3 C 0 km/h
2757 04-10-2014 00:00:00 11.58333 C 9.99 g/m*3 11.58 C 0 km/h
2758 04-10-2014 01:00:00 11.125 C 9.79 g/m*3 11.13 C 0 km/h
2759 04-10-2014 02:00:00 10.69167 C 9.52 g/m*3 10.69 C 0 km/h
2760 04-10-2014 03:00:00 10.48333 C 9.45 g/m*3 10.48 C 0 km/h
2761 04-10-2014 04:00:00 10.49167 C 9.5 g/m*3 10.49 C 0 km/h
2762 04-10-2014 05:00:00 10.18333 C 9.32 g/m*3 10.18 C 0 km/h
2763 04-10-2014 06:00:00 9.94167 C 9.17 g/m*3 9.94 C 0 km/h
2764 04-10-2014 07:00:00 9.9 C 9.15 g/m*3 9.9 C 0 km/h
2765 04-10-2014 08:00:00 9.85833 C 9.13 g/m*3 9.86 C 0 km/h
2766 04-10-2014 09:00:00 10.35833 C 9.5 g/m*3 10.36 C 0 km/h
2767 04-10-2014 10:00:00 11 C 9.89 g/m*3 11 C 0 km/h
2768 04-10-2014 11:00:00 12.03333 C 10.57 g/m*3 12.03 C 0 km/h
2769 04-10-2014 12:00:00 13.5 C 11.58 g/m*3 13.5 C 0 km/h
2770 04-10-2014 13:00:00 16.425 C 12.49 g/m*3 16.43 C 0 km/h
2771 04-10-2014 14:00:00 17.7 C 12.07 g/m*3 17.7 C 0 km/h
2772 04-10-2014 15:00:00 18.8 C 11.6 g/m*3 18.8 C 1.88333 km/h
2773 04-10-2014 16:00:00 18.25 C 12.04 g/m*3 18.25 C 2.4 km/h
2774 04-10-2014 17:00:00 16.45 C 12.14 g/m*3 16.45 C 0.4 km/h
2775 04-10-2014 18:00:00 15.1 C 11.65 g/m*3 15.1 C 0.13333 km/h
Sensor: Nr:Datum:Temp:Abs-Feuchte:Windchill:Wind:
Aussen-T/F 2776 04-10-2014 19:00:00 13.98333 C 10.99 g/m*3 13.98 C 0 km/h
2777 04-10-2014 20:00:00 13.53333 C 10.88 g/m*3 13.53 C 0 km/h
2778 04-10-2014 21:00:00 13.10833 C 10.66 g/m*3 13.11 C 0 km/h
2779 04-10-2014 22:00:00 12.50833 C 10.4 g/m*3 12.51 C 0 km/h
2780 04-10-2014 23:00:00 11.86667 C 10.13 g/m*3 11.87 C 0 km/h
2781 05-10-2014 00:00:00 11.53333 C 9.97 g/m*3 11.53 C 0 km/h
2782 05-10-2014 01:00:00 11.25 C 9.86 g/m*3 11.25 C 0 km/h
2783 05-10-2014 02:00:00 10.91667 C 9.66 g/m*3 10.92 C 0.53333 km/h
2784 05-10-2014 03:00:00 10.71667 C 9.54 g/m*3 10.72 C 0 km/h
2785 05-10-2014 04:00:00 10.69167 C 9.61 g/m*3 10.69 C 0 km/h
2786 05-10-2014 05:00:00 10.975 C 9.79 g/m*3 10.98 C 0 km/h
2787 05-10-2014 06:00:00 10.95833 C 9.78 g/m*3 10.96 C 0 km/h
2788 05-10-2014 07:00:00 10.95 C 9.78 g/m*3 10.95 C 0 km/h
2789 05-10-2014 08:00:00 11.55833 C 10.16 g/m*3 11.56 C 0 km/h
2790 05-10-2014 09:00:00 12.01667 C 10.45 g/m*3 12.02 C 0 km/h
2791 05-10-2014 10:00:00 12.51667 C 10.76 g/m*3 12.52 C 0 km/h
2792 05-10-2014 11:00:00 13.25833 C 10.95 g/m*3 13.26 C 0.53333 km/h
2793 05-10-2014 12:00:00 14.84167 C 11.32 g/m*3 14.84 C 0.66667 km/h
2794 05-10-2014 13:00:00 15.725 C 11.52 g/m*3 15.73 C 2.4 km/h
2795 05-10-2014 14:00:00 15.75 C 11.72 g/m*3 15.75 C 5.225 km/h
2796 05-10-2014 15:00:00 15.81667 C 11.78 g/m*3 15.82 C 3.6 km/h
2797 05-10-2014 16:00:00 15.85833 C 11.73 g/m*3 15.86 C 6.01667 km/h
2798 05-10-2014 17:00:00 15.325 C 11.52 g/m*3 15.33 C 4.54167 km/h
2799 05-10-2014 18:00:00 14.53333 C 11.28 g/m*3 14.53 C 0.93333 km/h
2800 05-10-2014 19:00:00 13.34167 C 10.82 g/m*3 13.34 C 0 km/h
Sensor: Nr:Datum:Temp:Abs-Feuchte:Windchill:Wind:
Aussen-T/F 2801 05-10-2014 20:00:00 13.1 C 10.9 g/m*3 13.1 C 0 km/h
2802 05-10-2014 21:00:00 13.14167 C 10.87 g/m*3 13.14 C 0.13333 km/h
2803 05-10-2014 22:00:00 13.05 C 10.81 g/m*3 13.05 C 0 km/h
2804 05-10-2014 23:00:00 12.75833 C 10.69 g/m*3 12.76 C 0 km/h
2805 06-10-2014 00:00:00 12.53333 C 10.58 g/m*3 12.53 C 0 km/h
2806 06-10-2014 01:00:00 12.33333 C 10.45 g/m*3 12.33 C 0 km/h
2807 06-10-2014 02:00:00 12.20833 C 10.36 g/m*3 12.21 C 0 km/h
2808 06-10-2014 03:00:00 12.2 C 10.36 g/m*3 12.2 C 0 km/h
2809 06-10-2014 04:00:00 12.25833 C 10.4 g/m*3 12.26 C 0 km/h
2810 06-10-2014 05:00:00 12.3 C 10.42 g/m*3 12.3 C 0 km/h
2811 06-10-2014 06:00:00 12.40833 C 10.49 g/m*3 12.41 C 0 km/h
2812 06-10-2014 07:00:00 12.575 C 10.6 g/m*3 12.58 C 0 km/h
2813 06-10-2014 08:00:00 12.84167 C 10.76 g/m*3 12.84 C 0.53333 km/h
2814 06-10-2014 09:00:00 13.35833 C 10.94 g/m*3 13.36 C 2.13333 km/h
2815 06-10-2014 10:00:00 14.04167 C 11.1 g/m*3 14.04 C 5.09167 km/h
2816 06-10-2014 11:00:00 15.025 C 11.49 g/m*3 15.03 C 3.2 km/h
2817 06-10-2014 12:00:00 16.2 C 11.68 g/m*3 16.2 C 4.00833 km/h
2818 06-10-2014 13:00:00 17.31667 C 11.93 g/m*3 17.32 C 5.48333 km/h
2819 06-10-2014 14:00:00 17.73333 C 11.85 g/m*3 17.73 C 6.025 km/h
2820 06-10-2014 15:00:00 18.025 C 11.87 g/m*3 18.02 C 6.7 km/h
2821 06-10-2014 16:00:00 18.5 C 11.97 g/m*3 18.5 C 5.20833 km/h
2822 06-10-2014 17:00:00 17.40833 C 12.05 g/m*3 17.41 C 2.8 km/h
2823 06-10-2014 18:00:00 15.45 C 11.65 g/m*3 15.45 C 1.06667 km/h
2824 06-10-2014 19:00:00 13.83333 C 10.98 g/m*3 13.83 C 0.53333 km/h
2825 06-10-2014 20:00:00 13.16667 C 10.79 g/m*3 13.17 C 0 km/h
Sensor: Nr:Datum:Temp:Abs-Feuchte:Windchill:Wind:
Aussen-T/F 2826 06-10-2014 21:00:00 13.51667 C 11.01 g/m*3 13.52 C 0.66667 km/h
2827 06-10-2014 22:00:00 13.74167 C 11 g/m*3 13.74 C 1.475 km/h
2828 06-10-2014 23:00:00 14.225 C 11.05 g/m*3 14.23 C 3.86667 km/h
2829 07-10-2014 00:00:00 14.15 C 11 g/m*3 14.15 C 3.06667 km/h
2830 07-10-2014 01:00:00 13.96667 C 10.95 g/m*3 13.97 C 3.46667 km/h
2831 07-10-2014 02:00:00 13.85 C 11 g/m*3 13.85 C 2.13333 km/h
2832 07-10-2014 03:00:00 13.44167 C 11.01 g/m*3 13.44 C 2.66667 km/h
2833 07-10-2014 04:00:00 13.3 C 11.07 g/m*3 13.3 C 1.86667 km/h
2834 07-10-2014 05:00:00 13.25833 C 11.14 g/m*3 13.26 C 0.4 km/h
2835 07-10-2014 06:00:00 13.26667 C 11.18 g/m*3 13.27 C 2.26667 km/h
2836 07-10-2014 07:00:00 13.35 C 11.25 g/m*3 13.35 C 1.2 km/h
2837 07-10-2014 08:00:00 13.70833 C 11.56 g/m*3 13.71 C 2.94167 km/h
2838 07-10-2014 09:00:00 14.425 C 12.03 g/m*3 14.43 C 2.13333 km/h
2839 07-10-2014 10:00:00 15.05 C 12.35 g/m*3 15.05 C 7.78333 km/h
2840 07-10-2014 11:00:00 14.925 C 11.82 g/m*3 14.93 C 11.26667 km/h
2841 07-10-2014 12:00:00 14.80833 C 11.61 g/m*3 14.81 C 13.7 km/h
2842 07-10-2014 13:00:00 16.05833 C 11.67 g/m*3 16.06 C 14.36667 km/h
2843 07-10-2014 14:00:00 16.78333 C 11.32 g/m*3 16.78 C 11.7 km/h
2844 07-10-2014 15:00:00 16.04167 C 11.63 g/m*3 16.04 C 3.625 km/h
2845 07-10-2014 16:00:00 14.40833 C 10.74 g/m*3 14.41 C 7.78333 km/h
2846 07-10-2014 17:00:00 13.1 C 9.8 g/m*3 13.1 C 7.78333 km/h
2847 07-10-2014 18:00:00 12.70833 C 9.99 g/m*3 12.71 C 3.06667 km/h
2848 07-10-2014 19:00:00 12.23333 C 10.04 g/m*3 12.23 C 1.46667 km/h
2849 07-10-2014 20:00:00 12.08333 C 9.93 g/m*3 12.08 C 1.46667 km/h
2850 07-10-2014 21:00:00 11.34167 C 9.74 g/m*3 11.34 C 0.13333 km/h
Sensor: Nr:Datum:Temp:Abs-Feuchte:Windchill:Wind:
Aussen-T/F 2851 07-10-2014 22:00:00 11.33333 C 9.87 g/m*3 11.33 C 0 km/h
2852 07-10-2014 23:00:00 11.64167 C 10.04 g/m*3 11.64 C 1.2 km/h
2853 08-10-2014 00:00:00 11.50833 C 9.96 g/m*3 11.51 C 0.53333 km/h
2854 08-10-2014 01:00:00 11.36667 C 9.94 g/m*3 11.37 C 0 km/h
2855 08-10-2014 02:00:00 11.28333 C 9.88 g/m*3 11.28 C 0 km/h
2856 08-10-2014 03:00:00 11.075 C 9.77 g/m*3 11.08 C 0 km/h
2857 08-10-2014 04:00:00 11.05833 C 9.85 g/m*3 11.06 C 0 km/h
2858 08-10-2014 05:00:00 11.13333 C 9.89 g/m*3 11.13 C 0 km/h
2859 08-10-2014 06:00:00 11.25 C 9.96 g/m*3 11.25 C 0 km/h
2860 08-10-2014 07:00:00 11.34167 C 10.02 g/m*3 11.34 C 0 km/h
2861 08-10-2014 08:00:00 11.775 C 10.3 g/m*3 11.78 C 0 km/h
2862 08-10-2014 09:00:00 12.50833 C 10.78 g/m*3 12.51 C 0 km/h
2863 08-10-2014 10:00:00 13.425 C 11.39 g/m*3 13.43 C 0 km/h
2864 08-10-2014 11:00:00 14.39167 C 11.78 g/m*3 14.39 C 0 km/h
2865 08-10-2014 12:00:00 14.29167 C 11.74 g/m*3 14.29 C 0 km/h
2866 08-10-2014 13:00:00 14.14167 C 11.8 g/m*3 14.14 C 0.93333 km/h
2867 08-10-2014 14:00:00 14.17 C 11.86 g/m*3 14.17 C 0.16 km/h
2868 08-10-2014 15:00:00 15.0625 C 12.61 g/m*3 15.06 C 1.6 km/h
2869 08-10-2014 16:00:00 15.21667 C 12.72 g/m*3 15.22 C 0 km/h
2870 08-10-2014 17:00:00 15.2 C 12.72 g/m*3 15.2 C 0 km/h
2871 08-10-2014 19:00:00 15.25556 C 12.76 g/m*3 15.26 C 0.17778 km/h
2872 08-10-2014 20:00:00 15.16667 C 12.69 g/m*3 15.17 C 0 km/h
2873 08-10-2014 21:00:00 15.26667 C 12.88 g/m*3 15.27 C 0.53333 km/h
2874 08-10-2014 22:00:00 15.85833 C 13.37 g/m*3 15.86 C 0.93333 km/h
2875 08-10-2014 23:00:00 16.16667 C 13.62 g/m*3 16.17 C 0.93333 km/h
Sensor: Nr:Datum:Temp:Abs-Feuchte:Windchill:Wind:
Aussen-T/F 2876 09-10-2014 00:00:00 16.19167 C 13.65 g/m*3 16.19 C 0 km/h
2877 09-10-2014 01:00:00 16.35833 C 13.78 g/m*3 16.36 C 4.28333 km/h
2878 09-10-2014 02:00:00 16.80833 C 13.8 g/m*3 16.81 C 6.43333 km/h
2879 09-10-2014 03:00:00 16.00833 C 13.21 g/m*3 16.01 C 1.86667 km/h
2880 09-10-2014 04:00:00 15.61667 C 12.99 g/m*3 15.62 C 1.2 km/h
2881 09-10-2014 05:00:00 15.55 C 12.99 g/m*3 15.55 C 1.2 km/h
2882 09-10-2014 06:00:00 15.6 C 13.03 g/m*3 15.6 C 0.13333 km/h
2883 09-10-2014 07:00:00 15.61111 C 13.04 g/m*3 15.61 C 0 km/h
2884 09-10-2014 11:00:00 16.9 C 14.24 g/m*3 16.9 C 0 km/h
2885 09-10-2014 12:00:00 16.96 C 14.29 g/m*3 16.96 C 0 km/h
2886 09-10-2014 14:00:00 15.54 C 12.67 g/m*3 15.54 C 7.24 km/h
2887 09-10-2014 15:00:00 15.41667 C 12.65 g/m*3 15.42 C 0.53333 km/h
2888 09-10-2014 16:00:00 15.15 C 12.61 g/m*3 15.15 C 0.94167 km/h
2889 09-10-2014 17:00:00 14.94167 C 12.52 g/m*3 14.94 C 0.53333 km/h
2890 09-10-2014 18:00:00 14.8 C 12.41 g/m*3 14.8 C 0 km/h
2891 09-10-2014 19:00:00 13.625 C 11.55 g/m*3 13.63 C 0 km/h
2892 09-10-2014 20:00:00 13.4 C 11.39 g/m*3 13.4 C 0 km/h
2893 09-10-2014 21:00:00 13.65 C 11.57 g/m*3 13.65 C 0 km/h
2894 09-10-2014 22:00:00 12.88333 C 11.02 g/m*3 12.88 C 1.74167 km/h
2895 09-10-2014 23:00:00 12.375 C 10.69 g/m*3 12.38 C 0 km/h
2896 10-10-2014 00:00:00 12.15833 C 10.55 g/m*3 12.16 C 0 km/h
2897 10-10-2014 01:00:00 12.19167 C 10.57 g/m*3 12.19 C 0 km/h
2898 10-10-2014 02:00:00 12.25833 C 10.61 g/m*3 12.26 C 0 km/h
2899 10-10-2014 03:00:00 12.60833 C 10.86 g/m*3 12.61 C 0 km/h
2900 10-10-2014 04:00:00 12.65833 C 10.92 g/m*3 12.66 C 0 km/h
Sensor: Nr:Datum:Temp:Abs-Feuchte:Windchill:Wind:
Aussen-T/F 2901 10-10-2014 05:00:00 12.725 C 10.99 g/m*3 12.73 C 0 km/h
2902 10-10-2014 06:00:00 12.69167 C 10.91 g/m*3 12.69 C 0.13333 km/h
2903 10-10-2014 07:00:00 12.83333 C 11.1 g/m*3 12.83 C 0 km/h
2904 10-10-2014 10:00:00 14.06667 C 12.01 g/m*3 14.07 C 0 km/h
2905 10-10-2014 11:00:00 14.675 C 12.28 g/m*3 14.68 C 0.93333 km/h
2906 10-10-2014 12:00:00 15.99167 C 12.7 g/m*3 15.99 C 0.53333 km/h
2907 10-10-2014 13:00:00 17.03333 C 12.72 g/m*3 17.03 C 1.46667 km/h
2908 10-10-2014 14:00:00 17.25 C 12.93 g/m*3 17.25 C 2.13333 km/h
2909 10-10-2014 15:00:00 16.40833 C 13.11 g/m*3 16.41 C 0 km/h
2910 10-10-2014 16:00:00 15.95833 C 13 g/m*3 15.96 C 0 km/h
2911 10-10-2014 17:00:00 15.75 C 12.93 g/m*3 15.75 C 0 km/h
2912 10-10-2014 18:00:00 15.10833 C 12.52 g/m*3 15.11 C 0 km/h
2913 10-10-2014 19:00:00 14.35833 C 11.96 g/m*3 14.36 C 0 km/h
2914 10-10-2014 20:00:00 14.13333 C 11.84 g/m*3 14.13 C 0 km/h
2915 10-10-2014 21:00:00 13.81667 C 11.66 g/m*3 13.82 C 0 km/h
2916 10-10-2014 22:00:00 13.79167 C 11.67 g/m*3 13.79 C 0 km/h
2917 10-10-2014 23:00:00 13.71667 C 11.62 g/m*3 13.72 C 0 km/h
2918 11-10-2014 00:00:00 13.83333 C 11.7 g/m*3 13.83 C 0 km/h
2919 11-10-2014 01:00:00 14.01667 C 11.83 g/m*3 14.02 C 0 km/h
2920 11-10-2014 02:00:00 13.49167 C 11.46 g/m*3 13.49 C 0 km/h
2921 11-10-2014 03:00:00 13.48333 C 11.49 g/m*3 13.48 C 0 km/h
2922 11-10-2014 04:00:00 13.56667 C 11.56 g/m*3 13.57 C 0 km/h
2923 11-10-2014 05:00:00 13.61667 C 11.61 g/m*3 13.62 C 0.13333 km/h
2924 11-10-2014 06:00:00 13.24167 C 11.36 g/m*3 13.24 C 0 km/h
2925 11-10-2014 07:00:00 13.55 C 11.62 g/m*3 13.55 C 0 km/h
Sensor: Nr:Datum:Temp:Abs-Feuchte:Windchill:Wind:
Aussen-T/F 2926 11-10-2014 08:00:00 13.66667 C 11.7 g/m*3 13.67 C 0 km/h
2927 11-10-2014 09:00:00 13.98333 C 11.93 g/m*3 13.98 C 0.26667 km/h
2928 11-10-2014 10:00:00 14.13333 C 12.04 g/m*3 14.13 C 0.4 km/h
2929 11-10-2014 11:00:00 14.66667 C 12.34 g/m*3 14.67 C 0 km/h
2930 11-10-2014 12:00:00 15.975 C 13.15 g/m*3 15.98 C 1.06667 km/h
2931 11-10-2014 13:00:00 16.81667 C 13.36 g/m*3 16.82 C 0.4 km/h
2932 11-10-2014 14:00:00 17.16667 C 13.71 g/m*3 17.17 C 1.6 km/h
2933 11-10-2014 15:00:00 17.625 C 13.83 g/m*3 17.63 C 1.33333 km/h
2934 11-10-2014 16:00:00 17.71667 C 13.69 g/m*3 17.72 C 0.4 km/h
2935 11-10-2014 17:00:00 17.06667 C 13.4 g/m*3 17.07 C 0.13333 km/h
2936 11-10-2014 18:00:00 15.85833 C 12.57 g/m*3 15.86 C 0.4 km/h
2937 11-10-2014 19:00:00 14.76667 C 12.09 g/m*3 14.77 C 1.33333 km/h
2938 11-10-2014 20:00:00 14.25833 C 11.76 g/m*3 14.26 C 1.06667 km/h
2939 11-10-2014 21:00:00 14.68333 C 11.62 g/m*3 14.68 C 0.8 km/h
2940 11-10-2014 22:00:00 14.03333 C 11.28 g/m*3 14.03 C 1.73333 km/h
2941 11-10-2014 23:00:00 13.46667 C 10.88 g/m*3 13.47 C 0.4 km/h
2942 12-10-2014 00:00:00 12.2 C 10.4 g/m*3 12.2 C 0 km/h
2943 12-10-2014 01:00:00 11.63333 C 10.1 g/m*3 11.63 C 0 km/h
2944 12-10-2014 02:00:00 11.04167 C 9.75 g/m*3 11.04 C 0 km/h
2945 12-10-2014 03:00:00 10.325 C 9.33 g/m*3 10.33 C 0 km/h
2946 12-10-2014 04:00:00 9.975 C 9.19 g/m*3 9.98 C 0.26667 km/h
2947 12-10-2014 05:00:00 10.24167 C 9.35 g/m*3 10.24 C 0.53333 km/h
2948 12-10-2014 06:00:00 9.975 C 9.19 g/m*3 9.98 C 0.4 km/h
2949 12-10-2014 07:00:00 9.725 C 9.06 g/m*3 9.73 C 0.66667 km/h
2950 12-10-2014 08:00:00 9.70833 C 9.12 g/m*3 9.71 C 1.06667 km/h
Sensor: Nr:Datum:Temp:Abs-Feuchte:Windchill:Wind:
Aussen-T/F 2951 12-10-2014 09:00:00 9.96667 C 9.28 g/m*3 9.97 C 0.4 km/h
2952 12-10-2014 10:00:00 10.5 C 9.6 g/m*3 10.5 C 1.34167 km/h
2953 12-10-2014 11:00:00 11.45 C 10.19 g/m*3 11.45 C 2.80833 km/h
2954 12-10-2014 12:00:00 13.02727 C 10.95 g/m*3 13.03 C 6.12727 km/h
2955 12-10-2014 13:00:00 14.65 C 11.17 g/m*3 14.65 C 4.675 km/h
2956 12-10-2014 14:00:00 15.85 C 11.54 g/m*3 15.85 C 3.2 km/h
2957 12-10-2014 15:00:00 17.04167 C 11.82 g/m*3 17.04 C 5.625 km/h
2958 12-10-2014 16:00:00 16.65 C 12.36 g/m*3 16.65 C 1.6 km/h
2959 12-10-2014 17:00:00 15.75 C 11.89 g/m*3 15.75 C 2.15 km/h
2960 12-10-2014 18:00:00 14.4 C 11.65 g/m*3 14.4 C 0 km/h
2961 12-10-2014 19:00:00 13.7 C 11.44 g/m*3 13.7 C 0.13333 km/h
2962 12-10-2014 20:00:00 13.625 C 11.51 g/m*3 13.63 C 0.93333 km/h
2963 12-10-2014 21:00:00 13.89167 C 11.74 g/m*3 13.89 C 3.475 km/h
2964 12-10-2014 22:00:00 14.13333 C 11.89 g/m*3 14.13 C 1.33333 km/h
2965 12-10-2014 23:00:00 14.00833 C 11.83 g/m*3 14.01 C 0 km/h
2966 13-10-2014 00:00:00 13.99167 C 11.81 g/m*3 13.99 C 0 km/h
2967 13-10-2014 01:00:00 14.03333 C 11.85 g/m*3 14.03 C 0.13333 km/h
2968 13-10-2014 02:00:00 13.70833 C 11.61 g/m*3 13.71 C 0 km/h
2969 13-10-2014 03:00:00 13.71667 C 11.66 g/m*3 13.72 C 0 km/h
2970 13-10-2014 04:00:00 13.58333 C 11.62 g/m*3 13.58 C 0 km/h
2971 13-10-2014 05:00:00 13.775 C 11.78 g/m*3 13.78 C 0 km/h
2972 13-10-2014 06:00:00 13.91667 C 11.88 g/m*3 13.92 C 0.13333 km/h
2973 13-10-2014 07:00:00 13.8 C 11.8 g/m*3 13.8 C 0 km/h
2974 13-10-2014 08:00:00 13.88333 C 11.86 g/m*3 13.88 C 1.46667 km/h
2975 13-10-2014 09:00:00 14.78333 C 12.53 g/m*3 14.78 C 0.53333 km/h
Sensor: Nr:Datum:Temp:Abs-Feuchte:Windchill:Wind:
Aussen-T/F 2976 13-10-2014 10:00:00 15.54167 C 13.12 g/m*3 15.54 C 0 km/h
2977 13-10-2014 11:00:00 16.075 C 13.55 g/m*3 16.08 C 0.13333 km/h
2978 13-10-2014 12:00:00 16.675 C 14.05 g/m*3 16.68 C 0.66667 km/h
2979 13-10-2014 13:00:00 16.55 C 13.85 g/m*3 16.55 C 0.66667 km/h
2980 13-10-2014 14:00:00 16.925 C 13.95 g/m*3 16.93 C 0.93333 km/h
2981 13-10-2014 15:00:00 18.06667 C 13.56 g/m*3 18.07 C 3.21667 km/h
2982 13-10-2014 16:00:00 17.81667 C 13.04 g/m*3 17.82 C 4.16667 km/h
2983 13-10-2014 17:00:00 16.63333 C 12.98 g/m*3 16.63 C 0.93333 km/h
2984 13-10-2014 18:00:00 14.94167 C 12.12 g/m*3 14.94 C 0.13333 km/h
2985 13-10-2014 19:00:00 13.9 C 11.51 g/m*3 13.9 C 0.13333 km/h
2986 13-10-2014 20:00:00 13.325 C 11.11 g/m*3 13.33 C 0.26667 km/h
2987 13-10-2014 21:00:00 13.05 C 11.03 g/m*3 13.05 C 0.66667 km/h
2988 13-10-2014 22:00:00 12.55833 C 10.7 g/m*3 12.56 C 0 km/h
2989 13-10-2014 23:00:00 12.03333 C 10.42 g/m*3 12.03 C 0 km/h
2990 14-10-2014 00:00:00 11.69167 C 10.24 g/m*3 11.69 C 0 km/h
2991 14-10-2014 01:00:00 11.425 C 10.07 g/m*3 11.43 C 0 km/h
2992 14-10-2014 02:00:00 10.825 C 9.7 g/m*3 10.83 C 0 km/h
2993 14-10-2014 03:00:00 10.45 C 9.47 g/m*3 10.45 C 0 km/h
2994 14-10-2014 04:00:00 10.075 C 9.25 g/m*3 10.07 C 0 km/h
2995 14-10-2014 05:00:00 10.075 C 9.28 g/m*3 10.07 C 0.13333 km/h
2996 14-10-2014 06:00:00 10.275 C 9.46 g/m*3 10.28 C 0 km/h
2997 14-10-2014 07:00:00 10.29167 C 9.48 g/m*3 10.29 C 0 km/h
2998 14-10-2014 08:00:00 10.13333 C 9.37 g/m*3 10.13 C 0.93333 km/h
2999 14-10-2014 09:00:00 10.60833 C 9.67 g/m*3 10.61 C 0 km/h
3000 14-10-2014 10:00:00 11.6 C 10.29 g/m*3 11.6 C 0.4 km/h
Sensor: Nr:Datum:Temp:Abs-Feuchte:Windchill:Wind:
Aussen-T/F 3001 14-10-2014 11:00:00 12.775 C 11.07 g/m*3 12.78 C 0.26667 km/h
3002 14-10-2014 12:00:00 14.19167 C 11.88 g/m*3 14.19 C 0.66667 km/h
3003 14-10-2014 13:00:00 15.51667 C 12.37 g/m*3 15.52 C 1.34167 km/h
3004 14-10-2014 14:00:00 16.8 C 12.1 g/m*3 16.8 C 3.61667 km/h
3005 14-10-2014 15:00:00 17.25833 C 12.05 g/m*3 17.26 C 4.43333 km/h
3006 14-10-2014 16:00:00 17.23333 C 11.92 g/m*3 17.23 C 3.88333 km/h
3007 14-10-2014 17:00:00 15.65833 C 11.76 g/m*3 15.66 C 0.53333 km/h
3008 14-10-2014 18:00:00 14.10833 C 11.31 g/m*3 14.11 C 0.4 km/h
3009 14-10-2014 19:00:00 13.13333 C 10.82 g/m*3 13.13 C 0 km/h
3010 14-10-2014 20:00:00 12.37273 C 10.47 g/m*3 12.37 C 0 km/h
3011 14-10-2014 21:00:00 11.78333 C 10.18 g/m*3 11.78 C 0 km/h
3012 14-10-2014 22:00:00 11.44167 C 9.98 g/m*3 11.44 C 0 km/h
3013 14-10-2014 23:00:00 11.34167 C 10.01 g/m*3 11.34 C 0 km/h
3014 15-10-2014 00:00:00 11.45833 C 10.1 g/m*3 11.46 C 0.4 km/h
3015 15-10-2014 01:00:00 11.33333 C 10.02 g/m*3 11.33 C 1.46667 km/h
3016 15-10-2014 02:00:00 11.2 C 9.93 g/m*3 11.2 C 2.53333 km/h
3017 15-10-2014 03:00:00 11.025 C 9.82 g/m*3 11.03 C 0.66667 km/h
3018 15-10-2014 04:00:00 10.73333 C 9.62 g/m*3 10.73 C 0.4 km/h
3019 15-10-2014 05:00:00 10.09167 C 9.19 g/m*3 10.09 C 0.4 km/h
3020 15-10-2014 06:00:00 9.36667 C 8.77 g/m*3 9.37 C 1.86667 km/h
3021 15-10-2014 07:00:00 9.225 C 8.77 g/m*3 8.81 C 5.21667 km/h
3022 15-10-2014 08:00:00 9.28333 C 8.8 g/m*3 8.92 C 5.08333 km/h
3023 15-10-2014 09:00:00 9.40833 C 8.87 g/m*3 9.41 C 3.06667 km/h
3024 15-10-2014 10:00:00 9.5 C 8.92 g/m*3 9.5 C 0.93333 km/h
3025 15-10-2014 11:00:00 10.51667 C 9.56 g/m*3 10.52 C 0.26667 km/h
Sensor: Nr:Datum:Temp:Abs-Feuchte:Windchill:Wind:
Aussen-T/F 3026 15-10-2014 12:00:00 12.375 C 10.46 g/m*3 12.38 C 2.14167 km/h
3027 15-10-2014 13:00:00 14.18333 C 10.87 g/m*3 14.18 C 0.66667 km/h
3028 15-10-2014 14:00:00 15.30833 C 10.79 g/m*3 15.31 C 3.75833 km/h
3029 15-10-2014 15:00:00 14.58333 C 11.16 g/m*3 14.58 C 0 km/h
3030 15-10-2014 16:00:00 14.52 C 11.32 g/m*3 14.52 C 0.16 km/h
3031 15-10-2014 17:00:00 14.3 C 11.4 g/m*3 14.3 C 0 km/h
3032 15-10-2014 19:00:00 12.88333 C 10.58 g/m*3 12.88 C 0 km/h
3033 15-10-2014 20:00:00 12.50833 C 10.41 g/m*3 12.51 C 0 km/h
3034 15-10-2014 21:00:00 12.31667 C 10.33 g/m*3 12.32 C 0 km/h
3035 15-10-2014 22:00:00 12.1 C 10.29 g/m*3 12.1 C 0 km/h
3036 15-10-2014 23:00:00 12.11667 C 10.39 g/m*3 12.12 C 0 km/h
3037 16-10-2014 00:00:00 12.425 C 10.65 g/m*3 12.43 C 0.4 km/h
3038 16-10-2014 01:00:00 12.65833 C 10.88 g/m*3 12.66 C 0 km/h
3039 16-10-2014 02:00:00 12.575 C 10.82 g/m*3 12.58 C 0.13333 km/h
3040 16-10-2014 03:00:00 12.475 C 10.76 g/m*3 12.48 C 0 km/h
3041 16-10-2014 04:00:00 12.4 C 10.71 g/m*3 12.4 C 0.13333 km/h
3042 16-10-2014 05:00:00 12.625 C 10.86 g/m*3 12.63 C 0 km/h
3043 16-10-2014 06:00:00 12.69167 C 10.97 g/m*3 12.69 C 0 km/h
3044 16-10-2014 07:00:00 12.81667 C 11.1 g/m*3 12.82 C 0 km/h
3045 16-10-2014 10:00:00 14.46667 C 12.08 g/m*3 14.47 C 4.26667 km/h
3046 16-10-2014 11:00:00 16.00909 C 12.37 g/m*3 16.01 C 7.90909 km/h
3047 16-10-2014 12:00:00 16.45 C 12.46 g/m*3 16.45 C 3.8 km/h
3048 16-10-2014 13:00:00 15.58182 C 12.51 g/m*3 15.58 C 3.5 km/h
3049 16-10-2014 14:00:00 16.55 C 12.98 g/m*3 16.55 C 3.46667 km/h
3050 16-10-2014 15:00:00 16.4 C 12.7 g/m*3 16.4 C 5.65 km/h
Sensor: Nr:Datum:Temp:Abs-Feuchte:Windchill:Wind:
Aussen-T/F 3051 16-10-2014 16:00:00 17 C 12.43 g/m*3 17 C 4.1 km/h
3052 16-10-2014 17:00:00 16.66 C 12.38 g/m*3 16.66 C 2.56 km/h
3053 16-10-2014 18:00:00 15.5125 C 11.99 g/m*3 15.51 C 1.6 km/h
3054 16-10-2014 19:00:00 14.625 C 11.94 g/m*3 14.63 C 0.2 km/h
3055 16-10-2014 20:00:00 14.55833 C 11.76 g/m*3 14.56 C 0.13333 km/h
3056 16-10-2014 21:00:00 14.33333 C 11.53 g/m*3 14.33 C 0 km/h
3057 16-10-2014 22:00:00 13.35833 C 11.13 g/m*3 13.36 C 0 km/h
3058 16-10-2014 23:00:00 12.96667 C 10.98 g/m*3 12.97 C 0 km/h
3059 17-10-2014 00:00:00 12.79167 C 10.92 g/m*3 12.79 C 0 km/h
3060 17-10-2014 01:00:00 12.83333 C 11 g/m*3 12.83 C 0 km/h
3061 17-10-2014 02:00:00 12.825 C 10.99 g/m*3 12.83 C 0 km/h
3062 17-10-2014 03:00:00 12.81667 C 10.99 g/m*3 12.82 C 0 km/h
3063 17-10-2014 04:00:00 12.83333 C 11 g/m*3 12.83 C 0 km/h
3064 17-10-2014 05:00:00 12.9 C 11.05 g/m*3 12.9 C 0 km/h
3065 17-10-2014 06:00:00 13.075 C 11.21 g/m*3 13.08 C 0 km/h
3066 17-10-2014 07:00:00 12.925 C 11.06 g/m*3 12.93 C 0 km/h
3067 17-10-2014 08:00:00 12.86667 C 11.06 g/m*3 12.87 C 0 km/h
3068 17-10-2014 09:00:00 13.70833 C 11.32 g/m*3 13.71 C 4.55833 km/h
3069 17-10-2014 11:00:00 15.1 C 11.83 g/m*3 15.1 C 6.43333 km/h
3070 17-10-2014 12:00:00 15.85833 C 12.1 g/m*3 15.86 C 6.575 km/h
3071 17-10-2014 13:00:00 16.85833 C 12.42 g/m*3 16.86 C 11.025 km/h
3072 17-10-2014 14:00:00 17.13333 C 12.45 g/m*3 17.13 C 10.08333 km/h
3073 17-10-2014 15:00:00 17.075 C 12.25 g/m*3 17.08 C 7.5 km/h
3074 17-10-2014 16:00:00 17.1 C 12.48 g/m*3 17.1 C 4.55833 km/h
3075 17-10-2014 17:00:00 16.49167 C 12.16 g/m*3 16.49 C 2.53333 km/h
Sensor: Nr:Datum:Temp:Abs-Feuchte:Windchill:Wind:
Aussen-T/F 3076 17-10-2014 18:00:00 15.46667 C 11.85 g/m*3 15.47 C 0.66667 km/h
3077 17-10-2014 19:00:00 14.44167 C 11.53 g/m*3 14.44 C 0 km/h
3078 17-10-2014 20:00:00 13.16667 C 10.96 g/m*3 13.17 C 0 km/h
3079 17-10-2014 21:00:00 12.33333 C 10.55 g/m*3 12.33 C 0 km/h
3080 17-10-2014 22:00:00 11.7 C 10.15 g/m*3 11.7 C 0 km/h
3081 17-10-2014 23:00:00 11.25833 C 9.94 g/m*3 11.26 C 0 km/h
3082 18-10-2014 00:00:00 11.1 C 9.87 g/m*3 11.1 C 0 km/h
3083 18-10-2014 01:00:00 10.55 C 9.53 g/m*3 10.55 C 0 km/h
3084 18-10-2014 02:00:00 10.15 C 9.3 g/m*3 10.15 C 0 km/h
3085 18-10-2014 03:00:00 9.775 C 9.08 g/m*3 9.78 C 0 km/h
3086 18-10-2014 04:00:00 9.83333 C 9.11 g/m*3 9.83 C 0 km/h
3087 18-10-2014 05:00:00 9.875 C 9.14 g/m*3 9.88 C 0 km/h
3088 18-10-2014 06:00:00 9.55 C 8.96 g/m*3 9.55 C 0 km/h
3089 18-10-2014 07:00:00 9.925 C 9.23 g/m*3 9.93 C 0 km/h
3090 18-10-2014 08:00:00 10.31667 C 9.49 g/m*3 10.32 C 0 km/h
3091 18-10-2014 09:00:00 10.44167 C 9.57 g/m*3 10.44 C 0 km/h
3092 18-10-2014 10:00:00 10.6 C 9.66 g/m*3 10.6 C 0 km/h
3093 18-10-2014 11:00:00 11.25714 C 10.07 g/m*3 11.26 C 0 km/h
3094 18-10-2014 13:00:00 15.16667 C 12.82 g/m*3 15.17 C 0 km/h
3095 18-10-2014 14:00:00 15.875 C 13.33 g/m*3 15.88 C 0 km/h
3096 18-10-2014 15:00:00 16.45833 C 13.67 g/m*3 16.46 C 0 km/h
3097 18-10-2014 16:00:00 16.75 C 13.72 g/m*3 16.75 C 0 km/h
3098 18-10-2014 17:00:00 16.36667 C 13.37 g/m*3 16.37 C 0 km/h
3099 18-10-2014 18:00:00 15.69167 C 12.79 g/m*3 15.69 C 1.06667 km/h
3100 18-10-2014 19:00:00 15.05 C 12.23 g/m*3 15.05 C 1.73333 km/h
Sensor: Nr:Datum:Temp:Abs-Feuchte:Windchill:Wind:
Aussen-T/F 3101 18-10-2014 20:00:00 14.21667 C 11.81 g/m*3 14.22 C 0.53333 km/h
3102 18-10-2014 21:00:00 13.55833 C 11.43 g/m*3 13.56 C 0 km/h
3103 18-10-2014 22:00:00 13.20833 C 11.26 g/m*3 13.21 C 0 km/h
3104 18-10-2014 23:00:00 12.575 C 10.82 g/m*3 12.58 C 0 km/h
3105 19-10-2014 00:00:00 12.15833 C 10.55 g/m*3 12.16 C 0 km/h
3106 19-10-2014 01:00:00 11.71667 C 10.26 g/m*3 11.72 C 0 km/h
3107 19-10-2014 02:00:00 11.41667 C 10.1 g/m*3 11.42 C 0.26667 km/h
3108 19-10-2014 03:00:00 11.19167 C 9.95 g/m*3 11.19 C 0 km/h
3109 19-10-2014 04:00:00 10.91667 C 9.81 g/m*3 10.92 C 0 km/h
3110 19-10-2014 05:00:00 10.74167 C 9.75 g/m*3 10.74 C 0 km/h
3111 19-10-2014 06:00:00 10.43333 C 9.56 g/m*3 10.43 C 0 km/h
3112 19-10-2014 07:00:00 10.31667 C 9.49 g/m*3 10.32 C 0.13333 km/h
3113 19-10-2014 08:00:00 10.675 C 9.71 g/m*3 10.68 C 0 km/h
3114 19-10-2014 09:00:00 11.05833 C 9.95 g/m*3 11.06 C 0 km/h
3115 19-10-2014 10:00:00 11.55833 C 10.26 g/m*3 11.56 C 0 km/h
3116 19-10-2014 11:00:00 13.34167 C 11.47 g/m*3 13.34 C 0.93333 km/h
3117 19-10-2014 12:00:00 15.36667 C 12.99 g/m*3 15.37 C 6.7 km/h
3118 19-10-2014 13:00:00 18.25 C 14.19 g/m*3 18.25 C 5.75833 km/h
3119 19-10-2014 14:00:00 19.70833 C 14.38 g/m*3 19.71 C 10.89167 km/h
3120 19-10-2014 15:00:00 20.43333 C 14.59 g/m*3 20.43 C 10.2 km/h
3121 19-10-2014 16:00:00 19.74167 C 14.57 g/m*3 19.74 C 5.09167 km/h
3122 19-10-2014 17:00:00 19.98333 C 14.53 g/m*3 19.98 C 6.03333 km/h
3123 19-10-2014 18:00:00 19.5 C 14.25 g/m*3 19.5 C 5.76667 km/h
3124 19-10-2014 19:00:00 18.36667 C 13.92 g/m*3 18.37 C 4.28333 km/h
3125 19-10-2014 20:00:00 18.30833 C 13.75 g/m*3 18.31 C 5.90833 km/h
Sensor: Nr:Datum:Temp:Abs-Feuchte:Windchill:Wind:
Aussen-T/F 3126 19-10-2014 21:00:00 19.21667 C 13.7 g/m*3 19.22 C 12.89167 km/h
3127 19-10-2014 22:00:00 18.925 C 13.74 g/m*3 18.93 C 13.15833 km/h
3128 19-10-2014 23:00:00 19.00833 C 13.89 g/m*3 19.01 C 11.81667 km/h
3129 20-10-2014 00:00:00 17.85833 C 13.81 g/m*3 17.86 C 2.41667 km/h
3130 20-10-2014 01:00:00 18.16667 C 11.88 g/m*3 18.17 C 11.40833 km/h
3131 20-10-2014 02:00:00 16.8 C 11.54 g/m*3 16.8 C 4.41667 km/h
3132 20-10-2014 03:00:00 16.4 C 11.29 g/m*3 16.4 C 4.13333 km/h
3133 20-10-2014 04:00:00 15.29167 C 11.19 g/m*3 15.29 C 2.26667 km/h
3134 20-10-2014 05:00:00 14.85 C 11.12 g/m*3 14.85 C 1.2 km/h
3135 20-10-2014 06:00:00 14.19167 C 11.05 g/m*3 14.19 C 1.2 km/h
3136 20-10-2014 07:00:00 14.2 C 11.22 g/m*3 14.2 C 0.13333 km/h
3137 20-10-2014 08:00:00 13.75833 C 11.13 g/m*3 13.76 C 0.53333 km/h
3138 20-10-2014 09:00:00 14.03333 C 11.36 g/m*3 14.03 C 0 km/h
3139 20-10-2014 10:00:00 14.6 C 11.54 g/m*3 14.6 C 1.24444 km/h
3140 20-10-2014 11:00:00 16.35833 C 11.07 g/m*3 16.36 C 9.53333 km/h
3141 20-10-2014 12:00:00 16.88333 C 10.11 g/m*3 16.88 C 10.88333 km/h
3142 20-10-2014 13:00:00 17.7 C 10.11 g/m*3 17.7 C 9.275 km/h
3143 20-10-2014 14:00:00 17.40833 C 10.06 g/m*3 17.41 C 7.11667 km/h
3144 20-10-2014 15:00:00 17.325 C 10.2 g/m*3 17.33 C 5.09167 km/h
3145 20-10-2014 16:00:00 17.03333 C 10.25 g/m*3 17.03 C 1.6 km/h
3146 20-10-2014 18:00:00 13.88889 C 10.38 g/m*3